GFSWCAN_250_spd_000.txt.gz
Wind_Speed
94 88 83 79 73 71 67 65 63 60 59 55 54 51 52 51 52 52 48 49 47 45 49 48 50 50 51 51 52 50 51 53 55 56 55 55 54 57 59 63 66 69 72 76 77 80 78 83 86 89 93 92 97 97
96 92 87 83 80 75 72 69 64 63 58 58 60 59 58 55 54 53 55 54 47 47 45 48 50 55 55 55 57 57 58 60 60 62 62 59 60 61 65 66 73 76 82 81 85 89 89 89 94 95 100 103 103 107
94 92 89 83 85 83 80 74 72 68 68 64 63 65 62 58 58 58 58 58 59 56 55 54 56 59 59 62 65 66 68 69 69 72 72 69 71 75 75 75 78 81 89 88 88 92 96 96 99 105 107 110 113 116
105 98 95 89 90 87 85 82 80 79 74 70 70 69 68 66 66 66 63 62 61 60 60 60 63 65 68 69 69 72 74 76 79 81 80 78 81 80 78 81 83 91 96 101 96 98 102 103 111 114 117 116 115 117
111 106 98 95 96 97 93 88 87 82 81 81 77 76 73 73 74 72 70 68 69 71 70 68 68 72 75 77 79 81 82 84 84 85 86 86 88 94 86 83 87 98 105 107 102 104 111 108 109 109 114 116 119 122
114 110 101 100 97 96 97 94 90 87 86 84 85 83 82 79 80 80 77 76 79 81 82 77 76 75 79 82 82 85 88 90 89 90 90 90 92 97 92 86 94 108 108 110 112 105 105 112 115 119 128 132 131 132
116 115 109 105 103 100 98 97 93 91 88 87 89 86 87 86 86 86 81 80 85 84 87 87 82 78 82 87 93 95 95 94 95 95 94 96 97 104 102 100 106 112 111 109 111 113 117 121 126 131 131 132 128 124
120 118 116 115 110 107 103 104 104 99 94 93 93 94 93 93 92 90 88 87 90 94 96 96 92 87 87 89 94 96 97 101 103 101 99 104 105 109 112 115 114 114 115 119 120 120 126 132 138 130 129 123 120 120
127 124 121 120 116 115 114 108 107 106 103 101 98 96 99 98 97 95 96 97 96 99 98 95 92 92 93 96 98 99 101 104 107 103 103 111 105 111 120 118 116 117 119 122 124 127 136 134 134 128 123 119 113 105
127 126 124 124 123 118 116 115 114 114 110 105 106 108 103 98 98 101 103 106 105 101 100 99 100 104 105 106 108 108 111 113 117 114 117 118 116 119 120 120 125 127 126 127 131 137 131 130 121 117 112 107 99 93
132 132 125 125 127 122 121 121 118 116 112 107 107 109 109 108 109 108 109 108 107 108 108 108 111 115 114 115 116 117 119 122 124 118 124 126 123 123 124 125 127 132 129 136 129 127 126 122 116 107 102 98 94 93
122 125 127 126 125 126 123 124 124 120 117 117 112 111 115 115 117 114 114 116 119 119 116 117 119 120 120 120 122 125 125 126 125 125 127 124 131 131 130 130 130 131 130 129 127 122 114 110 108 100 93 91 90 91
126 127 125 121 120 120 122 123 123 125 122 125 123 123 119 119 120 119 119 118 121 125 126 127 125 126 126 126 128 130 134 136 137 133 128 128 136 131 128 121 119 120 120 120 115 108 104 101 99 97 95 95 94 95
105 108 106 106 107 113 117 120 125 128 127 128 131 131 125 127 125 124 127 125 124 123 125 127 129 129 129 132 137 136 130 127 125 126 131 137 130 123 119 114 112 112 111 106 104 101 100 98 95 95 96 94 93 93
90 92 94 95 101 106 108 110 117 123 127 130 130 131 128 128 129 131 132 129 123 123 120 118 120 121 121 125 126 126 127 127 131 138 132 126 119 115 114 110 107 106 105 103 101 98 96 95 92 92 92 92 91 89
82 82 85 94 99 100 101 101 102 110 116 119 116 117 120 123 129 129 125 125 119 115 118 121 121 121 121 123 121 123 127 125 123 119 114 113 113 108 105 104 103 105 105 104 100 95 93 92 90 88 89 87 82 78
76 78 81 84 88 91 93 95 100 106 101 102 105 106 108 112 115 116 116 115 113 114 117 120 118 117 115 111 114 112 111 108 108 106 107 106 106 104 104 102 102 100 97 96 92 89 88 88 88 85 80 76 74 71
76 76 76 79 81 83 85 86 88 88 88 90 94 105 113 112 109 111 109 106 103 107 108 109 107 105 104 106 107 104 102 102 101 100 97 95 97 99 99 97 95 93 91 88 86 85 84 82 79 75 72 70 68 67
74 75 77 78 80 81 82 82 82 83 85 87 90 93 94 94 95 96 97 97 97 99 99 99 99 101 102 102 100 97 95 95 94 91 91 91 92 91 88 87 86 84 83 79 77 76 73 72 69 67 65 64 63 61
70 72 75 76 77 79 81 82 83 83 83 85 86 88 88 91 92 95 96 96 96 94 93 94 94 92 92 90 91 91 88 88 88 84 82 83 84 81 79 77 75 74 72 69 68 67 65 64 62 61 60 59 59 58
65 67 70 71 73 74 75 76 77 78 79 80 84 85 85 87 88 88 85 83 79 82 87 87 84 83 81 80 80 80 78 80 77 77 75 70 70 72 71 69 65 64 64 63 61 60 59 58 57 57 56 55 54 52
58 60 61 63 65 67 68 69 70 71 73 75 78 78 78 78 77 76 72 72 75 80 77 74 72 70 69 71 72 72 73 70 68 68 66 64 64 63 62 60 58 57 57 56 55 55 55 54 53 53 52 50 49 49
50 51 52 53 53 54 56 58 61 63 65 67 67 64 65 63 63 61 59 65 69 71 66 62 61 61 59 63 64 64 63 61 61 60 59 58 58 55 55 54 51 51 50 49 50 50 50 50 49 48 47 47 47 46
43 44 45 46 48 51 54 56 56 56 55 53 53 52 54 55 53 53 56 64 65 58 56 54 52 53 55 56 56 55 54 54 52 53 50 51 50 48 47 47 46 46 46 46 46 46 45 45 45 45 44 44 44 44
37 37 40 44 48 50 51 50 48 45 43 43 45 48 53 49 48 50 57 56 51 49 47 47 49 49 49 50 49 47 46 45 44 45 43 45 45 46 46 46 47 47 46 45 44 43 42 41 41 41 42 42 43 44
32 36 43 46 45 41 39 39 38 38 40 42 45 48 46 44 44 49 49 41 44 46 46 46 44 43 42 41 42 41 40 40 41 41 42 43 43 44 46 46 45 44 42 41 41 40 39 39 40 41 42 43 44 45
38 42 41 37 34 33 32 33 37 40 43 42 38 37 37 38 40 39 37 40 41 41 41 40 39 39 37 38 39 40 40 40 40 40 41 42 42 43 42 42 42 41 40 40 40 40 39 40 41 42 43 44 44 44
34 32 32 28 29 32 34 36 36 36 33 32 36 37 35 34 35 35 36 37 37 36 37 38 37 36 36 38 39 39 39 40 40 39 38 38 39 40 39 39 40 40 41 41 41 41 40 40 41 42 42 43 43 43
28 27 27 31 30 30 30 28 30 31 31 34 35 34 34 33 32 33 35 35 35 35 36 36 34 35 35 37 37 38 39 40 40 39 39 38 38 38 38 38 39 39 39 39 39 39 39 39 40 40 41 43 43 43
24 26 27 26 28 27 24 29 28 28 30 31 32 32 31 30 32 34 33 35 37 38 37 35 34 36 37 37 37 37 38 38 39 38 37 37 37 38 38 37 37 37 37 37 37 37 38 39 40 40 41 41 42 42
23 25 24 25 27 25 27 28 26 26 27 29 31 32 30 31 32 33 33 35 36 36 35 35 37 37 36 37 37 37 37 36 37 37 36 36 36 37 37 36 37 36 37 37 38 38 38 37 38 40 41 42 42 42
24 25 26 26 25 26 26 27 29 28 28 28 29 32 31 31 32 30 32 36 36 35 35 35 36 37 36 36 36 36 36 35 35 35 35 35 36 36 36 36 36 36 37 37 38 38 38 39 39 40 40 40 40 39
24 24 25 26 25 26 27 29 28 28 28 29 30 31 32 32 31 29 31 34 35 34 34 33 33 34 34 34 35 36 36 36 36 36 36 36 35 35 34 34 35 35 37 38 39 39 40 40 41 40 40 39 38 38

GFSWCAN_250_spd_003.txt.gz
Wind_Speed
82 85 77 74 74 71 70 65 62 62 59 57 55 53 50 49 47 48 48 48 45 43 44 45 47 47 48 45 43 43 45 49 48 51 50 50 52 56 57 60 64 66 70 71 72 76 81 86 86 92 92 91 102 104
89 90 84 78 77 76 73 74 69 65 63 58 55 55 53 52 51 50 49 50 48 48 48 50 54 52 51 51 51 50 50 50 53 57 59 60 62 62 66 65 72 74 77 79 82 81 86 88 92 95 100 106 111 111
97 96 92 87 82 81 76 76 73 71 67 65 62 61 60 59 57 55 56 55 56 54 52 50 55 56 58 59 59 60 64 65 66 68 68 68 70 72 73 73 76 78 83 85 87 87 85 91 95 104 108 113 113 113
102 99 95 94 89 84 79 79 76 75 74 69 69 67 67 66 66 65 61 62 62 63 57 53 59 60 62 64 64 66 70 71 71 74 73 73 74 76 75 78 80 83 88 88 86 92 92 96 103 106 109 117 120 116
111 103 100 94 97 95 88 85 83 81 77 72 70 73 73 69 68 66 67 66 68 70 67 62 64 69 69 70 73 75 75 76 78 80 80 80 82 87 83 81 81 90 95 97 93 97 104 103 108 115 120 127 126 123
117 113 106 100 97 100 95 92 90 88 86 80 78 77 79 76 75 74 71 72 76 77 75 70 69 74 77 78 78 80 82 82 84 85 84 86 90 96 91 85 89 100 102 105 107 109 113 115 116 121 126 130 131 129
120 119 114 106 105 103 100 99 97 95 92 85 84 85 86 87 83 80 76 77 83 84 86 81 76 73 79 84 85 85 88 88 89 91 90 93 94 99 96 93 100 106 108 111 115 119 120 121 126 129 133 138 134 131
129 125 124 113 109 108 107 103 101 99 99 91 89 87 89 88 87 84 83 85 88 92 91 89 81 82 82 85 90 93 94 96 97 98 97 100 99 100 103 108 109 111 114 116 119 120 125 129 130 136 140 132 131 131
132 127 124 122 117 112 112 113 108 105 103 100 97 95 95 95 94 91 94 96 94 96 97 89 87 89 91 94 97 98 101 103 104 101 105 107 104 108 115 117 117 119 120 122 124 129 132 133 140 138 134 130 126 125
135 135 130 123 123 121 118 116 114 114 113 110 109 107 101 96 97 98 100 101 100 99 98 92 93 97 99 100 103 105 105 105 105 103 110 112 111 116 122 125 127 128 129 132 135 136 138 140 132 130 124 123 117 115
135 135 137 134 127 122 119 120 120 119 120 119 115 114 112 110 108 105 105 101 101 104 105 104 104 107 108 112 112 112 112 112 112 111 116 114 112 121 126 127 128 130 135 138 137 135 130 132 125 117 111 111 109 106
125 133 132 139 134 128 126 124 121 119 118 118 117 118 117 116 116 117 115 110 108 110 110 113 115 116 117 115 114 117 120 120 121 122 121 123 128 131 129 127 129 131 130 125 123 123 122 122 115 110 109 108 108 109
112 123 129 134 138 133 133 131 127 119 119 119 118 120 121 122 123 121 117 119 123 125 122 122 119 118 118 119 117 117 117 121 123 125 130 137 136 131 125 123 124 122 121 118 117 116 113 110 110 109 107 108 106 101
91 100 107 112 124 140 141 138 134 134 131 131 129 129 127 126 128 127 128 130 128 130 131 128 126 127 126 126 126 125 131 133 134 134 136 131 129 125 122 118 116 114 113 109 108 106 105 104 103 103 101 99 96 93
82 82 86 94 100 107 121 130 134 137 140 138 139 136 133 133 136 135 134 133 130 129 131 128 127 127 129 132 132 135 138 131 135 136 129 124 120 118 114 109 102 99 101 103 105 103 102 102 99 96 95 91 87 83
82 81 80 82 87 95 104 112 119 121 130 135 130 130 134 130 132 129 127 131 130 128 127 125 126 128 131 133 133 134 128 123 124 120 117 115 111 109 104 100 99 99 100 100 100 99 97 95 89 86 85 82 79 75
80 80 80 79 79 80 84 89 95 102 114 119 122 123 125 120 121 119 118 116 116 118 118 118 117 119 114 111 117 120 120 115 112 110 106 103 103 100 102 102 101 101 100 97 95 91 88 87 83 80 77 76 73 70
81 80 79 78 78 79 81 84 86 89 91 93 98 101 101 104 106 106 107 107 106 108 109 109 108 109 108 107 115 112 106 101 99 98 95 94 98 100 101 98 96 94 91 88 85 80 79 77 76 73 71 69 66 64
79 79 78 78 77 78 79 80 81 82 84 85 87 91 91 92 94 94 97 98 97 97 95 97 95 98 100 98 96 95 94 96 94 92 91 92 94 94 91 89 85 83 81 79 76 73 72 71 69 66 64 61 58 57
74 76 77 77 78 78 78 77 80 80 81 83 84 85 86 89 88 89 90 90 89 86 86 89 92 93 92 92 93 92 90 91 90 88 87 89 89 85 83 80 78 76 73 72 70 68 65 63 61 59 57 54 53 53
66 67 69 71 74 76 77 78 79 78 79 81 84 85 85 86 87 88 86 83 80 85 86 87 88 87 88 86 86 82 81 81 81 83 80 75 76 75 73 73 70 69 67 64 60 60 58 56 55 54 53 51 51 50
61 64 66 67 69 70 71 72 73 75 76 78 81 81 81 82 82 79 73 73 78 86 85 79 77 77 77 77 76 76 76 76 75 71 70 67 63 65 66 65 61 62 60 57 56 55 54 52 51 51 51 50 49 47
55 56 57 58 60 61 63 66 67 69 70 71 72 72 71 69 70 67 65 72 77 80 69 65 68 69 67 68 68 69 70 67 64 64 63 60 60 60 58 57 55 55 54 52 51 51 50 49 49 49 48 46 45 43
47 48 49 51 52 54 57 60 62 62 61 61 60 60 61 63 60 60 62 70 73 63 61 61 58 57 58 59 61 62 61 57 55 57 54 54 56 54 52 52 53 50 50 50 49 48 48 48 47 45 43 43 42 42
38 40 43 48 51 53 53 52 50 49 50 50 49 53 58 55 50 53 63 64 53 53 52 51 51 52 53 53 52 51 52 51 51 52 48 47 49 50 49 49 50 49 47 47 46 46 45 43 43 42 42 42 41 41
35 40 44 46 44 42 41 43 44 43 42 43 48 50 47 44 47 55 55 43 45 47 47 47 48 49 47 45 46 45 46 46 47 47 46 45 46 47 47 47 48 47 45 45 44 43 43 42 42 42 42 42 42 41
37 38 37 37 36 34 34 37 38 39 41 41 41 38 40 44 47 45 41 43 43 42 42 41 41 41 43 43 42 44 46 46 44 44 44 43 43 43 44 44 44 44 44 43 42 41 41 41 41 42 41 41 40 39
32 32 33 30 32 32 35 36 36 35 33 31 35 39 38 37 39 36 37 41 40 38 37 38 40 40 40 40 41 44 43 42 42 42 40 38 38 38 38 39 40 40 40 40 39 39 40 40 40 40 40 39 40 40
26 25 27 31 30 29 32 29 29 29 30 34 35 35 36 36 34 36 37 37 38 38 38 37 36 35 35 36 37 38 38 39 38 39 38 38 38 37 38 37 37 37 37 38 37 38 38 39 39 40 40 40 39 38
20 20 26 23 23 25 20 25 30 27 28 29 31 33 32 30 33 34 36 35 36 38 36 34 33 34 34 34 35 35 36 35 36 37 36 36 36 35 35 35 36 37 38 39 39 39 38 38 38 38 37 37 38 38
18 21 23 22 23 22 24 30 28 27 28 30 31 31 30 31 30 31 31 33 34 33 33 33 33 33 34 35 35 34 33 34 34 34 35 35 35 35 37 38 39 39 39 38 38 37 37 36 36 37 38 38 38 39
20 20 21 21 21 22 25 27 28 26 23 26 25 28 28 29 28 25 27 33 34 33 33 33 34 34 34 34 35 34 34 34 35 35 36 37 38 37 36 36 36 36 36 37 37 38 38 37 37 37 37 38 37 37
19 19 21 23 21 21 24 26 24 25 24 24 25 26 29 31 30 28 29 32 33 33 33 32 32 33 33 34 35 36 36 36 36 36 36 36 36 36 36 36 36 37 38 38 37 38 38 38 37 37 37 38 38 38

GFSWCAN_250_spd_006.txt.gz
Wind_Speed
85 82 77 74 68 66 63 62 59 55 54 53 54 52 51 53 51 50 51 52 51 55 54 52 50 47 44 43 44 44 45 47 47 48 48 48 48 51 54 58 62 66 68 70 72 74 78 80 85 86 87 85 90 93
88 86 82 81 76 72 69 68 66 62 63 59 60 61 56 56 59 61 59 53 53 53 50 49 50 49 47 48 48 47 50 54 51 53 55 55 56 57 61 64 69 69 72 74 78 77 85 89 90 91 97 99 99 105
92 87 87 85 82 76 74 72 73 71 69 69 63 61 59 58 56 55 51 50 49 50 52 51 52 53 56 54 53 54 55 56 57 58 59 61 63 67 69 68 70 74 78 80 83 87 90 93 94 97 100 105 108 114
96 94 90 86 86 83 79 74 72 73 72 68 67 65 64 60 57 58 58 57 57 57 56 57 57 59 61 61 61 62 61 61 63 64 64 67 71 71 70 74 75 81 84 88 92 94 93 97 98 101 107 113 117 119
104 99 95 92 91 89 86 81 79 76 75 73 71 72 71 67 65 63 64 62 60 62 58 60 64 67 69 67 67 66 67 69 72 74 75 76 79 85 80 78 83 89 93 98 97 101 101 98 103 106 113 115 118 125
111 107 102 100 96 96 90 85 83 81 79 79 76 77 75 72 71 69 66 68 69 71 69 67 63 67 70 71 71 71 72 75 78 81 82 82 85 89 85 85 86 94 99 103 103 103 106 109 113 119 119 121 128 132
115 113 111 106 105 101 98 93 91 89 87 85 82 80 79 77 76 74 70 70 75 76 74 70 68 66 73 77 78 78 81 82 83 85 83 83 86 93 93 92 99 103 105 105 108 111 115 119 121 125 129 132 137 140
121 117 116 112 108 106 103 100 97 96 94 92 88 87 86 84 81 78 79 80 83 85 84 76 72 72 74 79 84 85 88 90 88 89 90 92 92 97 100 106 105 109 112 115 119 120 121 123 126 129 132 138 139 144
124 121 122 123 117 108 110 107 106 103 102 97 95 94 92 92 92 91 90 90 90 93 91 79 79 79 81 83 87 90 94 96 97 98 102 103 98 104 113 115 115 118 121 121 122 123 126 127 132 136 139 143 143 139
128 127 123 121 117 117 115 113 108 105 108 106 101 98 96 97 100 99 99 98 99 97 98 93 89 92 94 96 98 102 103 106 107 102 104 104 104 112 119 121 123 127 124 126 129 130 133 135 138 140 143 139 136 130
134 132 128 124 121 120 118 116 118 115 115 112 109 105 101 102 104 105 104 104 104 103 101 100 103 106 106 107 109 111 111 110 108 108 110 110 113 121 126 128 132 130 132 133 133 135 137 138 136 138 137 131 124 118
134 134 136 131 132 128 122 118 117 117 116 114 114 113 114 114 111 111 110 108 107 111 111 112 114 116 116 117 116 117 117 117 119 119 121 124 125 133 133 130 130 132 136 135 133 133 132 137 131 126 122 114 108 107
127 126 133 131 130 133 130 126 127 126 123 119 120 120 121 122 119 121 119 117 118 118 118 120 119 120 121 122 124 125 123 122 122 125 129 132 136 138 138 136 132 133 131 129 130 128 125 121 117 113 110 106 103 102
115 120 121 126 124 124 128 135 137 136 135 134 131 126 124 124 125 124 126 126 127 125 126 128 127 127 126 127 126 125 127 128 132 133 138 141 143 144 142 139 139 132 128 125 121 119 114 108 104 103 103 100 95 92
108 115 115 109 119 119 117 117 125 131 126 130 130 134 136 131 131 132 131 131 130 131 132 132 133 132 129 129 130 130 135 140 144 149 147 144 138 135 133 128 125 121 116 113 108 104 101 102 100 96 94 89 82 81
104 111 116 116 110 105 99 108 114 114 111 108 112 117 121 123 130 135 138 139 135 134 135 135 136 137 137 138 138 141 147 150 145 140 137 132 131 128 125 119 113 108 103 97 95 97 96 95 91 86 84 81 77 76
100 102 106 105 103 97 89 85 96 109 107 105 111 109 113 117 122 122 128 137 138 139 141 145 145 146 145 147 149 144 134 125 120 120 121 123 118 112 110 105 102 99 97 95 94 94 91 86 82 77 74 75 73 72
96 97 97 96 94 93 91 89 85 79 82 89 94 95 95 97 100 105 111 116 120 127 131 132 125 121 128 125 118 115 113 111 110 107 104 106 106 102 100 99 95 94 92 90 88 84 79 76 72 71 71 69 67 65
91 93 92 91 91 92 92 90 87 85 83 85 87 90 90 90 90 91 94 97 101 103 104 104 103 102 105 103 101 99 100 100 98 95 95 95 96 95 93 90 88 86 83 81 77 74 72 71 69 67 65 63 60 57
81 83 84 84 84 85 87 87 87 85 84 83 84 86 87 88 89 90 92 91 90 88 87 88 93 94 92 92 93 92 93 93 91 88 87 89 91 88 86 84 81 76 75 73 71 70 68 67 63 60 57 55 53 52
72 75 78 79 80 79 80 81 82 80 81 82 83 83 84 85 86 86 86 85 83 85 86 89 87 85 87 88 89 88 86 86 85 84 82 81 83 79 76 74 71 71 69 66 66 65 62 59 57 54 52 50 50 49
66 67 70 72 75 76 75 76 78 80 79 81 82 81 81 82 82 82 79 79 82 90 91 89 80 78 82 85 84 80 78 77 77 78 76 71 67 67 66 66 65 65 62 61 60 58 56 54 53 51 50 49 47 45
58 61 64 66 67 68 70 73 75 76 75 76 76 74 75 77 78 74 72 75 83 89 90 74 72 74 74 74 73 73 73 71 71 69 65 63 63 62 61 60 59 58 58 57 55 53 52 52 52 50 48 46 45 43
51 53 56 58 60 64 66 67 65 66 64 66 67 68 70 71 68 68 69 74 81 78 67 66 63 62 63 64 65 67 68 66 63 61 58 58 59 59 57 55 54 53 53 54 53 51 49 48 47 46 46 45 44 42
45 48 50 53 56 57 57 57 56 56 56 56 59 63 64 60 57 58 64 72 64 58 61 60 57 56 58 60 60 60 58 55 56 56 52 53 54 54 53 52 51 49 50 49 48 48 47 45 44 43 42 41 40 39
43 48 50 48 47 46 45 45 47 48 52 53 54 52 50 49 53 60 66 56 53 54 52 51 53 52 52 52 54 53 52 50 51 51 48 47 49 51 52 51 48 45 46 46 44 43 43 43 42 41 40 39 38 38
42 40 39 38 37 37 40 44 47 48 47 45 44 43 45 50 56 56 48 47 47 47 48 47 45 45 47 47 47 49 49 50 50 48 44 43 44 46 46 46 45 44 43 41 41 40 39 39 39 39 38 38 39 39
32 33 32 31 35 36 39 41 41 38 37 35 38 43 42 43 47 45 43 42 44 43 43 41 42 43 43 43 43 44 45 45 45 43 43 40 40 41 41 41 41 40 39 39 39 38 38 38 39 39 40 40 39 38
28 28 30 33 32 34 37 33 30 31 31 35 39 42 40 38 39 38 39 40 40 41 41 40 38 37 39 39 41 42 41 41 41 40 39 38 37 38 39 38 38 37 38 37 38 39 39 39 39 38 38 37 37 37
23 25 29 27 28 30 27 24 33 34 32 33 36 37 35 33 33 39 38 36 38 39 38 37 36 35 35 36 36 36 36 36 36 36 35 34 33 33 34 35 36 38 38 39 38 37 36 36 37 37 38 38 38 38
21 24 25 26 25 22 25 28 31 29 27 28 30 30 27 30 32 33 33 33 35 35 34 33 33 32 32 31 32 32 33 33 32 33 33 33 34 35 35 35 35 36 36 36 36 36 37 37 37 37 37 36 36 36
21 21 23 23 23 22 26 28 28 26 24 27 28 31 29 30 29 29 29 32 32 31 30 30 29 30 30 29 30 31 32 32 32 33 34 35 35 35 35 35 36 36 36 37 37 38 38 38 38 38 37 36 35 35
19 21 22 24 23 22 23 28 27 24 25 25 24 26 27 28 29 27 24 27 29 29 29 29 29 30 30 31 32 33 33 33 33 33 34 34 34 34 35 35 36 37 38 38 38 37 36 35 35 35 35 36 36 36

GFSWCAN_250_spd_009.txt.gz
Wind_Speed
82 78 75 70 66 62 60 60 63 64 65 64 64 63 61 59 58 57 57 57 56 55 56 56 57 55 54 52 50 49 49 50 47 47 46 46 47 49 49 51 56 59 61 64 67 73 77 80 79 82 85 87 92 96
86 82 78 76 71 65 62 59 57 61 65 65 66 65 64 63 63 63 62 60 60 58 56 56 56 56 54 51 52 51 50 50 50 50 50 49 50 53 54 54 62 63 70 71 78 77 83 83 84 88 92 93 98 102
91 87 84 80 77 73 69 67 63 60 60 62 60 63 65 65 63 59 60 58 57 57 59 57 54 54 53 53 55 53 53 53 54 53 52 56 59 60 59 59 63 68 78 76 79 81 85 87 92 95 97 100 104 106
97 92 89 86 83 80 75 71 69 67 65 63 63 63 64 61 58 60 64 62 61 61 56 55 54 56 54 54 55 57 59 59 60 61 62 64 62 62 62 64 67 75 78 81 81 84 89 96 99 97 101 106 109 115
102 100 93 91 89 84 81 77 74 73 69 64 67 67 68 68 69 68 63 60 62 61 56 53 56 61 59 59 60 61 60 61 65 65 65 66 69 71 66 69 75 84 88 91 89 95 99 97 101 107 109 114 119 122
107 102 100 94 92 91 87 84 80 77 75 74 68 70 72 70 70 67 62 64 66 67 62 58 58 65 65 67 66 67 69 68 68 67 67 71 78 82 79 79 83 92 93 94 97 100 104 107 108 111 114 123 131 133
110 107 106 101 95 93 93 89 85 81 79 79 80 77 76 73 71 69 69 70 73 74 71 68 65 64 71 73 75 77 77 76 76 75 75 79 83 88 86 84 95 96 99 102 107 106 109 111 114 120 126 130 134 136
116 117 111 105 101 97 95 94 91 87 84 83 82 83 84 81 79 75 75 76 77 80 78 72 71 70 72 75 82 85 87 88 86 86 85 87 88 93 95 98 101 106 108 113 114 114 117 120 125 125 131 133 138 146
115 113 117 112 110 104 101 98 96 93 91 90 89 85 85 87 85 82 84 84 84 86 83 79 77 78 80 84 86 89 93 95 95 95 98 99 99 105 110 110 112 115 116 119 122 124 127 130 128 133 137 143 153 154
121 116 112 116 116 112 107 104 102 100 98 96 95 94 92 90 87 88 91 92 92 92 90 87 86 89 92 93 94 97 98 99 99 98 103 104 105 111 116 118 120 124 125 128 130 133 132 135 136 139 147 154 151 146
126 120 117 116 116 114 114 113 109 105 103 101 101 102 101 99 100 100 99 96 94 94 95 97 99 101 103 104 105 105 107 109 109 110 113 113 114 117 121 123 126 127 130 131 134 135 136 139 142 146 150 145 139 128
131 126 121 116 118 111 111 114 114 111 111 108 108 108 108 107 107 108 104 101 101 103 103 107 107 109 108 109 112 114 116 117 119 120 121 124 127 129 132 135 134 134 134 136 140 141 142 148 148 145 138 127 118 112
128 129 129 120 118 116 117 114 111 114 117 117 114 114 113 114 114 112 111 110 110 109 110 114 116 115 115 117 120 120 122 125 128 128 129 133 135 135 134 135 136 140 141 141 140 144 153 148 142 130 117 109 104 105
125 125 125 124 126 123 116 116 116 119 118 117 118 120 120 120 117 115 117 122 119 118 118 118 117 118 120 122 123 127 128 129 132 132 136 139 140 142 144 146 147 147 147 147 148 145 138 120 114 108 105 104 102 100
120 119 122 125 128 128 127 128 125 123 120 118 119 123 121 117 118 120 120 122 122 121 122 123 123 124 127 130 131 132 139 143 144 148 148 148 150 152 153 151 148 146 145 142 130 116 111 107 103 101 102 101 96 89
116 116 116 117 120 126 130 128 125 128 129 128 127 124 126 127 127 127 126 129 131 130 130 131 132 135 138 137 139 137 135 138 141 138 137 138 137 136 139 135 130 121 114 107 103 101 99 99 99 96 95 91 84 79
98 103 107 113 114 110 113 120 124 130 129 122 120 122 124 128 129 128 131 131 129 129 132 127 124 122 124 125 121 123 123 123 125 127 125 118 117 116 110 105 104 102 99 97 96 95 95 95 92 88 81 78 75 71
86 92 97 101 106 108 110 111 111 104 103 104 108 112 113 111 113 115 120 125 124 113 113 114 117 117 111 111 111 109 108 108 107 106 105 103 100 98 98 99 98 95 94 93 91 90 89 85 80 76 72 69 67 64
79 82 88 93 99 103 105 106 105 106 109 109 105 105 103 99 97 100 102 106 106 105 103 102 98 98 102 100 100 101 102 100 99 98 98 97 96 95 94 94 91 89 87 86 85 83 80 76 71 68 66 64 62 60
76 79 84 89 92 95 97 99 101 101 104 105 103 101 99 98 97 97 96 96 97 96 95 96 99 102 99 99 100 99 100 100 97 91 88 90 93 92 90 87 85 84 83 81 79 76 72 71 65 62 60 58 57 56
76 78 79 80 82 83 85 88 89 90 92 92 92 93 93 93 92 92 92 92 90 93 95 99 98 97 94 93 93 93 91 92 90 87 85 85 87 85 83 81 79 78 75 72 69 69 66 64 61 60 57 54 53 53
64 67 69 71 74 76 75 78 80 82 83 85 86 85 86 87 87 87 86 87 90 94 93 95 95 89 87 87 88 89 88 84 81 81 82 78 76 76 75 73 71 69 67 64 62 61 61 58 56 55 53 52 50 49
60 63 66 68 68 69 71 73 75 76 75 78 78 78 79 82 83 81 80 82 86 92 93 88 81 80 77 78 78 77 76 75 76 77 74 70 68 67 66 64 62 60 60 61 56 57 57 55 52 51 50 49 47 45
54 57 59 61 63 65 67 68 67 66 64 67 69 71 72 73 70 69 71 74 83 86 78 73 71 70 70 69 68 69 70 70 70 68 66 63 63 62 59 59 56 53 55 56 53 52 51 51 49 47 45 45 45 44
48 50 53 57 58 59 59 59 58 59 59 59 62 65 66 65 62 62 65 75 75 68 63 63 63 63 62 63 63 64 64 62 61 61 60 58 57 56 55 54 52 49 51 50 48 48 48 48 47 46 45 44 44 43
45 49 51 50 50 51 50 50 50 51 54 56 60 61 59 55 55 59 69 64 58 59 58 58 58 58 56 55 59 59 56 56 56 56 55 52 50 50 53 52 50 45 45 46 46 46 46 46 46 45 44 44 43 43
45 45 44 43 41 41 42 44 49 52 54 53 51 48 47 50 56 60 56 53 52 52 53 54 52 48 48 53 53 53 52 51 51 50 49 47 46 47 49 50 49 47 45 43 43 44 44 44 43 42 43 44 44 44
36 35 34 34 38 40 44 47 47 45 42 40 40 45 48 50 51 52 50 46 47 51 50 46 43 43 48 48 46 45 45 47 47 45 44 42 42 44 44 45 46 45 43 42 41 40 41 42 43 44 44 43 42 41
31 32 34 35 36 38 41 40 40 41 40 41 44 47 47 47 46 42 41 44 47 45 44 44 42 40 42 41 41 42 43 42 42 42 41 40 39 41 43 43 43 42 42 42 41 42 42 42 42 42 42 42 41 42
27 29 31 31 33 36 35 33 38 36 36 37 38 41 43 40 34 35 42 39 37 39 41 42 40 38 38 39 40 40 40 40 40 40 40 39 38 38 39 40 41 42 43 43 43 42 42 42 42 42 43 43 43 42
22 27 29 28 28 27 28 30 33 34 34 31 29 33 36 33 31 37 39 37 38 40 40 40 38 36 36 36 35 36 37 38 39 39 39 38 38 38 38 38 38 38 38 39 40 41 42 43 43 43 42 41 39 38
24 25 27 27 26 25 27 30 31 32 30 29 30 29 33 33 33 35 34 35 37 38 37 37 36 35 35 36 36 35 35 36 37 37 38 38 38 38 37 37 38 38 39 40 41 41 41 41 40 39 38 38 38 37
24 25 26 26 26 27 28 30 32 34 30 28 29 30 31 33 35 33 31 32 35 37 37 36 35 35 35 35 35 35 35 35 35 35 35 36 36 36 36 37 38 39 39 40 39 39 39 38 38 38 38 38 39 38

GFSWCAN_250_spd_012.txt.gz
Wind_Speed
81 78 72 66 63 61 58 58 60 61 65 67 67 67 64 64 62 59 57 56 54 53 52 52 52 52 53 52 53 54 54 55 50 47 44 45 46 48 50 52 54 56 56 62 60 61 63 67 70 76 80 80 87 90
85 83 77 74 68 61 60 60 60 63 64 67 68 68 67 67 65 63 60 58 56 55 55 54 54 53 55 56 57 58 55 49 47 48 49 47 50 50 52 54 61 61 68 64 64 66 72 74 77 84 87 89 93 99
91 87 82 77 73 68 64 62 62 61 62 65 66 70 71 70 68 65 64 62 60 60 59 57 57 57 60 59 57 55 54 53 49 48 50 51 53 56 58 57 60 67 70 68 68 73 78 83 87 91 94 99 104 108
94 90 86 82 79 74 68 65 64 62 62 62 63 65 67 69 69 68 66 64 62 63 61 61 62 61 60 59 55 55 54 54 50 52 56 59 61 60 59 63 65 72 74 76 77 81 84 89 93 98 103 106 108 112
97 94 91 87 85 80 75 71 67 66 64 62 59 58 59 63 66 67 67 65 64 64 62 61 62 61 61 61 62 60 57 58 57 59 62 65 70 72 68 71 75 81 83 85 86 93 96 97 99 102 105 109 113 119
100 98 95 92 89 87 82 78 74 70 69 67 63 60 57 57 58 58 58 60 62 62 58 61 62 65 64 62 63 63 64 65 66 66 68 69 74 77 76 76 80 86 89 92 94 96 101 104 108 111 115 120 125 128
106 99 96 96 90 92 89 85 82 75 73 70 66 65 65 65 63 63 62 62 65 66 67 65 64 62 65 70 70 69 72 74 74 74 75 77 81 85 84 85 92 95 97 99 103 106 109 113 117 121 125 128 131 132
108 103 102 101 95 95 93 90 86 81 78 78 75 75 72 69 68 66 69 68 71 70 65 64 64 63 67 70 75 79 80 80 79 81 82 85 87 91 91 95 100 103 106 110 111 115 118 120 125 129 131 134 135 143
113 109 107 101 99 97 96 94 94 90 87 86 85 82 82 81 78 76 78 79 78 77 74 71 72 71 71 76 82 85 86 87 88 89 90 92 94 98 101 105 107 109 112 116 121 120 125 131 131 134 141 145 147 149
112 114 109 105 109 102 99 97 96 95 95 91 91 91 88 84 83 84 85 85 87 84 81 76 78 80 80 84 86 87 86 88 89 89 96 98 100 105 111 114 115 116 118 123 127 131 135 137 141 147 143 141 138 130
111 111 110 110 107 109 104 102 100 99 98 96 98 97 91 92 94 94 94 91 88 85 85 85 86 89 90 92 93 93 94 97 98 100 104 104 107 114 115 120 123 124 127 131 134 138 142 144 141 136 135 133 122 113
116 112 110 107 106 106 107 109 105 101 102 101 101 101 100 99 99 102 99 97 95 92 91 95 97 98 97 99 103 104 105 106 106 107 111 114 119 123 122 123 124 126 130 136 135 133 133 132 129 122 113 106 103 101
117 118 113 111 111 105 105 100 107 111 105 104 104 105 105 107 104 103 100 98 101 103 104 104 105 105 104 106 108 111 112 115 117 118 120 125 122 122 126 128 134 131 135 133 134 131 124 120 111 103 99 100 100 100
117 119 114 111 112 112 109 107 104 104 110 112 111 110 112 110 107 105 107 109 109 109 109 110 110 110 110 113 114 116 120 121 124 126 127 126 126 128 131 132 130 128 128 125 123 117 110 105 100 102 101 99 99 99
120 122 120 115 115 114 112 109 108 109 106 107 109 110 107 107 110 112 112 112 114 115 114 112 111 112 113 117 117 119 120 123 125 127 128 127 130 136 135 131 125 118 118 114 112 109 104 102 100 99 100 101 99 95
113 121 126 119 118 115 111 111 110 109 108 109 109 109 112 112 114 111 113 115 115 115 114 114 115 113 112 114 119 123 129 130 128 127 130 132 133 130 124 117 114 110 109 107 105 102 101 101 99 98 97 95 92 86
98 102 116 129 126 117 118 120 120 119 116 115 117 123 119 115 118 120 121 117 115 117 118 120 122 124 125 125 128 129 131 130 131 126 124 119 117 114 107 104 103 105 104 103 100 100 100 99 96 92 88 86 81 74
86 92 96 104 115 123 117 114 114 111 106 108 112 119 121 118 116 117 121 121 121 124 124 122 123 126 127 128 131 124 117 109 113 112 109 110 107 103 102 102 104 103 101 99 98 96 94 91 86 81 78 74 71 67
82 84 87 92 98 102 104 98 95 100 107 108 104 105 107 111 109 109 109 111 112 115 114 113 116 117 119 113 109 107 108 110 108 106 102 103 104 102 101 101 99 98 96 95 92 89 86 82 76 72 69 66 65 64
68 69 73 76 81 87 90 91 90 90 93 98 100 102 104 105 106 106 108 107 105 106 107 107 109 109 108 106 105 104 103 103 101 99 98 100 99 97 98 96 94 92 90 88 85 81 77 72 69 65 63 59 59 59
49 55 61 64 69 74 78 83 87 88 91 95 95 91 93 98 100 101 102 104 103 102 100 99 99 100 101 102 98 96 97 96 94 93 91 89 93 95 93 91 88 84 81 81 75 73 68 64 62 60 59 57 56 55
48 52 57 63 66 68 70 74 78 83 84 87 90 90 90 90 91 93 94 92 94 96 93 96 96 94 93 93 92 90 89 88 88 87 88 87 85 86 85 81 77 76 75 70 65 64 62 59 58 57 56 56 54 53
51 55 61 64 64 65 67 69 72 73 74 77 78 79 81 84 85 85 84 86 90 90 90 87 85 82 82 82 82 82 81 79 80 82 81 79 78 75 73 73 70 67 63 62 59 58 58 57 57 55 54 52 51 50
49 51 52 55 58 61 62 63 61 62 63 66 68 71 73 73 72 71 75 79 82 80 74 71 70 71 71 72 73 74 75 73 71 71 73 71 67 67 67 65 62 57 54 57 58 57 55 53 53 52 51 50 50 48
48 50 51 53 53 54 55 53 53 53 56 58 61 61 62 61 61 63 65 69 70 65 65 64 63 62 64 65 66 67 66 63 63 66 66 61 60 59 61 60 58 53 51 54 53 53 52 52 52 52 50 49 47 46
44 45 46 48 48 47 47 47 49 50 51 52 54 55 54 53 55 58 64 65 61 59 58 57 58 60 60 61 60 60 61 59 59 60 61 56 55 54 55 57 57 52 47 49 50 50 50 51 51 50 48 47 46 47
42 44 44 42 41 41 41 41 43 45 47 47 49 50 49 48 52 57 57 56 56 54 52 54 56 56 55 56 56 55 56 56 54 53 54 54 51 51 51 52 53 51 50 48 47 48 49 49 48 47 48 49 47 46
35 33 31 31 33 35 41 45 47 45 43 41 43 46 47 50 52 52 51 49 48 49 51 54 54 51 49 50 52 51 49 48 48 50 50 48 47 48 48 48 49 48 48 47 46 45 45 46 47 47 46 45 45 44
29 30 34 36 37 39 39 37 38 40 41 42 42 44 45 46 46 45 46 47 47 47 48 49 48 47 48 48 47 45 45 46 48 47 46 45 43 44 45 46 47 47 46 45 44 46 46 46 45 45 44 44 45 46
30 30 30 31 34 37 35 34 38 38 39 39 39 42 45 43 39 41 44 45 44 43 43 44 47 45 43 42 42 42 43 44 45 45 45 45 44 44 44 44 44 45 45 46 46 45 44 44 44 45 46 47 46 45
25 29 31 31 32 30 33 35 37 37 36 36 34 36 38 37 36 39 43 41 40 42 44 44 46 45 43 42 42 41 42 43 44 44 45 46 44 43 42 43 42 42 42 43 43 43 43 44 45 45 44 43 42 42
25 26 26 27 26 26 29 31 30 31 31 32 32 31 32 33 36 40 40 36 38 42 45 44 43 43 42 41 40 40 41 43 43 43 43 43 43 43 43 42 42 42 42 43 43 43 44 42 41 41 41 41 41 41
22 24 24 25 25 25 28 29 30 30 29 31 32 33 33 34 36 39 41 38 37 39 42 44 43 42 41 41 41 41 40 41 42 43 42 41 41 41 41 41 41 42 41 41 40 40 40 40 40 39 38 39 40 41

GFSWCAN_250_spd_015.txt.gz
Wind_Speed
84 80 75 68 62 59 56 53 53 52 56 64 65 63 61 60 58 59 61 59 56 53 51 51 51 50 50 50 50 52 52 52 51 51 51 52 47 45 46 48 52 52 49 51 54 61 64 66 68 73 76 74 80 86
87 84 80 73 66 62 60 56 55 54 53 55 63 65 64 63 61 60 62 62 59 58 56 54 51 50 50 50 53 55 56 54 52 54 55 51 45 47 50 52 55 56 57 58 60 66 70 72 76 78 80 84 87 94
88 86 84 79 72 65 62 60 57 57 55 54 57 60 61 60 60 60 61 62 63 63 61 58 55 54 54 54 55 55 56 56 57 59 56 51 49 50 51 53 56 63 65 64 65 72 75 79 81 85 88 92 96 103
89 87 84 82 78 72 67 62 59 59 58 56 55 58 59 62 62 63 66 67 66 66 64 62 59 57 58 57 58 58 61 61 61 59 56 54 56 56 55 59 62 70 70 71 74 79 80 85 88 92 96 103 106 110
91 90 87 85 83 79 74 69 63 60 58 57 57 57 55 60 63 66 67 68 69 69 66 66 63 62 61 62 62 62 61 59 60 58 60 60 60 61 61 64 68 75 77 79 80 84 86 89 95 100 105 107 115 115
93 93 91 88 86 84 78 74 70 64 61 58 56 56 58 59 59 62 65 68 70 70 68 70 67 66 66 66 64 64 65 63 63 63 65 64 67 68 68 70 74 79 82 83 84 88 92 97 99 107 112 115 115 123
97 96 95 92 89 88 85 79 76 73 69 65 62 62 62 60 58 57 58 64 65 64 63 61 60 62 62 62 64 66 66 66 64 63 64 69 74 75 74 77 82 84 86 88 92 99 102 106 108 112 118 122 125 127
95 97 94 95 92 92 91 86 83 80 77 73 70 67 66 65 63 60 61 63 64 63 60 55 54 58 64 68 71 71 69 69 66 68 69 73 75 78 79 84 87 90 92 97 101 105 109 113 119 123 126 127 123 123
93 98 99 94 95 93 93 91 87 86 81 79 79 76 72 69 65 64 69 68 68 67 63 58 58 63 64 69 72 75 75 74 74 77 79 82 85 89 91 95 95 98 101 105 108 111 116 122 123 125 126 127 120 119
93 92 98 99 98 98 95 92 90 90 88 84 84 83 79 75 76 77 76 74 74 71 67 65 67 69 72 76 79 81 82 81 82 83 86 86 88 92 97 99 101 104 107 110 115 120 123 121 123 125 126 122 120 117
95 94 92 97 101 100 97 97 96 93 90 93 91 88 85 86 85 85 87 84 80 78 76 75 78 82 84 85 86 86 86 87 87 87 91 91 94 101 103 105 108 111 114 120 123 119 121 122 119 117 116 116 113 111
94 93 96 96 98 101 101 98 98 99 99 94 93 92 92 91 91 92 91 87 86 86 85 87 88 88 90 91 92 94 95 96 97 97 98 98 102 106 109 112 114 117 121 118 118 121 121 118 115 113 113 109 107 108
98 93 93 94 98 102 102 101 99 101 100 101 101 99 97 95 96 93 91 92 92 92 93 93 95 95 95 96 98 101 103 103 104 104 106 109 111 112 114 116 114 115 115 119 122 120 116 113 109 111 109 109 109 107
93 93 90 90 99 97 105 106 104 105 104 103 102 102 100 100 98 97 95 94 96 97 99 99 100 102 102 103 105 107 107 108 111 112 115 115 117 116 115 115 117 116 118 118 116 114 112 110 106 109 110 109 107 105
87 93 94 90 88 95 98 101 102 105 106 108 107 106 100 99 97 98 99 102 105 105 104 107 108 107 107 109 109 112 116 119 117 115 114 112 112 114 119 119 118 119 117 115 114 112 108 107 106 105 106 104 104 101
82 88 93 94 93 92 92 94 97 98 100 102 106 107 107 107 106 105 107 106 106 108 105 103 108 110 112 112 110 110 112 113 114 110 109 109 114 118 115 115 115 113 112 111 111 108 105 105 103 100 99 100 97 93
79 83 88 93 96 98 99 98 101 100 104 98 99 103 107 106 104 104 104 105 104 104 105 103 101 104 105 104 107 114 116 112 108 108 114 116 112 114 114 113 111 109 108 109 107 104 102 100 98 96 94 91 88 85
74 81 83 85 89 93 96 101 105 105 101 99 102 106 107 106 102 102 102 100 101 102 103 104 105 105 109 114 113 110 108 106 108 112 111 115 116 111 109 108 107 107 106 105 101 98 97 96 92 89 85 80 80 75
66 74 79 83 85 86 90 94 95 99 104 106 107 109 109 110 109 106 105 105 105 104 105 107 109 113 114 108 104 102 102 103 103 105 105 107 107 106 105 104 105 102 100 97 95 93 90 89 85 79 75 70 70 68
63 67 71 75 78 81 84 86 90 94 99 107 113 113 110 103 101 102 102 103 107 109 112 116 115 109 104 104 101 100 99 96 95 97 100 105 106 105 104 100 95 92 92 91 87 85 84 80 76 72 69 65 64 63
55 58 63 67 70 73 76 78 79 81 85 86 90 96 103 107 108 107 106 105 104 111 107 104 107 110 107 102 98 97 97 95 98 97 98 99 103 98 93 91 89 89 85 83 81 82 78 71 69 67 65 61 59 58
53 57 58 60 62 64 65 68 72 76 78 80 83 84 88 90 93 97 100 101 102 105 101 104 104 104 101 96 93 93 93 94 95 95 93 88 85 85 86 84 83 82 81 79 77 74 69 66 65 61 60 58 57 55
43 43 45 48 52 55 57 60 64 68 72 76 78 79 81 83 83 83 84 87 91 88 88 89 90 90 87 86 85 83 83 83 82 82 82 82 79 77 77 77 75 74 73 74 68 65 63 62 59 58 57 55 54 51
41 42 44 46 50 54 60 65 65 65 67 68 70 71 73 75 75 73 76 80 81 78 78 76 75 74 74 73 73 73 73 74 75 76 77 73 71 72 72 72 69 66 64 64 63 62 60 59 57 56 55 53 50 49
42 44 47 50 52 54 55 55 54 55 56 58 59 61 63 62 63 64 67 72 68 67 65 66 66 64 62 62 64 67 70 71 68 66 73 66 62 64 66 65 64 61 57 58 58 58 58 56 55 53 51 50 48 47
39 41 44 46 46 47 46 46 48 50 51 52 52 51 51 52 54 56 60 59 60 60 60 61 60 56 56 58 60 64 67 63 60 61 62 61 59 56 59 61 60 57 54 53 54 56 54 52 51 50 49 47 47 48
37 37 36 35 36 37 39 42 44 45 45 46 47 48 48 49 51 51 51 53 54 54 53 52 52 51 53 57 58 58 56 56 57 56 56 56 55 54 54 54 55 54 54 52 51 51 50 49 47 47 48 46 45 45
30 29 29 30 32 35 38 40 42 42 41 41 43 44 45 47 47 47 47 47 49 50 50 50 50 49 50 52 53 53 53 50 48 48 50 51 52 52 51 51 50 50 49 48 47 46 45 45 46 46 45 45 43 43
24 27 31 34 36 37 35 34 36 38 40 41 42 41 41 42 42 44 46 45 44 44 46 47 47 45 46 48 48 48 47 45 45 46 47 49 48 49 49 47 46 46 46 45 45 45 46 45 44 44 44 44 44 45
24 25 27 28 29 30 30 35 35 35 35 36 37 38 37 35 40 41 41 40 41 41 41 42 42 43 44 42 41 42 43 44 44 44 46 46 45 44 44 44 44 44 44 45 45 44 44 44 44 44 45 45 45 44
19 22 25 27 27 26 28 29 31 32 31 32 33 35 35 34 36 37 37 38 39 40 41 42 42 44 46 44 42 41 40 40 41 42 43 43 43 43 42 42 42 42 42 43 44 44 44 44 44 44 43 43 43 43
21 23 25 25 24 23 27 29 29 28 28 29 30 31 31 32 34 36 36 37 39 40 39 39 39 41 43 43 41 40 40 40 40 41 42 42 43 43 42 42 42 42 42 43 44 44 43 42 41 41 42 42 41 40
20 21 21 21 21 23 25 27 27 28 28 29 30 30 31 32 33 34 36 37 37 38 37 37 37 38 39 40 41 40 39 39 40 40 41 41 41 41 41 42 43 43 43 43 42 41 40 41 41 41 40 39 39 38

GFSWCAN_250_spd_018.txt.gz
Wind_Speed
83 78 71 67 63 59 56 57 66 67 65 66 61 62 61 62 60 61 61 59 54 55 54 52 48 48 48 48 50 51 51 53 51 50 48 50 52 53 52 53 52 48 48 49 48 52 52 55 59 62 65 69 73 75
85 82 76 72 68 63 59 56 53 56 66 73 67 62 63 62 62 62 66 64 61 58 57 56 55 55 53 52 52 51 50 49 47 48 50 52 52 54 55 55 52 52 53 54 54 61 59 62 66 69 71 75 79 83
89 83 79 75 71 70 61 61 55 53 52 56 63 70 73 67 65 67 68 66 65 65 65 64 64 62 58 56 56 55 53 52 53 53 53 54 55 56 60 59 54 58 59 57 58 64 66 69 71 76 79 84 85 91
88 87 81 77 74 73 69 61 55 55 52 51 55 56 60 67 69 69 68 68 68 67 62 61 61 61 62 62 61 60 59 58 58 57 58 58 59 60 58 59 58 65 63 63 65 69 71 75 79 85 87 89 94 100
88 87 88 82 77 75 73 69 60 56 54 53 52 54 54 54 56 61 65 66 67 65 63 62 60 60 62 64 63 64 65 65 64 63 62 63 65 63 61 59 62 67 67 67 69 73 77 81 84 87 91 95 100 105
91 88 88 86 83 78 75 73 69 63 59 56 55 54 55 56 55 56 58 60 63 64 63 61 60 62 63 66 68 69 69 69 69 69 67 66 64 63 58 59 68 70 71 76 79 82 83 86 89 94 99 102 107 112
93 96 91 91 86 82 80 78 74 71 68 64 62 60 59 56 55 57 57 59 60 60 61 60 60 62 65 68 70 71 72 71 68 63 61 64 65 65 65 67 71 74 78 81 82 84 87 94 99 101 105 110 114 117
85 89 97 90 92 86 85 81 79 75 74 70 67 64 62 61 58 56 55 58 61 61 60 53 52 59 64 64 67 68 67 65 62 63 62 65 67 70 70 76 79 81 83 86 90 94 99 101 105 110 114 116 116 122
82 84 90 95 93 88 89 86 83 80 78 78 76 73 69 65 62 62 64 66 67 65 61 55 56 60 60 64 67 67 66 67 65 65 68 71 71 75 81 84 86 88 91 93 97 101 104 108 114 116 118 119 121 122
81 85 86 88 96 91 87 86 82 83 81 81 82 82 77 73 72 74 74 72 69 66 62 61 63 62 64 68 70 72 71 73 70 71 76 75 78 85 89 91 92 94 97 100 102 106 110 114 117 118 118 118 119 121
81 79 83 86 89 91 91 90 88 88 87 88 87 86 81 79 79 82 83 79 76 72 69 64 65 68 72 73 74 77 76 77 77 78 83 82 84 91 94 95 96 100 102 107 109 112 116 116 117 114 113 114 117 117
84 82 84 86 88 91 92 94 94 92 90 92 91 87 87 89 89 90 90 88 82 79 74 72 75 77 77 80 83 82 85 86 86 87 87 88 92 95 97 99 102 106 109 111 115 119 120 120 114 114 114 116 114 114
86 78 83 80 83 91 94 93 92 92 92 92 94 96 97 95 96 97 95 89 87 86 85 82 83 85 85 87 89 90 91 91 92 91 92 95 99 99 100 106 110 112 114 118 120 118 117 117 114 115 114 113 111 110
96 91 82 81 82 84 87 91 92 92 92 97 98 96 96 99 98 96 96 94 92 91 90 91 92 91 91 92 93 93 96 95 96 96 99 103 104 107 108 110 114 115 112 111 112 114 114 111 110 112 113 112 106 104
84 89 92 87 86 91 88 88 88 92 95 96 99 100 100 102 103 102 100 99 98 98 98 98 98 97 97 98 100 98 100 102 100 100 102 103 106 109 112 113 109 105 107 108 109 108 108 109 109 109 109 105 102 101
79 79 81 84 88 96 95 94 100 93 94 92 92 98 100 100 101 101 103 106 104 102 101 100 100 100 101 101 101 103 105 107 108 107 108 109 109 109 106 103 105 107 105 105 105 107 107 108 107 104 101 99 99 97
74 76 79 79 84 90 96 101 104 104 102 99 98 98 99 99 103 104 105 107 108 108 107 105 105 106 107 109 108 109 112 111 109 107 106 103 103 104 104 105 105 106 107 105 105 107 106 105 102 96 93 94 93 89
69 77 77 76 77 82 89 91 93 96 101 104 107 106 106 106 107 107 108 110 110 110 111 111 110 110 112 112 110 110 109 105 105 104 102 104 104 103 103 104 106 105 105 106 105 104 102 101 97 93 91 87 83 80
63 68 72 74 77 80 83 88 91 92 93 95 101 104 104 108 110 110 108 106 105 107 108 108 108 110 110 107 106 104 105 104 102 100 100 102 104 103 106 104 104 104 103 104 103 100 98 95 91 86 82 79 75 76
61 65 69 71 73 76 76 79 83 87 90 95 95 96 97 98 99 101 103 103 103 103 104 105 107 103 102 103 103 101 99 99 99 99 102 100 104 103 100 99 100 103 102 98 95 92 90 87 83 79 76 73 71 70
58 62 66 69 71 72 72 75 76 77 81 85 86 88 91 96 98 97 98 100 100 101 101 97 95 98 101 101 101 100 99 99 98 96 96 97 100 101 104 105 101 96 92 89 88 87 84 81 78 73 71 69 66 62
51 55 62 67 68 68 69 68 69 70 73 77 80 82 84 86 90 92 93 93 95 96 91 95 98 101 101 100 98 97 95 94 94 95 97 98 100 100 100 97 92 88 87 86 81 79 79 75 70 68 66 64 60 57
46 50 54 54 55 57 60 62 64 65 66 69 71 75 79 81 82 83 84 88 91 88 90 94 97 97 96 95 94 92 91 91 92 93 93 91 90 89 87 86 82 80 78 76 74 75 73 68 65 63 60 57 55 54
42 44 47 50 53 55 57 57 57 58 60 63 65 68 71 74 75 76 78 84 83 79 81 83 84 84 84 84 84 84 82 82 81 82 82 81 80 79 78 77 74 71 68 69 70 69 65 62 61 57 54 53 51 51
38 39 40 42 45 48 51 54 56 58 60 62 63 63 64 63 63 65 70 72 67 67 66 68 70 72 73 73 73 74 73 72 73 74 78 75 72 68 69 69 68 65 63 63 62 59 57 56 55 54 51 49 50 50
41 42 43 46 48 50 53 56 57 57 55 52 52 52 53 54 56 57 60 59 59 59 60 62 63 65 67 67 67 69 68 66 66 66 69 68 65 62 62 63 63 60 57 54 53 53 52 52 51 49 48 47 47 48
37 38 38 39 40 42 44 47 48 49 49 50 52 52 52 52 52 51 52 55 56 57 58 59 58 58 59 60 60 59 59 59 60 60 60 58 56 57 55 55 54 53 52 51 49 48 48 48 47 46 44 44 45 45
30 31 32 33 35 36 38 40 42 44 47 49 49 47 45 46 47 50 52 52 52 51 51 51 52 52 53 53 54 55 55 55 54 53 50 48 47 49 49 50 49 48 47 46 45 45 45 44 44 43 43 42 42 42
26 29 31 33 35 37 37 38 40 41 42 42 43 42 43 45 45 46 47 46 45 46 48 48 47 48 48 48 49 50 50 50 47 44 44 44 44 47 48 48 47 45 45 44 43 43 43 42 42 41 42 42 42 42
29 31 31 31 31 31 32 35 37 39 39 38 36 36 36 39 42 41 41 41 42 44 44 44 46 45 45 45 44 43 43 44 44 44 45 44 44 44 45 45 46 45 44 43 41 41 41 40 41 41 41 42 41 41
21 23 25 27 28 30 31 31 31 32 33 33 34 35 35 37 38 38 37 38 39 39 39 40 41 41 42 44 44 45 45 44 43 43 43 44 45 44 43 43 42 42 41 41 41 41 40 40 40 40 40 40 41 42
21 22 24 25 24 24 25 26 29 30 28 27 29 31 31 31 34 35 34 36 37 37 39 40 41 42 42 42 43 43 43 43 43 42 41 42 43 43 42 42 42 41 40 40 41 41 40 40 39 39 39 40 41 40
17 18 18 18 19 20 22 25 26 26 25 26 27 27 28 31 33 34 35 36 37 38 38 38 39 40 41 42 41 41 42 41 42 42 42 41 40 40 41 41 41 41 41 40 39 39 38 38 38 39 39 38 37 37

GFSWCAN_250_spd_021.txt.gz
Wind_Speed
80 75 70 64 62 59 64 66 66 67 66 63 62 62 64 60 58 54 53 49 47 45 44 42 41 40 41 42 41 44 43 45 47 50 50 53 53 53 51 50 52 54 56 57 58 60 55 52 53 54 59 61 65 69
81 77 74 67 61 58 60 66 68 67 65 63 63 66 66 63 61 59 57 55 54 54 52 50 48 48 47 48 49 52 51 51 51 52 53 53 52 52 52 54 56 60 61 62 63 65 61 59 59 61 63 67 72 75
83 81 76 71 67 59 55 58 64 66 69 67 65 67 69 67 66 65 63 63 62 61 58 58 56 57 57 58 58 60 58 59 60 59 60 58 57 56 56 58 61 69 65 67 66 67 65 64 67 67 70 75 78 82
86 83 79 76 71 66 61 57 57 60 65 65 67 67 65 65 62 62 63 62 62 64 64 61 61 62 62 64 66 66 65 66 67 64 63 63 62 60 60 63 67 75 73 71 67 67 66 68 71 73 78 80 84 90
90 85 83 79 77 70 66 62 57 54 59 65 68 67 67 69 66 64 65 64 65 64 62 64 63 63 65 69 69 68 69 65 64 63 62 63 64 66 61 64 73 76 72 69 69 68 71 72 76 80 84 89 93 98
91 90 88 83 77 73 69 66 62 59 57 56 61 67 71 71 69 71 70 69 69 69 66 67 67 69 71 71 72 72 69 67 67 65 63 65 69 68 65 66 70 71 72 71 71 72 75 76 82 88 92 95 99 104
81 90 91 85 84 80 75 69 68 65 63 57 59 57 54 55 59 60 62 65 65 68 71 72 71 71 73 72 69 66 67 66 64 62 62 66 67 66 64 64 72 70 72 73 75 76 79 84 89 93 97 100 103 107
82 80 84 91 88 83 80 77 74 70 69 67 63 59 56 56 56 55 55 58 59 57 57 53 53 58 63 62 63 64 63 63 61 61 61 65 64 65 65 72 73 74 75 78 80 85 88 91 93 97 99 104 109 112
82 81 80 81 84 87 85 82 78 76 73 72 72 69 67 62 61 62 63 63 63 60 56 49 51 55 57 60 62 64 66 67 65 65 66 65 62 66 74 76 77 78 79 82 86 89 92 94 99 102 105 110 112 118
80 81 79 78 79 86 86 86 84 81 79 79 77 76 74 70 69 71 70 68 66 66 60 58 61 60 62 66 72 75 74 73 69 64 67 66 66 74 80 82 83 83 85 88 90 94 97 100 103 106 112 117 120 122
79 79 80 80 81 79 82 86 86 87 85 85 84 80 76 77 79 80 79 75 72 70 65 62 63 67 69 72 76 76 75 74 72 68 74 72 73 82 85 87 89 90 91 93 95 98 101 104 108 112 118 122 121 120
81 82 81 79 81 83 84 84 87 88 85 86 87 85 84 85 86 88 86 82 78 75 72 69 71 74 75 77 80 80 83 82 80 79 82 81 83 89 90 91 92 93 96 98 100 103 105 110 114 118 121 120 118 120
86 84 83 81 83 82 86 90 92 89 90 91 91 92 94 93 95 96 90 83 82 80 79 80 81 82 82 83 86 88 90 90 89 89 89 90 93 93 95 96 97 99 103 103 107 107 113 116 120 120 118 117 117 116
96 91 84 80 83 84 87 85 85 87 88 91 92 96 95 98 95 97 96 92 88 87 85 86 88 89 90 92 93 95 97 98 98 94 94 97 97 100 100 102 106 107 106 108 112 116 119 121 117 117 117 117 114 115
82 87 94 89 81 81 78 85 85 87 85 86 92 95 98 98 97 98 98 97 95 95 94 93 94 95 95 98 98 98 100 101 100 101 101 102 103 104 108 110 110 111 115 117 118 117 117 115 114 113 114 113 111 109
81 81 81 87 83 88 86 88 92 94 90 88 88 89 92 94 97 100 101 100 101 104 104 103 101 101 103 102 102 104 105 104 103 104 106 108 111 113 114 114 114 116 116 112 113 114 114 114 112 113 112 110 105 102
79 81 82 82 83 81 85 83 87 88 91 91 93 95 95 96 99 101 105 105 100 101 103 103 103 103 102 104 107 108 109 108 108 109 111 112 112 113 111 113 115 110 111 112 113 112 112 112 110 108 104 101 96 95
77 78 78 78 80 83 85 88 85 95 86 87 92 94 97 102 102 101 101 100 99 102 101 103 105 105 105 105 105 107 109 107 108 108 108 110 109 107 107 110 112 115 115 111 110 110 107 105 103 100 95 93 93 92
72 74 75 75 77 80 84 87 87 85 88 91 90 91 92 99 100 101 103 103 101 102 103 105 104 106 109 109 109 109 111 112 112 113 112 113 115 115 115 113 110 109 109 107 106 105 104 100 96 93 91 90 89 86
68 71 73 73 76 79 80 81 82 83 85 88 91 95 96 102 101 103 104 105 108 111 113 114 112 111 113 114 116 116 116 116 116 117 116 113 110 109 109 107 105 103 101 102 102 99 95 93 90 88 87 85 82 79
62 67 69 71 73 75 76 79 81 82 83 84 86 88 92 95 99 101 103 105 108 112 114 119 119 118 117 114 112 111 110 107 103 103 105 104 103 102 99 100 101 99 97 97 93 93 90 87 84 82 81 78 76 74
59 63 66 68 70 71 73 75 77 77 80 82 84 85 87 89 92 94 97 100 102 103 104 106 105 105 104 106 107 108 108 106 102 99 97 97 98 99 100 99 95 92 91 90 87 86 84 81 78 76 74 73 71 69
52 56 60 63 65 67 68 69 70 71 73 76 78 80 82 84 86 87 89 92 95 94 96 98 99 100 100 100 99 97 95 93 94 93 93 93 94 93 91 88 85 83 82 83 81 78 76 75 73 71 69 68 65 63
48 47 50 53 59 63 65 65 65 65 65 67 69 72 74 76 78 80 83 87 85 87 89 90 89 89 88 88 87 85 84 84 85 85 85 84 81 80 80 80 79 79 76 74 73 74 72 70 69 66 63 62 60 57
40 43 45 48 52 54 54 56 56 57 60 62 62 63 66 67 69 72 76 76 76 76 75 75 76 76 77 78 76 76 76 77 77 76 77 77 74 75 75 74 72 71 70 71 69 69 66 65 62 61 59 58 57 55
37 38 40 42 45 47 51 53 53 56 57 57 59 61 63 64 65 67 68 66 66 67 68 67 68 68 69 70 71 71 71 71 71 71 72 72 72 70 68 69 69 68 68 67 64 62 61 59 59 59 57 55 53 52
37 39 40 42 44 47 49 52 54 55 56 56 57 56 56 57 58 59 61 61 62 62 62 62 63 63 64 65 64 63 65 66 66 66 67 67 66 65 65 62 62 62 61 62 60 58 57 55 55 55 55 53 50 50
39 40 41 42 44 46 47 49 49 50 50 51 52 52 52 54 55 53 54 55 56 56 55 54 56 58 59 58 58 60 62 62 62 62 62 61 60 61 59 56 55 56 57 58 57 55 53 51 51 51 51 50 49 48
33 34 34 35 37 38 39 41 44 47 50 50 49 47 46 47 49 52 52 53 52 51 52 53 54 56 55 55 56 57 58 59 59 59 57 56 54 54 53 52 52 53 54 55 54 53 52 50 49 49 49 48 47 46
30 31 32 33 34 36 38 39 39 39 40 40 42 43 44 47 47 48 48 49 49 50 52 53 53 52 51 52 52 52 54 53 53 54 55 54 54 52 51 52 53 52 52 52 53 52 51 49 48 48 47 47 46 46
30 30 30 30 30 31 32 34 37 38 39 37 37 38 40 42 44 44 45 45 45 46 47 48 48 48 48 48 48 48 48 49 49 49 49 50 51 51 51 51 51 51 51 51 50 49 49 48 48 48 47 46 44 43
25 26 28 29 31 32 33 33 33 33 32 32 34 35 37 38 41 43 42 41 42 43 43 43 43 44 45 46 46 46 45 46 46 47 48 49 48 49 51 51 50 48 47 47 47 47 46 45 44 43 41 40 40 41
25 26 26 26 26 27 27 30 32 33 33 33 33 32 33 35 37 38 39 39 40 40 41 41 42 42 42 43 43 44 46 47 47 47 47 46 45 44 44 44 44 44 43 42 42 41 40 40 39 39 40 40 39 37

GFSWCAN_250_spd_027.txt.gz
Wind_Speed
73 76 73 68 66 62 57 59 58 57 58 55 63 61 56 53 49 50 47 44 42 41 33 31 35 37 36 33 34 32 30 27 28 28 33 33 34 39 42 45 50 53 57 59 60 61 59 59 60 61 63 63 65 66
71 74 71 70 66 61 57 58 59 56 58 59 58 63 60 56 52 48 52 49 47 48 40 34 30 30 32 32 33 31 29 34 32 36 36 37 42 45 49 52 56 58 63 65 68 69 65 64 62 64 66 67 66 66
74 75 75 72 68 64 59 58 61 60 58 59 59 61 59 61 57 54 51 53 47 47 45 41 36 36 32 33 35 35 36 38 37 41 42 44 49 52 53 57 62 64 69 70 69 72 71 68 65 66 69 67 66 68
74 77 75 71 67 64 60 58 60 61 58 58 59 58 58 59 61 60 55 54 55 52 51 49 47 42 38 40 41 43 44 44 47 50 49 50 54 56 57 61 64 70 74 74 74 80 79 73 69 70 70 69 70 73
73 78 75 71 68 64 60 56 56 59 58 58 58 60 57 58 60 59 57 59 56 54 54 53 50 53 53 48 46 50 53 54 54 57 59 62 63 65 63 63 66 72 77 78 79 80 75 72 73 74 73 73 75 79
75 76 78 73 70 66 61 58 53 55 56 57 57 58 60 59 59 59 57 61 63 61 58 57 56 54 55 57 59 60 60 63 63 64 64 64 64 67 63 63 70 77 79 81 80 75 74 74 76 78 78 79 82 86
77 79 78 75 71 65 60 58 55 54 54 55 56 55 57 59 58 58 58 59 60 62 61 59 58 57 59 64 66 65 67 68 67 67 64 66 69 66 66 67 75 80 83 77 72 74 76 79 82 83 84 86 90 95
79 79 77 78 76 68 65 61 55 53 49 50 55 58 57 55 58 59 58 58 59 59 57 54 56 61 63 64 67 69 71 72 68 66 66 71 72 74 68 75 74 75 73 75 77 77 79 83 85 86 89 93 97 101
77 77 76 77 75 73 68 66 59 55 54 54 54 55 56 57 59 60 59 59 59 57 55 54 57 59 61 65 67 69 71 73 73 72 72 73 73 70 76 75 73 75 77 80 83 82 83 86 90 93 97 100 104 107
78 80 78 77 75 75 72 69 64 59 55 54 54 54 56 62 64 65 65 64 61 59 57 60 64 65 67 71 74 77 77 78 76 75 78 73 68 73 76 76 77 79 80 83 86 88 89 93 97 100 103 106 109 111
74 76 81 79 77 76 77 75 71 66 62 61 57 57 59 61 61 61 61 62 62 60 59 60 66 70 74 76 79 81 80 80 78 74 76 71 69 75 78 79 82 84 85 89 92 95 97 99 102 106 108 110 114 118
73 73 73 76 83 81 78 78 76 73 71 69 66 65 64 65 64 62 59 59 58 58 57 61 66 70 72 76 78 76 78 78 76 75 76 75 76 79 81 84 87 90 93 96 98 100 103 107 109 110 112 117 120 123
74 74 74 70 77 85 87 80 80 79 77 77 76 74 76 76 75 71 66 64 66 65 66 68 71 73 72 74 77 80 81 81 83 83 82 85 87 88 88 90 95 97 98 99 102 105 108 111 114 116 119 121 125 121
74 75 75 75 72 76 85 92 85 83 81 81 82 83 84 83 80 78 77 76 77 76 75 76 78 80 80 83 85 86 87 87 89 90 91 94 94 94 97 99 102 104 105 108 111 113 115 116 118 121 124 123 119 118
64 65 70 74 75 75 75 77 82 87 92 93 89 89 88 88 88 88 87 86 87 86 87 87 88 89 91 94 94 95 96 97 98 101 101 101 102 103 105 108 109 110 113 116 119 119 121 121 121 117 114 113 118 112
65 64 64 67 73 77 79 79 79 80 81 85 91 94 94 95 96 96 97 97 97 96 96 96 96 97 98 99 100 102 105 106 108 109 110 111 112 113 114 114 116 118 118 117 116 116 114 111 111 111 110 114 108 102
69 69 70 69 70 70 73 77 79 82 82 82 85 85 89 93 95 95 94 96 97 97 98 98 97 98 101 103 104 105 109 110 110 111 112 114 115 117 119 119 119 116 112 111 111 110 109 110 112 111 109 105 101 97
80 78 77 77 76 75 77 75 73 75 83 82 86 88 88 87 86 87 88 90 92 92 95 97 97 97 98 100 99 102 104 106 108 110 112 113 112 112 112 113 113 112 111 111 111 109 109 109 105 102 99 97 98 98
81 81 83 84 84 82 79 79 78 79 82 84 86 87 93 92 93 94 94 94 91 91 92 97 101 102 101 100 100 102 105 106 107 108 109 111 113 113 114 114 112 110 111 112 113 114 113 107 102 97 96 98 97 95
76 77 80 82 83 83 83 82 84 84 86 87 89 88 87 93 90 96 99 98 99 100 102 99 101 104 104 107 107 105 107 104 103 106 109 107 107 108 111 112 114 114 114 110 102 97 97 97 98 97 95 93 91 87
75 76 77 77 78 78 77 79 80 80 80 81 82 84 83 83 88 89 89 94 94 93 98 100 101 104 105 108 110 114 110 110 109 111 111 112 110 110 108 103 99 96 98 102 101 97 96 94 91 90 89 88 85 84
67 68 71 72 74 74 74 74 75 75 76 77 77 78 78 80 82 83 85 86 90 92 93 93 99 101 99 102 106 106 107 104 104 101 100 104 106 102 101 100 99 98 96 95 93 90 87 87 86 84 83 81 79 77
58 60 64 65 65 64 64 67 69 72 74 75 76 77 78 80 81 82 83 86 87 89 91 92 93 93 94 94 95 96 96 97 97 95 95 96 96 96 95 94 91 88 87 88 85 83 84 83 80 78 76 75 73 71
57 58 61 60 57 57 58 61 65 67 68 69 71 73 75 76 78 79 81 81 82 85 85 85 86 88 88 87 90 91 90 90 89 89 88 87 86 86 84 84 84 83 81 79 78 77 76 74 73 71 71 70 69 68
52 51 50 49 51 53 56 60 62 63 64 66 67 69 71 71 72 72 73 75 78 77 77 79 80 81 80 80 80 80 79 79 79 80 79 77 76 76 77 77 78 76 74 73 72 71 71 69 69 68 66 65 64 63
43 39 42 44 46 47 51 54 55 56 58 59 61 62 63 63 63 63 66 66 65 66 67 67 68 69 68 68 68 68 70 72 71 72 70 69 70 70 69 70 71 73 71 69 68 68 68 67 65 63 62 61 61 61
36 37 41 43 44 45 45 45 48 49 50 51 52 53 54 55 57 57 56 57 57 56 56 56 56 56 59 61 62 63 64 64 64 65 64 63 66 65 64 64 64 65 66 66 65 63 61 61 61 61 59 58 58 59
35 36 37 38 38 39 40 41 43 44 46 47 47 48 48 50 50 50 50 50 51 50 52 54 54 55 55 55 56 58 58 59 59 61 59 58 60 61 60 59 58 58 59 59 59 59 59 58 58 58 57 57 56 56
33 35 36 37 38 39 40 40 41 41 43 43 43 44 45 45 46 47 48 49 49 49 49 49 50 51 52 52 52 53 53 54 54 55 55 54 54 53 52 53 54 54 55 56 55 53 54 55 54 54 55 55 53 53
30 31 32 33 34 35 35 35 35 35 37 39 40 43 45 45 44 44 45 44 44 44 46 47 48 49 49 49 49 48 51 52 52 52 53 53 53 54 54 54 52 51 50 50 51 51 51 51 51 49 49 51 50 50
26 27 28 29 30 32 33 34 35 36 37 38 39 41 41 41 42 42 42 42 43 43 45 46 46 46 46 47 48 48 47 48 49 50 51 51 51 51 52 52 52 52 52 51 51 51 50 48 45 42 42 43 43 44
26 27 28 29 29 30 31 32 32 33 34 34 37 39 38 38 40 41 39 39 41 43 43 43 43 43 43 44 45 45 46 46 46 46 46 46 47 48 49 49 48 48 49 47 45 44 44 43 42 40 40 40 41 41
24 25 25 26 26 26 27 28 29 30 31 32 35 35 34 34 36 36 37 39 39 40 40 40 40 41 42 42 43 44 44 44 44 45 45 45 45 45 46 45 44 44 42 41 41 41 41 41 40 41 40 39 39 39

GFSWCAN_250_spd_030.txt.gz
Wind_Speed
74 72 71 69 67 64 58 57 59 54 68 62 64 58 56 47 43 44 48 44 41 38 36 30 25 27 31 33 32 32 32 32 30 26 28 26 27 29 32 33 36 39 44 50 53 55 55 61 63 66 67 69 74 75
71 74 73 69 65 62 57 55 60 53 61 65 63 59 53 52 47 47 49 45 41 40 38 35 34 28 29 33 36 35 35 33 31 34 30 31 32 33 34 35 42 47 51 53 58 62 64 66 66 68 71 73 76 75
71 72 72 70 64 61 57 56 57 54 57 63 65 57 57 53 49 47 46 49 47 42 42 39 35 37 34 33 34 35 37 38 36 35 36 37 38 40 40 44 48 52 55 60 64 66 67 69 70 73 75 75 79 75
73 71 70 68 67 63 57 56 56 57 56 56 63 64 60 56 51 48 44 46 50 46 44 41 39 39 41 39 36 34 35 36 37 40 42 44 43 45 48 51 56 63 66 68 67 67 68 70 73 76 77 79 76 74
72 71 70 68 67 65 59 55 54 55 57 54 53 56 58 63 61 55 51 49 47 47 49 52 47 48 47 46 46 46 43 43 44 47 49 49 53 54 54 60 64 70 72 71 69 72 73 76 77 75 75 74 75 79
73 71 72 71 66 66 61 56 52 51 53 56 53 54 54 55 62 61 57 55 54 51 49 51 54 54 51 50 52 54 55 56 56 57 59 60 63 65 61 61 69 73 73 72 74 78 79 81 79 81 80 79 82 84
74 71 72 72 67 65 62 57 54 51 51 52 55 53 52 54 55 59 58 58 60 58 55 53 54 56 58 60 60 61 60 60 59 60 62 65 68 69 67 65 75 72 74 77 81 81 84 82 83 83 83 85 86 89
73 71 72 72 70 68 64 57 55 53 52 51 52 52 52 51 52 57 58 59 60 61 61 57 58 62 64 64 65 65 66 66 65 65 63 67 68 69 67 74 73 75 79 81 82 83 84 84 84 85 87 89 92 96
71 74 72 74 72 68 65 60 58 55 53 49 47 48 50 53 54 54 56 59 60 58 59 59 61 61 62 67 69 71 72 71 67 68 71 69 65 66 74 74 75 80 82 84 84 84 86 86 88 89 92 96 100 103
70 71 72 72 71 68 66 64 60 59 54 51 49 48 50 51 53 55 56 54 52 54 54 54 58 60 64 66 69 71 71 71 69 69 71 68 67 71 77 79 80 83 85 86 85 85 88 90 92 95 100 102 105 108
68 70 70 71 70 71 65 66 63 60 55 53 52 52 53 52 52 51 51 54 55 54 55 56 62 65 68 70 73 72 70 71 69 70 73 69 70 78 81 83 84 82 85 88 90 92 93 95 98 103 106 109 112 115
68 67 68 68 70 68 70 65 64 63 60 59 58 56 56 54 55 55 51 51 52 54 55 62 66 69 70 71 70 72 74 73 72 73 75 73 75 75 77 79 80 83 86 89 93 97 99 103 106 109 112 115 118 121
69 68 69 66 66 67 66 65 67 65 65 65 64 65 63 62 60 55 52 54 57 58 59 62 65 67 67 70 72 74 75 75 76 75 74 77 79 80 82 84 88 90 93 96 100 104 107 110 113 116 120 123 125 125
63 64 64 63 64 68 69 69 70 70 70 71 71 71 71 68 65 62 61 61 61 62 62 64 68 68 70 73 75 77 79 80 82 83 83 86 89 90 92 95 98 100 103 106 109 112 115 119 123 126 126 123 121 120
64 65 62 62 63 66 70 72 72 73 76 76 76 79 78 76 75 74 73 72 71 72 73 74 76 78 80 83 84 86 89 91 92 92 93 96 99 102 104 107 108 111 115 117 119 122 124 124 121 119 121 117 111 111
57 58 61 60 59 60 62 67 72 75 76 79 83 84 84 86 86 84 83 82 82 82 84 85 86 88 89 91 93 96 98 100 102 103 104 107 110 113 116 119 122 122 122 121 119 117 115 113 113 112 110 109 109 107
61 62 65 66 67 68 68 68 69 73 77 80 82 84 86 87 91 91 90 92 92 92 92 92 93 96 98 99 100 103 105 106 109 111 114 116 118 121 123 124 121 118 116 115 112 109 110 108 109 108 111 111 106 102
62 62 63 62 63 64 66 67 68 70 71 73 74 77 79 83 86 88 96 99 99 99 101 103 105 106 107 109 111 111 112 114 115 116 117 117 117 117 119 119 115 112 114 114 113 115 117 114 114 102 93 92 93 95
69 67 64 63 63 64 65 67 68 72 74 74 76 78 80 82 83 85 89 92 93 93 95 97 98 98 100 102 105 107 107 108 110 111 113 113 111 113 116 117 117 116 114 115 116 115 110 103 102 101 99 96 89 90
73 74 73 72 71 69 68 68 69 70 73 75 77 80 81 83 84 85 86 88 89 89 93 96 95 97 98 99 102 106 107 109 112 114 116 115 116 119 120 119 117 114 111 107 102 102 102 99 101 97 91 88 84 82
76 76 76 75 73 72 70 72 73 74 75 77 79 81 83 86 87 88 90 91 90 91 92 89 93 101 100 98 99 102 108 112 110 109 113 117 119 115 112 110 107 107 106 104 103 100 99 94 88 86 84 83 80 79
75 76 76 77 77 78 76 76 75 75 76 77 77 77 77 78 81 80 80 81 84 87 88 89 92 95 95 102 105 105 101 102 108 111 108 104 102 102 99 97 97 96 95 93 89 87 86 85 82 79 77 77 75 75
71 72 74 74 75 74 75 76 76 77 78 78 79 79 80 80 79 80 80 82 82 85 86 87 88 88 89 91 93 94 94 96 96 95 94 93 92 91 90 88 85 84 84 83 81 79 79 78 77 75 74 73 70 70
62 64 65 65 66 67 69 70 71 72 73 75 76 76 77 77 78 78 79 80 82 83 82 83 84 84 85 86 87 86 85 84 83 82 81 81 82 81 80 78 77 75 74 74 74 74 74 73 72 71 70 68 66 65
57 59 58 61 63 64 65 66 67 66 68 69 70 69 70 71 70 69 71 74 72 71 72 73 73 73 74 73 73 73 73 73 72 71 71 73 74 73 72 72 71 70 70 70 70 69 68 67 66 65 65 63 62 61
52 54 54 55 58 60 60 63 62 61 62 64 65 65 65 65 64 65 66 63 62 62 62 63 63 62 63 64 64 64 64 64 65 64 64 65 66 66 66 67 68 68 66 64 64 65 66 65 64 62 62 59 58 57
44 45 45 47 50 51 52 53 53 53 53 53 54 54 54 54 54 56 56 57 58 56 54 54 55 55 54 55 57 59 60 60 60 61 62 63 62 62 62 63 63 63 63 62 61 59 59 59 58 56 55 55 54 54
39 39 39 39 42 42 43 43 44 44 45 46 46 46 47 48 49 49 50 50 51 51 50 50 50 51 52 54 55 57 58 58 57 56 57 57 57 57 56 56 55 55 55 55 55 55 55 55 56 56 56 57 56 55
33 33 35 36 37 38 39 39 39 40 41 42 43 42 43 42 42 43 44 45 46 47 48 48 49 49 50 52 53 53 53 52 51 50 49 50 50 49 49 50 50 50 50 51 49 49 51 52 52 52 51 52 53 53
30 31 31 31 32 33 34 35 35 35 36 37 38 39 40 41 42 42 43 43 42 42 45 46 47 48 48 47 48 48 48 48 48 48 47 47 47 47 47 47 47 47 47 47 49 49 48 47 46 46 44 44 45 45
26 27 28 28 29 30 31 32 33 35 36 37 38 38 38 38 39 39 40 39 39 41 43 43 44 44 44 44 43 43 44 45 46 47 47 47 47 47 47 47 48 48 48 48 48 48 48 46 45 44 42 41 40 39
25 27 28 29 29 30 30 30 31 31 32 34 36 36 36 35 35 35 35 36 38 39 40 40 41 40 41 41 41 42 42 42 43 44 44 44 45 46 46 46 46 46 45 44 42 42 42 42 42 41 40 40 39 38
24 24 24 25 26 27 27 28 29 29 30 32 33 33 31 31 32 33 35 36 36 36 36 38 38 39 40 39 39 40 40 41 42 42 43 43 43 42 42 41 42 41 40 40 41 42 41 40 39 39 39 38 37 36

GFSWCAN_250_spd_033.txt.gz
Wind_Speed
63 64 66 66 67 68 68 64 62 56 57 64 66 63 57 54 56 54 45 40 43 40 40 37 33 36 34 30 28 30 31 33 33 32 31 32 29 30 31 32 34 35 35 37 39 43 45 54 55 58 64 65 66 69
68 68 67 69 69 68 62 59 57 55 58 64 66 65 59 48 52 56 50 42 41 44 41 39 36 35 33 28 27 29 33 34 34 36 35 35 35 34 35 35 38 39 42 43 46 50 54 57 60 65 67 68 69 72
66 67 68 67 67 62 56 55 56 55 61 63 65 60 57 53 48 49 49 44 44 43 43 40 39 37 35 32 28 29 33 35 36 38 39 39 38 39 39 40 42 45 48 48 53 59 64 65 69 70 68 70 72 77
69 71 71 66 67 62 59 54 53 55 63 60 60 63 55 52 49 43 43 43 45 48 44 44 43 40 40 39 38 38 35 34 37 39 40 42 42 43 43 43 46 52 57 59 59 65 67 72 73 73 73 74 77 80
69 70 68 62 57 61 57 52 53 57 60 62 58 61 60 52 50 47 45 43 44 49 48 46 46 45 45 46 44 44 44 44 43 41 38 40 44 44 43 45 56 66 65 65 66 71 73 76 78 77 77 78 82 84
70 70 70 63 58 55 57 53 52 54 61 62 63 62 62 57 51 50 46 46 45 46 48 51 53 50 49 50 50 51 53 51 50 51 51 52 55 55 53 55 67 69 69 69 71 75 75 76 76 77 78 82 85 86
70 68 69 64 59 56 54 54 53 52 55 59 61 63 61 63 60 55 53 49 48 48 47 48 49 51 57 59 59 59 60 59 57 56 57 60 62 61 57 60 72 70 72 75 77 78 77 79 79 81 84 87 88 88
71 71 68 66 63 61 58 55 51 52 53 52 58 59 61 61 61 59 59 57 54 52 49 48 50 54 57 59 60 61 62 62 62 62 63 66 63 64 63 72 72 75 77 79 79 77 79 80 83 85 88 89 89 91
71 71 71 68 67 64 59 56 53 50 49 51 51 56 58 58 56 61 64 62 61 61 59 57 59 61 61 64 64 65 64 64 63 64 67 68 68 71 78 79 78 76 77 79 78 81 81 85 87 88 89 91 94 97
70 69 68 65 64 66 63 58 54 50 48 47 50 52 54 58 58 60 58 55 55 56 57 62 66 66 68 70 72 72 72 71 69 72 73 70 65 71 75 76 77 78 78 78 80 83 84 85 87 91 94 96 100 103
72 71 73 67 66 64 62 61 57 54 50 49 48 48 51 52 52 54 57 58 57 56 55 56 62 66 69 71 74 74 72 72 70 70 71 68 67 73 76 78 79 79 81 84 85 86 88 90 93 97 100 104 107 111
70 71 68 65 63 63 64 63 60 58 55 52 51 50 50 50 49 47 44 44 46 49 56 66 71 73 72 74 74 72 72 70 68 69 70 69 72 77 79 79 81 83 84 86 87 90 93 97 100 103 107 110 115 120
63 65 67 67 63 64 67 64 64 63 61 60 57 56 54 52 50 48 47 48 52 53 57 58 59 60 61 64 66 68 69 68 69 70 70 73 76 78 78 80 83 84 86 89 92 96 100 104 108 112 116 120 124 128
55 55 59 60 66 63 62 65 67 68 65 63 61 60 59 56 53 53 55 57 59 59 59 61 63 64 66 67 69 71 73 73 73 73 75 77 79 80 83 86 88 91 94 97 101 106 110 114 119 122 123 126 126 123
58 58 56 56 56 58 61 63 63 68 68 69 69 67 66 62 61 62 62 62 63 64 65 67 68 69 72 73 75 77 79 79 79 80 82 85 87 90 94 97 98 102 105 108 112 115 118 121 124 127 128 125 123 119
58 57 57 60 63 62 61 61 62 65 66 68 70 71 71 69 69 69 70 71 71 71 72 74 75 77 79 81 82 84 86 86 89 92 94 96 99 101 104 107 110 112 114 117 119 122 125 126 125 121 120 117 115 119
55 58 58 59 61 64 63 61 62 65 67 67 70 72 74 75 75 76 77 78 80 81 81 82 83 86 88 90 92 94 96 98 100 103 104 106 108 110 113 116 119 121 123 124 123 120 116 115 115 113 113 114 109 106
56 53 52 55 58 58 60 60 63 65 66 67 68 71 75 78 80 81 82 84 86 87 89 91 93 95 97 99 101 103 104 106 108 109 111 112 114 118 120 122 123 121 116 115 114 112 111 115 116 117 114 106 104 104
60 57 55 54 54 55 56 58 60 63 65 68 70 73 74 74 77 81 85 87 89 91 94 94 96 97 100 101 102 104 106 110 112 112 113 114 116 115 114 114 114 115 116 116 115 113 114 109 105 104 104 102 98 95
63 63 62 62 61 61 63 64 64 66 68 71 72 72 73 75 78 80 83 85 86 86 86 87 90 93 94 94 96 100 102 103 106 108 108 108 108 110 113 113 111 113 116 115 113 115 111 107 107 104 98 93 88 86
61 62 63 64 64 63 63 65 66 67 70 71 73 75 75 77 77 79 80 81 82 84 85 86 88 90 90 93 96 97 99 102 104 107 108 110 111 112 113 111 108 105 103 101 100 100 100 97 94 91 90 88 83 79
66 64 66 66 65 66 65 69 69 69 70 71 72 73 75 76 78 80 82 81 81 83 84 86 88 88 88 89 91 94 97 100 101 101 99 97 97 97 98 98 96 95 91 89 90 89 88 85 84 81 78 76 75 74
67 68 68 69 70 71 72 74 74 73 74 74 75 75 76 75 74 73 72 74 75 77 77 78 82 83 84 86 88 89 91 91 92 91 91 91 90 89 88 87 85 84 85 84 83 81 79 77 75 74 73 72 70 70
69 69 71 71 71 71 72 74 75 75 74 75 75 74 75 75 73 73 74 77 79 79 79 79 80 82 82 81 81 82 82 82 82 82 82 82 81 80 79 79 78 77 76 75 74 73 72 72 71 70 69 68 67 66
69 71 71 72 73 73 73 73 74 73 74 74 73 73 74 74 74 74 76 78 75 75 75 76 76 75 75 75 75 75 75 74 73 73 74 73 73 72 72 71 70 70 69 69 68 69 69 68 66 66 66 65 64 64
65 66 68 68 70 70 70 71 70 71 70 70 70 70 70 69 69 70 73 72 70 71 71 71 69 68 68 68 67 66 65 65 65 65 66 67 67 67 67 68 67 66 64 63 63 63 64 64 63 63 63 63 62 59
62 63 63 64 64 62 64 65 66 67 68 68 68 66 65 64 65 65 64 63 63 63 62 62 61 60 60 59 59 60 60 61 61 62 63 64 63 63 62 62 63 63 62 61 60 59 59 59 59 60 59 59 58 58
51 51 52 51 53 52 53 53 55 58 59 57 56 56 56 56 56 55 56 57 56 56 54 54 53 54 56 57 59 59 58 59 60 59 58 57 57 58 58 57 57 57 57 56 55 55 55 55 56 57 57 58 58 58
39 40 42 41 42 42 43 46 47 48 49 49 49 49 49 49 49 49 50 50 49 48 49 51 53 54 55 55 56 56 55 53 54 54 54 54 53 53 52 52 52 52 53 53 52 51 51 53 54 54 54 55 54 53
35 36 36 37 37 38 39 40 41 43 44 44 44 44 44 44 44 45 46 47 47 48 49 49 50 50 50 51 52 52 52 51 50 49 48 48 48 48 49 48 48 49 49 49 51 51 49 49 50 49 48 46 46 47
32 33 34 34 34 34 34 35 36 37 39 40 40 41 42 43 43 43 42 43 45 46 47 47 47 48 48 48 48 49 48 48 48 48 48 48 47 47 47 46 48 48 48 48 49 49 49 48 47 45 44 43 41 40
31 31 31 31 32 33 33 33 34 35 36 37 38 39 39 39 39 40 39 41 43 42 42 43 44 45 45 45 45 46 47 47 47 46 46 46 46 47 47 47 48 48 47 46 46 45 43 43 43 43 41 39 39 39
26 26 27 28 29 30 30 31 33 34 34 36 37 36 35 34 36 37 39 39 38 39 40 41 42 42 43 43 43 43 43 43 43 44 45 45 46 46 45 43 43 44 43 42 41 42 43 42 41 39 39 39 38 37

GFSWCAN_250_spd_036.txt.gz
Wind_Speed
63 64 58 57 56 55 52 55 63 69 67 66 61 58 61 60 57 64 52 50 51 45 42 39 39 40 41 37 31 29 30 32 31 32 33 33 33 33 35 35 36 35 34 38 41 42 40 45 47 50 53 59 63 66
61 54 56 55 53 54 58 64 69 68 67 64 55 59 60 60 58 63 53 53 51 46 42 42 42 41 40 37 32 32 32 31 32 34 35 36 36 37 37 37 40 39 41 43 48 49 48 47 50 54 62 66 68 72
61 64 63 61 61 61 65 71 70 66 66 59 56 60 63 62 64 63 53 51 48 45 43 44 43 41 38 38 35 34 33 33 32 33 35 36 38 40 40 41 43 47 49 51 52 54 54 52 59 64 68 70 74 77
53 58 61 60 62 64 69 72 66 65 63 53 57 63 61 57 57 54 51 49 47 47 46 46 46 42 39 38 37 36 36 34 32 31 33 35 37 40 42 44 46 52 55 54 52 55 57 64 69 71 73 75 77 81
61 61 61 61 63 66 70 68 61 61 57 54 59 59 60 53 53 54 54 52 49 44 44 46 45 43 42 42 41 41 41 39 37 37 37 37 39 39 38 39 48 54 52 52 55 64 66 70 73 75 77 80 84 86
56 59 61 65 64 64 68 62 58 54 50 59 62 59 58 52 48 45 51 51 51 48 45 45 47 48 47 47 47 47 47 47 46 44 44 45 48 46 44 50 64 62 63 65 65 67 71 75 76 79 82 86 87 87
60 62 63 62 65 63 62 54 48 49 51 60 61 58 56 57 51 47 46 47 47 47 47 47 47 49 51 52 52 52 51 52 50 49 51 53 55 56 55 59 66 67 68 69 70 73 76 79 82 86 88 87 88 90
62 63 62 57 62 55 49 46 44 48 49 57 62 62 57 56 54 49 49 50 47 46 44 43 45 50 54 55 54 55 55 57 59 60 61 62 61 63 63 69 69 71 73 75 77 79 81 83 85 86 87 90 93 95
59 58 53 59 60 55 52 48 46 46 47 53 61 63 63 61 58 54 52 52 49 48 47 47 48 51 52 56 57 58 59 58 59 60 62 62 60 64 67 70 73 75 77 79 80 82 83 85 87 89 91 94 95 96
63 59 56 56 54 53 56 51 48 46 46 48 59 62 61 61 64 62 58 55 51 49 49 51 54 55 58 60 60 60 60 59 58 62 64 64 65 71 76 76 77 79 81 82 83 84 86 88 91 94 95 95 95 96
67 64 62 60 56 55 55 55 52 48 48 47 49 52 60 63 61 64 61 58 58 57 58 60 63 66 67 66 67 66 67 67 66 68 72 70 71 77 79 80 81 82 84 85 86 87 88 90 92 94 94 96 98 102
66 64 63 61 57 53 53 50 51 50 47 46 46 49 49 49 54 60 59 58 59 61 64 68 70 69 69 70 70 71 74 76 77 77 78 75 75 79 81 82 84 85 85 86 88 89 91 92 94 96 99 103 107 111
67 65 62 61 57 55 55 52 51 50 49 50 49 47 45 44 42 41 46 52 57 61 65 67 68 71 73 75 73 73 72 72 73 71 74 76 79 79 81 82 82 83 85 88 90 92 95 97 100 103 107 110 115 119
61 64 63 64 62 59 59 59 57 57 55 54 53 52 51 48 46 48 53 57 59 61 63 62 62 64 66 67 69 70 70 69 68 69 72 75 75 77 81 83 84 86 89 92 95 98 101 104 108 112 116 120 123 125
63 62 63 63 65 62 59 59 59 59 59 58 57 55 52 52 52 53 54 56 57 58 60 61 63 64 66 68 68 70 72 72 73 76 78 81 82 85 87 88 90 94 97 100 104 107 110 113 117 120 122 124 126 128
62 62 63 62 61 60 61 62 62 59 61 65 64 63 62 62 61 60 59 59 60 62 63 64 66 67 70 72 73 76 79 80 82 84 86 88 92 94 97 99 100 103 108 111 114 117 119 122 123 125 126 124 118 115
58 58 57 57 59 59 59 60 62 63 61 61 63 68 71 69 67 67 68 70 71 71 72 73 73 76 77 79 82 84 86 88 90 92 95 98 100 101 104 107 111 115 118 119 120 120 118 117 115 113 110 111 111 112
55 53 53 53 55 56 56 58 62 64 64 66 69 69 69 70 70 72 75 76 78 79 80 81 82 83 85 86 89 92 95 97 99 102 105 106 107 109 112 115 116 117 118 116 114 112 111 113 111 110 109 109 104 103
55 55 56 57 57 56 57 57 58 61 61 63 67 66 66 67 69 72 76 78 79 80 81 84 86 88 92 95 97 99 101 103 104 106 108 110 111 111 112 113 112 110 110 110 111 114 114 112 110 106 104 104 102 98
52 53 56 57 58 59 59 60 63 64 63 63 65 67 69 71 73 73 76 79 81 81 83 86 88 90 91 93 96 97 99 101 101 102 104 106 105 105 107 108 110 112 113 112 109 108 106 102 100 96 93 92 88 87
55 57 58 59 59 58 58 58 60 61 62 64 66 66 68 70 73 75 77 79 81 84 87 90 91 92 93 96 97 98 99 100 101 100 101 103 105 106 107 109 108 105 103 101 98 95 93 91 89 88 87 86 83 82
58 58 60 59 58 59 59 60 60 61 63 65 67 69 69 69 71 73 74 75 80 84 87 88 89 89 90 91 90 90 92 94 95 97 98 98 99 98 99 99 97 93 92 92 90 88 87 86 85 83 80 78 77 78
58 59 60 61 60 61 62 64 64 64 64 66 67 68 69 70 71 72 73 74 77 77 79 80 81 82 82 83 83 83 85 87 89 90 91 91 90 89 88 88 87 87 87 86 84 83 81 79 77 76 75 74 72 72
63 66 66 64 63 65 64 66 65 66 66 67 67 67 67 68 67 68 70 72 73 73 72 73 75 77 77 79 81 82 83 83 82 83 84 84 84 83 83 82 81 81 80 79 77 75 74 74 73 73 71 69 68 68
67 67 66 66 65 65 64 64 65 65 66 65 65 65 69 70 69 70 71 77 77 74 73 73 74 76 77 77 77 79 80 80 79 78 78 77 76 76 76 75 74 73 72 72 71 71 71 70 69 68 67 66 64 64
63 62 63 62 63 63 62 62 62 63 64 65 66 68 69 68 67 67 72 73 72 70 71 73 73 74 75 75 75 74 73 73 72 72 72 71 71 71 70 69 68 67 66 66 66 68 67 66 65 64 64 63 62 62
60 60 61 62 63 62 63 62 61 62 62 62 63 64 67 67 67 68 69 70 70 69 68 67 68 68 67 68 68 68 67 67 67 67 68 67 66 66 66 65 64 64 64 63 62 61 61 62 62 61 61 61 60 60
58 58 60 60 60 60 61 59 58 59 60 62 64 65 65 64 63 62 62 62 62 61 61 62 63 62 62 62 63 64 64 64 63 63 63 63 63 62 61 60 59 60 59 58 58 58 58 57 58 58 58 59 59 58
54 55 56 57 55 54 54 54 54 54 54 56 56 57 57 58 57 58 58 57 57 58 57 57 58 60 61 61 61 60 60 60 60 60 59 58 57 57 56 56 56 56 56 56 55 56 56 56 56 56 57 57 58 57
46 47 48 48 49 48 48 47 48 48 50 51 52 53 53 52 52 52 52 52 53 54 55 56 56 57 56 57 57 57 57 56 55 55 55 55 54 54 53 53 53 54 54 54 54 53 53 53 52 53 53 53 52 51
39 40 42 42 42 42 43 43 44 45 46 46 47 48 49 49 49 49 50 50 50 51 51 51 52 52 52 53 53 53 53 53 53 52 52 52 52 51 51 51 51 51 51 52 52 51 50 50 50 49 48 47 48 47
34 35 36 36 36 36 37 37 38 39 40 42 43 43 43 43 44 46 46 46 47 47 48 48 48 48 49 50 50 50 50 51 52 51 51 51 51 50 50 50 50 51 51 49 49 49 48 48 47 46 46 46 44 42
29 30 31 32 33 34 35 36 37 38 39 40 40 39 39 40 42 42 43 43 43 44 45 45 46 46 47 48 48 49 49 50 49 49 49 49 49 49 50 49 49 49 48 47 47 46 45 46 46 46 45 43 43 43

GFSWCAN_250_spd_039.txt.gz
Wind_Speed
51 58 65 62 60 59 59 60 59 59 57 54 55 59 60 61 59 63 64 67 65 56 50 51 44 42 41 39 41 39 36 35 32 31 31 30 29 29 30 32 33 33 35 38 40 42 40 42 45 48 51 54 56 58
56 60 64 62 58 55 55 57 59 60 56 55 57 62 62 59 65 66 61 62 62 53 53 52 47 45 42 38 41 39 37 36 34 32 30 30 32 33 35 37 39 40 41 43 46 46 45 46 50 55 56 58 59 64
61 62 58 57 54 53 55 57 58 56 54 56 61 62 60 63 66 64 66 63 60 56 53 48 45 43 40 39 41 40 40 38 34 31 33 34 34 36 37 39 42 44 46 47 47 49 51 53 55 56 58 60 64 67
60 60 59 56 53 51 52 52 52 54 57 60 62 60 60 63 65 64 68 60 57 55 52 47 46 42 39 38 40 42 40 37 35 35 34 35 36 37 38 40 43 47 47 47 48 52 51 56 58 63 67 69 71 73
58 58 56 51 48 49 53 54 55 62 63 62 59 58 61 63 64 62 64 58 56 55 50 47 45 44 42 41 41 42 42 41 40 39 37 36 38 38 38 40 47 47 47 48 50 54 58 63 67 70 72 73 75 79
51 52 50 49 48 52 54 58 66 64 60 59 55 51 58 65 63 59 60 55 51 52 50 47 45 44 44 44 44 43 44 43 42 40 39 40 43 41 41 46 53 56 57 57 59 63 66 66 70 72 74 77 80 84
49 48 47 47 51 53 57 61 62 59 55 52 50 53 61 62 59 56 57 55 48 50 51 51 49 47 47 48 47 47 46 46 45 45 46 47 49 48 50 54 61 63 64 65 67 69 72 74 75 77 80 84 88 92
46 45 45 47 50 55 59 60 57 54 56 52 50 51 55 59 57 51 55 56 50 50 49 50 50 52 51 50 50 51 51 51 50 50 51 52 52 55 58 65 67 69 71 71 73 75 76 77 80 84 88 91 94 96
53 54 50 53 55 59 61 60 58 53 52 50 48 46 56 56 55 51 51 52 52 52 49 50 52 53 51 51 50 50 50 51 53 55 56 56 57 61 66 69 70 71 72 72 74 78 81 85 88 91 94 95 95 96
44 45 48 53 56 57 58 58 57 52 48 48 43 50 60 60 55 51 47 51 51 51 48 50 49 50 50 52 52 51 51 51 52 56 60 61 63 68 69 68 71 74 76 79 82 84 87 90 93 93 94 96 98 98
50 52 56 56 57 57 57 54 58 53 45 41 40 49 56 58 58 53 51 49 49 49 49 50 51 52 54 54 55 55 55 57 57 59 62 61 63 70 74 78 80 82 84 87 89 91 91 93 96 95 95 95 96 99
56 59 59 52 53 53 55 55 53 51 45 43 41 42 51 57 61 54 52 52 55 55 55 58 59 58 58 60 59 58 59 58 57 60 65 68 75 79 81 83 84 85 86 88 91 93 93 92 92 94 96 100 103 106
60 61 57 56 53 53 50 49 47 44 41 38 39 37 39 49 57 59 60 58 58 59 59 60 60 60 61 62 62 63 64 67 71 71 74 78 80 82 83 84 87 88 89 90 90 90 92 95 98 101 104 107 110 112
62 60 57 55 55 54 53 50 47 44 42 41 38 38 38 43 47 54 58 61 62 62 64 67 68 67 68 69 69 69 69 71 70 73 76 79 80 82 84 85 85 86 88 89 91 95 98 102 104 107 110 114 117 120
58 57 54 51 49 48 49 47 47 49 47 44 43 42 43 46 49 52 55 56 55 57 58 61 62 65 69 72 74 75 75 75 75 77 77 78 79 81 83 85 87 89 92 95 98 102 105 108 111 114 117 119 121 123
61 60 57 55 52 51 50 48 49 49 51 52 50 49 48 48 48 49 51 52 54 55 57 59 60 62 63 65 67 69 71 72 73 75 78 80 83 85 88 92 95 98 100 103 105 108 112 115 118 119 117 117 117 116
61 61 60 58 55 54 55 55 53 53 54 53 52 52 52 53 54 55 57 59 60 61 63 63 64 67 68 70 71 73 75 77 80 83 86 89 91 94 98 101 104 106 108 111 114 115 116 116 115 113 113 112 112 112
56 56 61 60 60 60 59 59 58 59 60 57 57 58 59 60 61 62 63 64 65 67 68 69 71 73 75 78 80 82 84 87 89 91 93 95 98 102 105 107 108 110 111 113 115 114 114 114 113 110 111 112 110 108
52 53 55 56 58 58 59 60 60 59 58 60 62 62 63 65 66 67 69 68 69 71 73 75 77 80 83 85 86 87 89 93 95 97 99 101 102 104 106 107 108 109 110 112 112 111 110 110 111 111 108 105 102 98
54 54 54 54 54 55 55 56 56 57 58 60 63 62 62 64 67 69 71 72 74 77 78 80 83 84 86 88 90 91 94 96 97 99 101 102 103 104 106 108 109 110 110 111 112 112 109 105 102 100 97 96 94 91
51 54 54 54 55 56 58 61 60 60 62 62 63 65 65 66 67 68 71 72 73 74 77 81 82 83 85 89 92 93 93 93 96 99 100 100 101 103 107 107 106 105 107 106 103 102 99 95 95 93 90 87 84 81
46 47 49 51 52 52 52 54 56 56 58 60 61 62 64 66 68 70 70 68 70 74 76 77 80 82 84 87 89 91 94 96 96 98 97 98 101 101 101 100 99 98 98 95 93 93 90 88 86 82 80 79 78 77
50 51 53 54 54 54 57 58 59 60 61 64 66 67 69 70 71 71 69 72 74 75 78 79 82 84 87 89 90 91 92 92 91 90 90 91 90 90 90 90 90 89 88 87 86 84 82 79 77 76 75 74 73 71
53 53 54 56 57 58 59 60 62 62 65 66 67 67 68 70 72 72 73 75 78 80 81 82 82 84 85 86 87 87 85 83 83 83 83 83 83 84 85 84 83 81 80 79 77 75 74 73 72 71 69 69 68 67
55 56 57 58 60 61 61 61 62 64 64 66 69 72 72 71 71 73 75 78 79 79 80 81 80 79 78 77 77 77 77 78 78 79 80 80 81 79 78 77 76 74 73 72 72 72 70 68 67 66 65 64 64 63
55 57 59 58 60 62 61 62 62 62 63 63 64 66 67 68 69 68 70 71 72 74 74 73 72 71 71 71 72 73 73 74 73 74 74 73 73 72 72 71 70 69 69 68 68 68 67 65 64 64 62 61 60 60
54 55 58 59 59 59 59 58 58 60 60 61 62 63 64 64 64 64 64 65 66 68 69 69 69 68 68 68 67 67 67 68 67 68 68 68 68 67 67 67 66 65 63 63 62 61 61 61 61 61 60 58 58 58
54 55 57 57 57 56 57 56 56 57 57 57 57 59 59 60 61 61 62 64 66 66 66 66 65 63 62 62 62 63 63 64 64 63 63 63 63 63 63 62 61 60 59 58 58 58 57 57 57 57 57 58 58 58
50 51 52 53 53 53 53 53 54 54 54 53 53 54 55 56 56 56 57 57 58 58 58 58 58 59 59 59 59 59 60 60 60 60 60 60 59 59 58 57 56 56 56 55 54 54 54 54 55 56 57 57 57 57
45 46 48 49 49 50 49 48 48 47 46 46 47 48 49 50 51 52 52 52 53 55 55 56 56 56 56 56 56 57 57 58 57 57 57 56 56 55 54 54 54 54 53 52 52 51 52 52 53 53 53 53 52 52
40 41 41 42 42 43 43 43 42 43 44 44 45 46 47 47 48 49 49 50 51 51 52 53 53 54 54 54 54 54 54 54 54 53 53 53 52 52 52 51 51 51 51 51 51 51 50 49 48 48 47 47 47 48
36 38 38 39 40 41 41 42 43 44 44 45 45 44 44 44 45 45 46 47 48 49 49 50 50 51 51 51 51 50 50 50 50 49 50 50 50 50 50 49 49 50 50 49 49 49 48 48 47 46 46 46 45 44
34 35 36 36 37 37 38 39 39 40 41 41 40 39 39 41 43 44 45 45 45 45 45 46 46 46 47 47 48 48 49 49 49 49 49 49 48 48 49 49 49 49 50 50 48 47 47 46 45 45 44 43 41 40

GFSWCAN_250_spd_042.txt.gz
Wind_Speed
42 45 47 49 50 52 56 57 58 59 58 58 57 59 60 61 61 58 59 60 58 62 68 65 61 55 51 47 45 43 41 39 39 37 35 35 34 34 35 35 34 34 35 36 37 39 39 41 43 46 50 52 54 55
46 47 48 50 52 53 54 55 56 57 57 58 60 62 61 60 59 62 63 61 60 68 66 62 59 56 51 48 45 42 41 37 38 38 38 36 36 36 36 36 35 36 36 38 40 41 42 44 47 50 51 54 56 57
53 52 51 53 52 53 55 57 59 62 64 65 64 60 60 60 62 61 63 60 63 70 65 62 57 53 49 47 45 41 40 40 41 41 38 37 37 37 36 38 39 40 42 43 44 46 47 50 52 53 53 54 56 59
58 59 59 61 62 59 57 60 62 63 64 59 59 57 57 61 61 61 55 58 68 66 60 62 58 54 49 47 46 43 42 41 42 40 38 38 38 37 37 38 41 42 43 45 46 48 49 49 49 52 56 60 64 68
63 61 62 63 61 56 56 58 58 57 53 53 53 55 59 59 60 57 54 61 69 69 62 57 57 55 49 48 47 43 40 41 42 42 41 40 39 39 39 40 42 44 44 46 47 49 51 55 57 61 65 68 71 73
58 55 53 50 49 48 47 53 55 49 47 48 53 57 58 58 57 57 61 63 67 70 65 56 54 55 50 48 48 44 41 40 42 43 43 41 43 43 43 45 48 49 50 52 53 55 57 60 64 69 71 74 76 79
49 47 45 43 46 50 49 47 51 50 50 49 54 56 54 52 51 59 64 58 60 66 62 56 54 52 49 49 47 45 43 42 43 43 44 46 48 49 49 51 56 55 56 57 59 62 65 69 70 72 76 78 80 83
45 43 39 37 38 41 42 47 50 50 51 53 56 53 51 53 53 62 61 59 54 55 57 53 52 50 49 49 48 46 45 46 46 46 48 50 52 53 54 59 60 61 62 64 66 70 72 73 76 79 81 83 86 90
45 43 39 38 40 42 44 43 47 49 49 51 50 49 48 47 50 59 58 58 56 49 48 52 55 54 50 49 48 49 49 49 50 49 50 52 54 57 61 64 66 67 68 71 75 77 77 80 81 83 86 90 94 95
39 36 36 35 39 45 46 47 49 49 49 48 47 44 48 51 48 51 55 53 58 51 49 50 53 53 55 54 53 52 51 50 49 52 54 54 57 63 64 65 66 70 74 77 78 79 80 82 86 91 94 94 96 97
41 40 38 38 41 44 46 51 52 51 49 49 45 46 48 48 48 52 56 54 56 57 55 53 52 56 57 57 56 54 53 53 52 55 58 59 62 67 69 71 74 75 75 77 78 81 86 91 93 94 95 96 98 99
42 39 37 37 41 46 50 51 51 50 49 50 47 44 42 41 44 51 55 56 55 56 61 61 57 56 57 56 55 54 54 54 53 58 61 62 69 73 73 72 73 75 77 82 88 91 92 94 95 96 98 99 100 102
41 43 39 38 39 46 52 52 51 50 47 49 49 45 39 36 43 53 55 58 58 57 57 59 60 60 59 60 59 57 56 57 61 62 65 69 71 71 72 74 77 82 86 90 92 94 95 97 97 98 100 103 105 108
42 46 45 43 46 48 53 55 51 49 46 46 43 41 38 33 42 52 56 60 60 59 57 56 56 57 59 60 60 62 63 64 63 66 70 72 73 76 79 83 86 89 92 93 94 95 95 97 100 103 105 109 112 115
44 45 47 49 50 50 50 50 47 45 45 47 43 40 39 38 38 44 54 57 59 63 62 59 59 59 59 60 61 62 64 66 69 73 76 78 81 85 88 89 89 91 91 92 94 96 98 101 105 108 111 114 117 119
48 48 51 52 52 49 47 46 46 47 45 45 45 43 43 44 45 45 45 48 55 61 63 65 65 65 66 68 70 74 75 75 76 77 78 79 80 81 83 85 87 90 92 95 98 102 106 108 111 114 116 118 118 118
53 54 52 54 50 47 47 45 45 46 47 48 49 48 47 46 45 44 45 47 48 51 53 55 58 60 62 64 66 67 68 70 72 74 77 79 82 85 88 90 93 96 101 103 106 107 108 111 114 114 115 116 115 113
57 54 55 56 53 51 50 50 51 53 52 52 51 51 51 49 49 49 49 50 51 52 54 57 59 61 64 66 68 70 72 74 76 79 82 85 89 92 95 98 99 102 105 106 107 109 110 111 113 113 113 112 112 112
58 58 59 57 57 56 57 55 53 53 54 55 54 53 54 56 57 58 59 59 60 61 62 65 66 69 70 71 74 77 79 82 83 84 87 90 92 94 96 99 102 105 106 107 109 110 109 110 112 113 113 111 109 107
60 61 61 59 59 58 57 57 56 55 54 56 57 57 58 58 59 60 62 64 64 66 68 70 72 74 77 78 79 82 83 84 87 90 94 96 97 99 100 102 103 104 106 106 105 108 110 112 112 110 106 103 101 97
58 60 64 63 61 60 61 61 60 59 59 61 61 62 63 64 65 66 66 65 67 69 71 74 76 77 78 80 83 84 86 87 89 94 96 95 94 96 97 98 99 101 103 106 108 110 110 107 103 101 97 94 88 85
54 57 60 61 63 63 62 62 63 66 65 63 62 62 63 64 64 65 66 67 69 71 73 75 78 81 83 84 84 85 87 87 88 91 94 95 97 97 98 100 101 103 104 104 103 101 99 96 94 89 85 82 80 77
48 49 51 52 53 54 56 56 58 59 61 62 63 63 63 64 66 69 69 70 71 73 74 77 79 80 81 83 85 87 88 90 92 94 95 96 97 98 98 98 98 97 95 95 94 93 90 86 82 80 78 77 74 72
47 48 49 51 52 53 54 55 56 57 58 59 60 61 62 63 64 65 67 70 72 73 76 78 79 81 82 85 88 90 92 93 93 95 94 93 91 90 90 90 89 89 88 87 84 82 80 77 75 74 72 71 69 66
50 51 53 54 54 56 57 59 59 60 61 62 63 63 64 64 66 67 70 72 73 76 77 79 82 84 85 86 88 89 87 87 86 86 86 85 85 85 85 84 82 80 79 78 77 74 72 71 69 68 66 65 64 62
54 56 57 58 59 60 60 62 63 63 64 64 65 67 68 70 71 72 74 75 77 78 79 79 78 78 79 79 79 79 80 81 80 81 81 80 78 76 75 75 74 73 71 70 70 69 67 66 64 63 62 61 60 58
53 55 57 58 59 61 61 63 64 66 68 69 69 69 68 69 69 69 70 69 69 70 70 71 72 73 74 74 75 76 76 75 74 72 70 69 69 69 69 68 66 66 65 65 64 63 63 62 61 60 59 57 57 56
44 46 47 46 48 49 51 52 53 54 55 55 56 57 57 57 60 62 62 64 64 65 67 68 69 71 71 71 70 69 68 66 65 65 64 64 64 64 63 63 61 61 60 59 59 58 58 58 57 56 55 56 55 55
44 45 46 48 48 48 49 50 50 50 51 52 53 54 55 55 58 60 61 62 62 62 62 62 63 63 62 62 62 62 62 62 61 60 60 60 59 58 58 57 57 57 56 55 56 55 54 54 54 54 54 54 53 52
41 41 43 44 45 46 47 47 48 48 48 49 49 50 51 51 52 53 54 54 54 55 56 56 57 57 57 57 57 57 56 56 56 56 56 55 55 54 54 54 54 54 54 53 51 50 51 51 51 51 51 50 49 49
36 37 38 39 40 41 41 42 42 43 43 43 43 44 44 45 46 47 48 49 50 51 51 51 51 52 52 52 52 52 53 52 53 53 52 52 52 52 52 52 51 51 50 49 50 49 48 48 47 47 47 47 47 47
33 34 35 36 37 37 38 38 39 39 40 41 41 41 41 41 41 42 43 45 45 46 46 47 48 48 48 48 49 49 49 50 50 49 49 49 48 48 48 48 48 48 48 48 47 47 46 46 46 45 44 44 44 44
30 31 31 32 33 34 34 34 35 36 36 36 35 35 36 39 41 42 43 43 43 43 44 44 45 45 45 46 46 46 46 46 46 47 47 47 46 46 46 46 46 46 47 46 46 46 46 45 45 44 44 44 43 41

GFSWCAN_250_spd_045.txt.gz
Wind_Speed
38 40 40 40 38 39 42 46 50 54 58 61 63 63 61 58 60 62 60 57 56 56 59 62 62 59 64 59 56 54 51 47 46 43 40 39 38 36 37 36 35 36 37 39 39 40 40 43 44 46 48 49 50 52
37 37 37 37 40 42 44 48 53 59 63 65 65 61 60 61 62 59 56 56 57 59 60 59 57 62 64 59 62 56 51 51 48 42 41 39 39 38 38 37 37 38 39 41 41 41 42 42 44 45 48 51 54 56
40 39 39 42 44 46 47 50 56 58 60 61 61 61 62 61 58 58 58 56 59 60 60 61 59 68 63 58 59 54 51 48 46 45 43 40 40 40 38 39 39 39 40 41 44 43 44 45 47 50 52 54 56 57
43 44 43 43 47 49 52 56 59 61 62 63 65 63 58 57 57 60 58 60 59 56 59 58 64 69 60 58 58 52 51 49 46 44 43 42 43 41 41 40 41 42 43 44 45 45 47 45 49 50 51 54 58 59
49 50 49 48 51 51 54 56 58 59 61 60 58 58 57 57 59 62 65 62 58 58 57 60 67 69 59 55 58 55 52 50 46 45 44 45 44 44 43 42 42 45 44 45 44 45 47 46 50 55 58 61 63 64
51 51 51 54 52 53 55 56 57 59 60 58 54 55 59 62 65 66 61 60 59 57 57 60 66 66 59 55 55 54 53 51 49 46 44 44 46 46 45 45 45 48 47 48 46 51 54 56 59 62 65 66 69 74
50 49 50 50 52 52 54 55 55 55 57 58 61 61 62 61 59 58 57 59 58 56 60 62 65 64 58 57 55 54 53 52 51 48 45 46 47 47 46 46 50 50 50 53 56 59 60 64 65 68 71 74 78 82
51 49 48 48 49 52 51 53 53 53 54 52 55 58 59 57 59 57 54 54 55 56 61 62 63 59 57 57 56 54 51 51 52 48 46 45 46 47 46 51 54 56 57 60 62 66 66 68 71 74 78 81 84 87
42 44 46 43 43 45 45 45 46 47 42 49 55 54 52 52 56 55 57 57 50 50 58 62 60 57 57 55 56 55 53 52 51 50 52 52 51 52 56 59 60 62 62 64 65 67 70 74 78 81 83 84 86 88
37 37 38 34 35 36 37 41 44 45 48 47 46 44 48 52 54 51 50 46 40 49 56 63 61 58 51 49 50 53 55 54 52 54 55 53 54 58 61 62 63 64 63 65 69 73 76 79 83 84 86 87 89 90
34 30 29 30 30 33 36 43 46 47 45 42 41 45 46 42 43 44 42 43 43 48 47 51 59 59 55 55 54 54 55 53 54 56 57 56 58 64 64 63 64 65 69 73 75 77 81 84 86 88 89 91 94 101
30 28 23 24 28 33 36 41 43 42 42 43 44 47 44 41 39 38 39 42 48 52 51 49 51 56 57 56 55 55 58 58 55 57 60 58 64 68 68 69 69 70 73 76 79 82 83 85 88 90 94 99 103 104
29 27 25 24 27 34 36 37 40 42 43 43 43 44 42 38 36 38 41 43 48 56 54 56 55 53 53 55 56 58 59 60 62 63 63 64 71 71 70 72 74 75 78 80 82 84 87 90 94 98 101 104 103 104
32 29 27 27 31 33 35 36 38 41 44 44 44 43 40 38 37 42 46 46 46 48 55 53 58 63 60 59 58 60 60 60 60 62 65 70 71 72 74 76 77 79 80 82 86 90 95 98 101 101 101 103 106 109
33 32 31 29 33 35 36 39 42 44 46 44 42 43 41 40 41 41 42 47 51 51 52 55 56 60 63 63 63 64 66 68 67 67 70 71 70 71 74 76 79 82 86 90 93 96 97 98 100 102 104 107 112 116
36 36 36 35 34 37 39 42 45 46 47 46 44 44 44 44 42 41 37 39 42 47 52 57 59 61 63 64 64 65 65 64 66 69 70 71 74 77 80 83 86 89 90 91 91 93 96 100 103 107 111 114 115 115
32 35 37 36 38 37 41 46 48 49 48 48 47 43 43 47 46 44 45 44 43 44 49 54 58 61 60 64 67 69 72 73 73 74 77 79 80 82 85 86 87 88 90 93 96 100 104 107 109 110 110 111 111 110
36 38 40 41 42 42 45 46 51 52 50 48 47 48 49 51 51 51 50 50 51 49 49 49 50 52 56 60 64 67 69 71 73 74 75 77 79 82 85 88 91 94 97 100 104 105 105 106 107 106 106 106 107 108
41 41 43 42 44 46 50 51 51 50 49 50 51 51 51 52 53 54 54 54 53 52 52 52 53 55 57 59 62 65 67 70 72 75 78 80 83 87 92 96 99 100 100 101 101 102 103 105 104 104 105 108 111 113
45 47 47 48 49 52 54 54 53 54 54 56 57 57 56 57 57 58 58 58 58 59 59 60 62 62 64 66 69 71 75 78 81 84 87 90 93 94 94 95 96 96 98 99 101 103 103 104 104 107 111 112 110 108
48 49 50 53 54 55 56 58 59 60 59 60 59 60 60 60 61 62 63 63 64 66 67 68 69 71 71 72 75 77 80 83 85 86 88 89 91 93 94 94 97 98 99 101 102 103 104 106 108 108 107 106 105 103
46 50 52 54 58 58 59 62 63 63 63 63 63 62 62 62 62 63 65 65 66 66 68 69 70 72 75 77 79 80 82 83 85 87 88 91 93 94 95 96 98 99 99 100 101 104 104 103 102 101 101 99 96 92
47 48 50 52 57 61 63 62 64 64 64 64 63 63 64 65 66 67 67 68 70 71 73 74 76 78 78 79 81 82 84 86 87 88 90 92 93 94 96 97 98 99 101 101 100 99 99 98 97 95 92 88 85 83
48 49 49 51 54 59 60 62 64 65 65 66 66 67 67 67 69 71 73 74 75 75 75 77 78 79 80 81 83 84 85 86 87 89 90 91 93 94 95 96 95 95 95 95 94 93 93 90 87 84 82 80 78 77
47 49 50 54 55 57 59 60 62 64 66 68 69 70 70 71 72 74 75 75 77 78 78 78 79 79 80 81 82 84 85 87 89 91 92 92 93 92 92 91 91 91 90 89 87 84 81 80 78 76 75 73 72 70
51 53 53 55 56 57 59 60 62 64 66 67 69 70 70 71 72 72 72 74 75 76 77 78 79 80 82 83 85 87 89 90 91 91 89 88 88 88 87 88 86 83 79 77 76 75 74 73 71 70 69 67 66 65
54 55 57 58 59 60 62 62 63 64 65 67 68 69 70 70 71 71 73 74 76 77 78 79 80 82 84 86 88 88 86 85 85 85 84 84 82 81 78 75 73 73 72 72 71 70 69 68 67 65 64 62 61 60
52 55 56 57 58 60 61 63 64 65 65 66 67 69 70 71 72 74 76 76 76 77 78 79 80 80 81 82 82 81 81 81 80 79 76 74 73 71 69 68 67 67 66 66 65 64 63 63 62 61 59 58 57 57
43 45 47 48 50 52 55 57 59 60 61 61 61 62 64 65 66 66 67 69 70 71 73 75 75 75 75 74 73 73 72 71 71 70 68 68 67 66 65 65 64 64 62 60 59 59 58 57 56 56 55 55 54 54
45 45 47 48 48 49 50 52 54 55 56 57 58 59 60 60 61 61 62 64 65 66 66 65 65 64 64 64 64 64 64 63 63 63 62 62 62 61 60 59 58 57 56 55 54 54 55 54 54 54 53 53 52 51
43 44 45 46 47 48 48 49 50 51 52 52 52 53 53 53 53 53 53 54 55 56 57 58 58 58 58 58 58 58 58 58 58 58 57 56 55 54 53 54 53 54 54 54 53 52 52 52 51 51 50 49 48 47
37 39 39 40 41 42 42 43 44 44 44 44 44 44 44 45 46 47 47 48 49 50 50 51 51 51 52 52 52 52 52 52 51 50 50 50 50 51 52 53 52 52 51 50 50 50 49 48 47 46 46 46 45 45
32 33 34 35 36 36 37 37 38 39 39 38 38 38 39 40 41 42 43 44 44 44 45 45 46 46 46 46 46 46 47 47 48 49 50 50 50 50 49 49 49 49 48 47 47 46 46 46 45 45 45 44 44 43

GFSWCAN_250_spd_051.txt.gz
Wind_Speed
24 26 28 32 35 39 42 45 47 48 50 53 53 56 62 67 63 67 72 69 68 68 68 70 77 79 82 79 73 69 70 66 49 50 48 37 43 50 45 47 41 37 37 41 40 38 35 35 36 39 40 41 42 44
23 26 29 32 35 36 38 40 41 41 44 47 51 55 64 56 59 67 67 69 68 65 63 63 67 67 71 72 70 68 69 64 63 62 53 40 45 51 47 45 42 38 41 43 40 40 38 35 37 46 42 42 44 48
25 27 29 30 32 34 35 36 39 42 45 49 52 58 52 54 56 60 66 64 58 57 60 60 61 60 54 51 49 50 56 57 56 55 55 51 47 51 50 48 43 42 43 46 43 41 38 40 44 46 46 45 47 51
24 26 28 29 29 30 32 35 38 42 45 49 53 52 56 58 62 60 53 54 52 52 53 50 45 46 38 32 39 38 47 51 53 51 54 51 47 52 52 49 45 45 45 47 45 41 42 44 47 49 50 48 50 53
26 26 27 29 32 33 35 37 40 43 47 52 55 58 61 62 59 57 52 41 37 37 41 29 31 42 44 34 33 34 50 49 44 54 54 50 49 53 53 50 45 44 48 48 46 44 45 46 47 50 51 52 55 58
31 29 29 31 33 35 40 45 47 51 54 59 63 63 60 59 58 59 66 54 53 43 51 64 64 58 44 35 39 57 52 55 50 50 39 45 52 51 52 50 46 47 49 49 48 48 48 50 51 52 54 56 59 60
36 35 34 36 37 38 40 46 52 55 58 61 61 61 60 62 64 69 65 69 62 56 53 65 68 60 48 42 50 62 55 56 55 56 56 50 54 50 51 49 49 49 52 50 51 52 52 54 54 54 57 59 61 64
39 39 39 38 39 42 41 43 49 56 60 61 61 60 60 59 56 55 53 56 61 68 62 51 47 48 46 44 46 53 54 55 59 57 56 56 54 49 47 49 51 50 52 53 53 52 54 56 57 58 60 63 67 71
36 38 37 38 39 39 43 43 46 50 54 58 60 60 61 61 60 61 60 54 50 54 49 47 45 45 47 46 45 47 51 53 58 58 57 57 50 45 46 52 56 53 54 58 56 56 58 59 61 63 67 69 72 76
38 36 36 37 35 35 39 40 43 48 52 54 56 59 61 62 62 63 63 57 53 51 51 45 41 42 42 42 43 48 53 56 57 56 57 51 42 42 45 53 58 57 59 59 60 59 62 64 66 70 73 74 77 78
32 35 36 34 33 36 37 35 38 40 44 48 47 50 52 59 62 61 56 54 52 50 51 43 35 36 40 44 48 50 52 55 57 58 56 49 44 46 51 54 56 60 60 60 61 63 65 67 70 72 72 75 78 82
23 27 30 31 34 35 34 34 33 31 32 36 42 46 48 50 49 47 49 52 47 47 52 45 33 26 32 41 44 46 50 53 55 57 55 49 50 52 52 53 57 60 62 63 64 66 68 69 71 74 78 81 84 87
19 19 22 24 27 26 25 28 31 34 33 32 32 32 32 32 37 40 43 46 45 40 39 38 40 39 37 38 42 47 48 50 51 56 57 57 57 57 59 61 62 62 62 64 66 69 72 75 77 79 81 84 87 90
16 18 19 20 22 25 28 29 28 27 26 26 26 26 28 30 34 35 35 35 34 33 33 35 38 39 40 41 41 42 46 48 49 52 55 61 65 66 66 65 63 62 65 68 71 74 77 79 81 82 85 88 91 95
12 13 18 19 22 23 26 29 30 30 30 28 27 25 27 29 29 30 31 30 32 34 35 32 36 39 38 38 39 42 46 47 52 56 59 63 66 68 67 66 67 70 73 75 76 77 79 82 85 87 90 93 94 98
8 13 12 15 18 21 24 28 28 29 30 31 29 29 29 29 31 34 32 32 32 31 33 35 36 38 39 38 39 40 43 48 53 54 54 55 60 65 69 68 68 71 73 76 79 82 84 87 89 91 93 97 101 105
12 11 13 13 16 21 22 25 27 29 30 29 29 31 34 36 36 35 34 34 35 38 40 41 41 41 42 40 41 41 41 45 48 50 54 57 60 63 65 68 72 76 77 80 82 85 87 89 92 96 99 100 102 104
22 22 20 16 16 19 25 26 27 30 32 33 33 34 35 38 39 40 42 43 42 40 39 39 42 43 44 45 46 47 49 51 52 54 56 58 62 65 68 71 74 78 81 83 85 87 89 93 95 95 97 100 104 108
28 27 25 23 21 22 23 25 31 33 33 34 35 37 41 44 45 46 47 49 50 49 47 46 45 44 46 47 49 51 52 52 54 55 58 61 64 67 69 71 73 76 78 82 85 87 90 93 97 99 103 108 110 112
32 31 30 27 24 26 27 29 31 36 39 40 41 42 43 46 48 49 47 47 49 51 52 51 50 51 52 53 55 56 56 58 61 64 65 66 67 71 74 76 78 80 83 85 89 93 96 99 102 106 107 109 110 109
40 37 36 35 34 30 30 33 36 37 40 43 45 48 48 48 49 51 53 53 55 55 56 57 58 60 60 60 60 61 63 65 68 70 72 75 76 77 79 81 83 86 88 92 95 97 100 102 104 106 108 108 107 106
41 39 40 43 38 37 37 37 39 43 45 46 48 50 52 55 58 60 61 62 63 63 64 64 65 64 64 65 66 68 70 72 74 76 78 79 81 82 83 85 88 91 94 95 97 100 101 103 103 103 103 103 100 100
45 43 42 44 47 45 42 42 42 45 48 51 53 56 57 58 59 61 63 65 67 68 68 69 70 70 71 72 74 75 76 76 77 79 82 84 85 87 89 92 94 96 98 99 99 100 101 101 100 99 97 96 96 95
47 51 48 49 49 48 49 50 48 47 48 49 52 56 59 62 63 64 65 67 71 73 74 74 76 77 77 77 78 78 79 80 82 83 85 87 90 92 94 95 97 98 98 99 100 99 98 97 94 93 93 91 88 87
48 47 48 48 50 51 51 52 52 53 52 52 54 56 59 60 63 65 66 68 70 72 74 74 75 76 76 77 79 81 83 85 87 88 89 91 93 95 96 95 95 95 95 94 94 93 91 90 89 87 84 82 82 81
51 51 52 54 54 53 53 54 54 55 56 57 57 59 61 63 64 66 67 67 68 70 72 74 75 77 78 79 81 82 84 86 88 89 91 91 91 92 92 91 91 89 89 88 86 85 83 81 80 79 79 79 78 77
52 52 53 54 56 56 56 56 56 56 57 58 59 61 62 63 64 65 66 67 68 69 71 72 73 75 78 80 81 82 82 83 84 85 85 86 86 85 85 85 85 84 83 81 79 78 77 77 76 76 75 74 71 70
50 51 51 52 53 54 56 56 56 57 57 58 58 59 61 62 63 65 67 67 68 68 69 71 72 73 74 75 76 77 78 79 79 79 79 79 80 79 79 78 76 76 76 76 75 75 74 74 72 71 69 69 69 68
46 47 48 49 51 52 53 55 56 56 58 58 59 59 60 59 60 61 62 63 64 66 67 68 69 70 70 70 70 70 72 73 73 73 73 73 74 73 73 73 72 72 72 71 71 70 68 68 67 67 66 66 65 64
46 47 48 48 49 50 51 52 53 54 55 57 57 59 60 61 61 61 61 62 63 64 65 65 65 66 67 67 68 68 69 69 69 69 69 69 69 69 69 69 68 68 67 66 65 65 64 65 64 63 62 61 61 59
44 45 46 46 47 47 47 49 50 51 52 52 52 53 53 54 55 56 57 58 59 61 61 61 62 62 63 63 63 63 63 63 64 63 63 63 63 64 64 63 63 64 64 64 63 62 62 61 59 58 56 55 54 54
38 39 40 42 43 44 45 46 46 47 48 48 49 50 50 50 51 52 53 53 53 54 54 54 54 55 55 57 57 57 58 58 58 58 58 59 59 59 59 59 59 59 59 59 58 56 55 54 53 53 51 50 49 48
33 33 34 35 36 37 38 39 40 41 41 41 41 42 44 45 45 46 46 46 47 48 49 49 50 51 51 52 52 53 54 54 55 55 55 55 54 55 55 54 53 53 52 51 51 50 49 49 49 48 47 46 45 44

GFSWCAN_250_spd_054.txt.gz
Wind_Speed
18 23 28 34 36 37 39 40 44 47 49 51 53 52 55 63 67 73 77 83 87 89 87 86 86 82 82 82 79 75 74 66 65 67 65 67 54 49 47 57 52 41 42 43 40 38 35 39 39 40 41 40 40 40
18 23 27 31 32 31 34 39 42 45 47 48 49 52 57 61 64 67 74 77 81 82 81 80 77 79 75 74 73 74 69 68 67 69 63 62 57 60 60 52 48 42 43 46 43 39 38 40 42 43 45 44 44 44
19 21 24 28 31 33 36 38 40 42 43 46 50 52 55 61 61 62 70 73 75 76 74 74 76 74 72 72 71 67 67 67 71 68 66 66 62 57 59 42 42 41 42 49 43 42 42 43 45 45 45 48 50 50
17 21 25 26 29 32 35 37 39 41 43 47 51 54 55 58 59 64 66 67 69 69 64 66 67 68 67 65 62 60 57 58 51 53 54 56 64 67 66 56 49 46 46 49 47 47 45 44 46 47 48 49 51 53
22 23 24 28 30 32 36 39 40 42 45 49 54 56 58 58 57 57 60 62 62 61 59 59 59 56 53 51 50 50 47 45 49 49 50 50 59 62 58 55 51 48 49 52 51 50 49 47 47 48 50 51 53 55
25 24 25 27 30 34 38 41 44 49 53 54 57 58 58 58 57 55 54 54 54 56 55 53 48 47 44 41 39 38 33 38 38 34 41 47 54 52 55 54 49 49 52 52 53 51 51 49 48 47 49 52 55 57
26 26 28 30 34 36 41 45 47 50 56 60 62 63 62 60 56 51 50 49 49 46 46 47 47 44 43 41 40 30 27 24 28 31 39 40 45 50 48 47 51 52 52 52 53 54 53 50 49 50 53 55 58 60
29 29 28 29 33 37 40 44 50 55 58 63 65 64 62 62 61 58 54 49 46 46 47 46 46 49 53 45 40 36 30 20 31 46 55 43 36 39 40 43 49 52 52 53 52 53 54 53 52 53 54 56 58 60
36 34 34 30 30 34 38 43 52 59 64 67 69 67 67 67 63 58 46 38 43 44 45 55 53 57 55 55 51 47 49 50 51 53 61 59 53 52 54 53 48 52 56 55 53 54 54 55 56 57 58 60 61 64
44 40 39 39 35 36 41 46 52 59 64 68 70 72 73 70 68 66 53 47 43 51 53 52 53 49 54 47 62 60 53 58 62 62 64 67 69 68 62 59 61 59 57 56 54 53 56 58 61 63 64 64 67 68
43 42 42 42 40 37 37 44 49 55 60 62 65 69 75 75 74 70 54 45 56 56 60 55 49 50 51 46 47 56 63 64 67 69 70 71 67 66 60 59 57 59 59 56 53 52 53 56 59 62 67 69 71 74
41 41 39 39 38 37 38 41 46 48 51 60 60 59 60 64 65 64 62 57 54 61 61 60 54 51 48 46 47 51 55 58 58 59 59 54 53 55 57 57 58 62 62 57 55 54 56 57 60 64 68 71 75 79
29 35 37 38 36 33 30 32 37 47 50 48 48 49 48 46 50 55 57 57 50 55 56 56 53 50 42 33 37 41 43 42 41 38 38 40 47 54 60 62 62 65 65 62 61 61 62 64 66 69 73 77 79 81
27 26 30 32 31 32 30 29 30 30 32 36 40 47 47 49 54 60 59 56 50 48 44 44 45 42 40 33 25 23 26 32 34 36 39 46 54 59 62 64 64 67 70 69 69 68 70 74 76 78 78 81 85 88
19 20 22 24 27 32 33 32 26 24 22 22 23 26 35 37 42 47 48 47 44 43 42 40 36 35 39 42 39 38 35 35 36 39 46 51 56 59 60 61 62 64 68 72 75 76 78 79 82 83 86 87 90 94
15 14 14 15 16 19 21 25 28 31 33 31 30 31 31 27 31 35 39 40 39 44 43 38 37 38 40 41 42 42 41 43 45 47 48 52 56 58 59 61 63 64 66 70 73 75 77 79 82 85 88 91 94 96
14 16 16 13 14 17 17 17 17 17 19 23 23 23 23 25 26 27 28 29 30 33 35 37 38 38 38 39 42 44 45 47 47 47 49 50 52 55 58 59 59 59 62 66 70 75 78 81 83 86 89 89 89 90
19 16 13 15 18 18 18 21 25 25 26 26 28 30 33 35 36 35 36 36 38 39 40 42 45 45 45 46 46 46 47 48 48 49 50 52 52 53 55 57 60 63 66 69 72 75 79 81 81 82 85 90 93 95
15 14 20 18 17 19 24 25 27 29 31 31 32 32 31 32 32 34 35 37 40 42 43 45 45 45 45 45 45 47 48 50 51 53 55 57 58 59 61 64 66 68 70 72 74 77 80 83 85 89 92 93 95 97
24 22 21 20 20 23 24 25 29 31 34 35 36 37 37 36 36 36 38 39 40 41 42 44 45 47 48 49 49 51 53 54 55 57 58 60 62 64 66 68 70 73 76 80 82 85 87 90 93 95 95 95 97 100
28 25 25 26 29 29 28 29 31 32 34 36 39 40 41 42 43 43 44 45 46 47 48 50 51 54 56 58 60 61 62 63 64 65 66 67 68 70 73 76 79 82 83 86 88 90 93 94 95 96 97 98 99 101
39 36 35 33 32 33 34 34 35 37 37 39 41 43 45 46 47 49 50 52 53 55 57 59 61 62 63 64 65 67 68 70 71 73 74 75 77 79 80 82 85 86 87 89 91 92 93 95 96 97 99 100 101 102
46 43 43 41 40 39 38 38 40 42 43 43 46 49 50 51 53 55 57 59 61 63 64 65 67 68 69 70 72 73 75 76 77 78 80 81 82 83 84 85 86 88 89 90 92 94 95 96 98 99 98 99 99 99
46 47 44 42 40 41 42 42 42 44 46 45 45 46 49 53 56 59 60 62 64 65 66 67 68 69 70 71 73 75 76 77 78 80 81 83 84 85 86 87 88 89 90 91 92 94 95 94 94 95 95 95 94 94
46 46 45 45 44 45 45 48 48 47 49 51 52 53 55 55 56 57 59 60 62 64 65 67 69 71 72 73 75 76 77 78 79 80 80 81 83 84 85 86 88 89 89 89 88 89 90 89 90 90 89 88 86 84
54 52 51 51 51 51 52 52 53 55 56 55 55 56 56 57 58 59 60 61 61 62 63 64 66 68 69 71 72 73 74 75 76 77 78 79 79 80 81 82 82 82 84 85 85 85 86 85 84 82 80 78 76 75
52 53 52 52 53 52 52 54 57 57 56 55 55 55 56 57 57 58 59 60 62 63 63 64 65 66 68 69 69 70 71 73 74 75 77 77 78 78 79 80 81 81 81 81 80 78 77 75 73 72 71 70 69 69
44 47 50 50 50 49 50 51 53 55 56 57 56 56 57 56 57 57 58 58 59 59 59 59 60 62 63 65 66 67 69 70 72 73 73 73 74 75 76 76 75 75 74 73 71 70 70 70 69 68 67 67 66 65
37 38 40 41 43 45 46 46 47 48 50 52 53 54 54 54 55 56 56 56 57 57 58 59 60 61 62 63 63 63 63 65 66 68 69 69 68 67 68 68 67 68 68 67 67 67 66 65 64 64 64 63 63 62
37 37 38 40 41 42 43 44 45 45 47 47 49 50 51 52 53 54 55 55 54 54 56 57 57 56 58 60 61 61 62 63 63 62 62 63 64 65 64 65 64 63 63 62 62 61 61 61 61 61 61 60 59 59
35 35 36 36 37 38 40 41 41 42 43 45 45 46 46 47 48 49 51 52 52 53 54 54 55 55 55 55 55 56 56 56 57 58 58 59 59 59 59 59 59 59 59 60 60 60 60 59 58 57 55 54 54 53
31 32 33 34 35 36 37 37 37 37 39 40 41 42 43 44 44 44 46 46 45 45 46 47 47 48 49 50 51 52 52 53 53 53 52 53 53 54 55 56 56 56 56 56 56 56 55 54 54 53 51 49 48 47
28 28 29 30 31 32 33 34 34 33 34 35 35 36 37 38 39 39 40 40 41 42 43 44 45 46 46 47 48 48 48 48 49 50 50 51 51 52 52 52 52 51 51 51 51 51 50 49 49 48 47 46 45 44

GFSWCAN_250_spd_057.txt.gz
Wind_Speed
11 17 23 30 35 37 39 40 44 48 50 53 54 57 60 61 61 71 79 82 88 92 91 91 87 81 82 81 80 78 75 66 66 62 61 61 60 53 50 46 50 58 66 62 60 47 36 45 45 45 45 42 41 38
9 17 22 27 32 34 35 38 42 44 46 48 48 50 52 51 60 70 73 78 83 86 85 84 83 81 78 76 77 81 71 69 69 65 61 59 55 53 51 50 56 60 62 61 58 47 39 45 47 46 46 44 43 42
9 14 20 27 33 35 37 38 39 40 42 42 44 45 47 53 60 67 72 76 78 78 81 83 83 82 77 74 74 71 71 70 69 64 62 63 65 62 58 59 60 61 60 59 50 39 40 43 47 49 48 47 46 46
13 16 20 25 28 30 32 35 38 40 41 43 45 48 53 56 62 61 63 69 73 75 76 80 79 78 77 71 71 69 71 70 68 65 64 65 64 59 57 60 63 62 63 56 46 49 51 46 48 50 52 51 50 49
16 17 20 23 27 30 33 35 36 38 41 45 51 57 61 64 62 60 65 69 71 71 69 72 76 77 76 76 72 69 69 66 66 65 64 66 62 57 56 56 56 59 56 55 47 49 46 48 51 52 54 55 55 55
19 19 21 23 25 28 31 33 36 40 44 49 55 60 62 62 61 61 64 65 64 64 65 67 66 66 69 70 68 67 64 69 71 67 65 64 60 56 53 49 56 58 59 60 56 52 53 52 52 54 55 56 56 58
22 21 21 24 26 29 32 36 40 44 47 51 55 60 63 64 62 60 57 56 60 62 59 60 57 58 58 60 64 64 64 64 63 61 59 57 55 54 49 47 55 58 64 69 64 61 57 58 54 55 57 57 59 60
22 23 23 26 28 32 37 42 47 49 54 58 61 64 67 69 66 64 63 62 59 58 55 51 49 50 51 51 51 53 52 52 51 48 46 46 46 44 43 49 55 61 61 57 59 60 59 59 57 56 57 57 59 61
25 24 26 27 30 33 36 41 46 52 56 59 62 65 66 66 64 63 61 59 55 50 48 46 43 42 45 42 44 45 45 44 43 40 42 40 43 47 44 47 44 47 46 41 43 48 53 57 57 58 60 59 59 62
29 28 28 29 32 34 37 42 48 54 59 62 64 65 66 65 64 61 55 50 48 47 47 47 46 42 43 43 43 44 37 48 44 41 43 43 42 47 46 55 47 43 47 49 48 50 55 58 57 57 59 60 61 63
34 32 33 33 36 41 47 52 56 59 61 62 63 63 61 58 57 55 54 52 51 50 48 48 49 49 46 52 54 56 55 52 50 50 50 56 56 57 62 63 54 54 56 58 61 61 63 68 69 67 62 60 63 64
40 34 31 33 38 43 50 53 58 63 63 63 62 61 59 59 57 55 54 53 51 49 48 51 54 60 60 60 64 59 57 57 57 56 52 50 52 57 61 59 60 60 64 68 72 77 69 60 60 64 64 64 69 70
45 39 36 35 33 33 36 46 53 57 60 61 62 61 59 58 58 55 52 48 48 50 51 51 56 60 55 56 61 58 50 54 59 59 60 58 60 64 66 65 68 69 74 77 77 66 61 61 63 65 68 72 77 78
38 37 35 31 32 35 38 40 42 48 51 53 57 59 55 52 49 46 46 47 51 50 49 51 53 56 54 50 55 53 53 60 55 52 58 66 70 71 70 74 75 77 72 64 61 61 63 66 69 72 74 76 80 84
32 30 27 31 29 28 26 29 31 32 37 39 48 53 53 51 49 53 49 47 46 47 51 53 55 52 51 48 44 43 45 45 46 45 47 50 52 55 57 57 58 58 59 58 58 62 66 68 68 69 70 73 76 80
25 23 23 24 21 18 21 20 21 24 29 32 33 32 38 43 40 44 45 43 40 40 40 45 50 50 49 45 46 46 46 49 51 48 42 42 42 44 46 49 52 54 57 59 62 65 67 68 69 72 76 79 82 84
26 25 18 17 17 16 14 13 13 13 15 16 22 15 18 32 30 35 35 32 32 33 38 36 38 47 49 48 48 48 49 53 56 55 52 50 49 50 52 53 55 57 59 61 64 67 70 73 77 78 79 81 82 83
17 23 23 21 20 19 18 17 16 17 19 15 20 24 21 28 34 28 28 35 32 33 37 39 42 44 48 49 47 47 47 47 48 49 49 49 52 55 57 59 61 63 64 66 68 70 72 74 76 78 80 82 84 85
11 11 15 20 23 23 24 27 27 29 32 31 33 36 33 33 38 45 44 39 39 40 40 43 43 44 47 49 49 49 50 51 52 53 53 55 57 59 61 62 64 66 68 71 72 74 76 78 80 81 83 86 89 92
17 16 13 13 14 16 19 23 24 26 28 29 29 29 29 29 30 33 33 33 36 38 41 43 45 46 47 49 50 52 55 57 57 58 59 62 62 63 65 66 67 68 70 73 75 77 79 82 84 87 90 93 95 97
23 22 22 21 20 21 20 21 24 26 30 33 35 36 37 39 40 41 41 41 43 44 45 45 47 49 52 54 55 56 57 59 61 63 65 67 68 69 71 72 74 75 77 79 82 84 86 89 92 94 96 98 100 100
30 29 27 28 28 28 31 32 32 33 34 35 36 38 40 42 44 45 47 48 49 49 50 52 53 55 57 58 59 60 62 63 65 67 68 69 71 72 74 76 77 80 83 85 88 90 93 95 96 97 98 98 98 98
38 37 36 36 36 36 36 37 39 38 37 39 40 41 41 43 44 46 48 50 53 54 55 57 58 59 60 61 62 63 64 65 66 68 71 73 75 76 78 80 83 85 87 88 88 90 91 91 92 92 92 93 92 92
46 45 45 44 43 41 40 41 41 45 47 48 47 47 47 48 48 48 50 52 55 57 59 61 62 63 64 65 66 68 69 71 73 74 75 77 79 80 81 82 83 83 83 83 83 84 85 86 87 88 88 89 90 91
52 50 50 51 50 49 47 47 47 47 47 49 52 54 52 54 56 56 57 58 58 58 61 63 65 66 67 67 68 70 71 72 73 73 73 74 75 77 77 77 78 80 80 81 82 83 84 85 85 86 87 88 88 88
52 51 51 50 51 52 50 48 48 48 48 48 50 52 54 54 54 55 56 57 59 61 63 64 65 66 67 67 69 69 69 69 70 71 72 73 74 74 75 75 75 76 78 79 80 80 81 83 84 84 83 82 80 79
52 52 49 48 50 49 50 50 50 51 51 52 53 53 54 55 55 56 56 56 57 58 59 61 62 62 62 63 64 65 66 67 68 68 68 69 70 71 72 73 73 74 76 77 78 79 79 78 76 75 73 71 70 69
46 48 49 51 52 52 53 53 54 54 55 56 57 58 59 60 60 60 59 58 56 56 56 57 57 57 58 58 60 61 62 64 65 67 67 68 68 69 70 71 72 73 73 72 71 70 70 70 69 67 67 66 67 65
37 38 39 41 43 46 47 49 51 53 53 54 54 54 55 56 57 58 57 56 55 55 55 55 55 56 56 58 59 60 60 60 61 62 63 65 66 67 67 67 67 67 67 67 66 66 65 65 65 65 64 63 61 60
36 36 37 38 40 42 43 43 44 45 46 46 47 48 49 49 50 50 51 51 52 53 52 52 53 52 53 54 56 57 59 60 60 61 61 61 61 61 61 61 61 61 61 61 61 61 60 60 59 58 57 57 57 57
31 31 33 34 35 36 36 37 37 38 39 40 41 42 43 43 44 44 45 46 48 49 50 50 51 52 53 53 54 54 55 55 55 55 56 56 56 56 56 56 56 56 57 57 57 57 56 55 56 55 55 54 53 52
30 31 31 32 33 33 33 34 35 36 37 38 38 39 40 41 42 43 43 44 45 46 46 46 46 46 46 47 47 48 48 48 49 49 50 51 51 52 52 53 53 53 53 53 54 54 54 54 53 52 51 50 49 48
29 29 29 29 30 31 31 32 32 33 34 34 35 36 36 37 37 37 38 39 39 40 40 40 41 41 42 42 43 43 44 44 45 45 46 47 47 48 48 48 48 49 50 50 50 50 50 50 49 49 48 47 46 44

GFSWCAN_250_spd_060.txt.gz
Wind_Speed
10 11 15 20 25 30 36 40 42 46 49 52 53 53 55 57 59 56 62 70 72 78 88 93 95 92 91 91 87 85 85 77 70 67 60 59 57 54 55 52 51 52 56 57 52 49 48 54 49 53 50 36 39 41
5 9 14 20 25 31 35 38 40 42 45 46 48 48 50 51 51 52 58 64 65 77 82 90 88 88 88 88 89 89 82 79 73 70 63 61 57 59 55 54 54 55 56 54 54 49 52 55 56 56 46 38 37 42
5 9 13 18 24 29 32 34 36 38 41 41 41 42 44 44 46 52 58 62 66 76 84 88 91 90 88 87 87 82 79 76 72 70 69 67 64 61 59 59 61 60 58 58 54 53 56 59 55 57 45 45 42 42
9 12 15 19 23 27 29 32 34 36 36 36 37 39 41 45 50 55 57 61 69 74 79 86 92 91 88 85 84 78 74 70 67 67 67 63 63 64 63 63 62 56 55 55 55 54 58 63 59 52 48 46 46 42
12 15 18 20 23 26 28 30 31 32 32 34 37 40 44 49 55 58 61 65 73 80 82 86 90 95 91 87 82 78 74 69 66 63 59 61 62 63 65 63 55 54 53 56 55 60 62 61 57 56 44 44 48 50
12 16 19 22 23 24 25 27 30 32 34 37 41 46 51 55 58 60 66 71 73 71 76 80 83 88 89 88 83 78 74 70 67 63 62 60 56 59 61 57 55 57 57 59 61 61 61 61 63 63 58 49 50 56
15 14 16 17 19 21 23 26 29 33 38 42 47 51 55 55 55 55 54 57 63 67 71 73 77 82 84 83 79 75 71 69 67 66 64 62 60 61 60 58 58 61 59 57 58 61 62 65 66 66 70 68 68 64
18 18 18 19 21 23 25 28 31 36 42 46 49 51 52 52 55 62 65 64 66 64 64 65 66 71 75 75 73 71 69 67 67 67 65 62 63 61 57 59 63 63 62 61 61 61 64 68 68 69 67 62 55 56
21 23 23 23 25 26 28 31 33 35 39 43 47 50 52 55 60 58 58 61 58 55 54 54 56 57 60 64 65 66 66 68 67 67 66 65 62 57 56 59 62 57 55 57 59 59 63 65 65 58 50 46 49 52
19 22 22 25 26 29 31 34 38 39 40 42 43 47 53 57 55 55 58 56 54 53 51 49 48 50 52 52 52 54 59 66 63 62 63 63 60 59 61 61 61 57 54 56 63 64 61 60 50 46 49 49 50 59
22 20 18 19 21 25 28 33 39 41 43 46 50 50 49 51 54 55 53 50 49 48 46 45 45 48 49 50 51 51 50 49 52 53 55 55 53 55 54 55 57 61 60 61 62 62 54 51 53 56 56 60 68 67
31 26 22 19 18 19 22 31 38 45 48 48 48 49 50 52 51 50 49 49 46 46 45 45 47 47 49 50 51 48 45 44 45 45 50 49 49 50 49 55 59 62 61 62 57 57 58 62 66 64 68 73 77 79
33 25 24 22 25 26 30 33 40 45 49 51 54 53 51 47 46 47 44 42 41 42 41 43 46 48 50 52 50 45 37 39 49 51 48 52 55 58 59 59 63 63 61 62 65 65 66 69 67 71 76 84 86 84
34 29 23 25 26 29 34 37 40 45 49 49 45 45 44 47 48 47 48 47 46 46 45 47 50 52 53 55 57 54 56 54 54 56 58 55 57 58 58 59 60 63 61 63 66 68 68 70 77 81 81 87 85 78
32 29 27 26 31 36 37 38 39 44 49 52 53 54 53 52 51 49 48 47 48 50 52 53 55 53 54 55 56 58 60 55 58 57 61 59 57 56 59 64 65 65 68 70 72 74 80 85 88 88 84 75 72 73
36 31 27 26 23 23 29 31 36 35 38 42 45 45 47 47 46 46 48 49 49 49 49 51 50 49 50 53 57 59 56 62 67 62 60 56 58 62 64 68 71 68 70 71 74 77 76 71 70 69 69 70 72 75
22 24 28 24 24 22 18 19 21 18 25 27 37 39 42 43 46 46 45 45 47 46 46 44 42 44 48 52 62 62 60 55 54 64 64 62 63 67 68 67 66 63 64 66 65 65 65 67 69 70 73 76 78 81
12 12 12 16 19 17 10 10 15 11 10 15 20 14 18 31 34 33 36 43 42 38 41 42 41 42 47 47 46 49 55 56 54 52 53 58 57 58 61 66 70 74 76 73 67 66 68 71 74 78 80 82 84 85
19 11 12 10 7 7 12 16 13 8 12 6 11 14 12 14 22 22 18 17 17 16 21 25 26 33 34 35 34 36 41 48 55 59 59 60 59 60 61 63 65 67 67 68 70 72 74 76 79 83 84 85 86 89
18 16 21 24 27 19 16 21 18 14 15 17 18 20 24 24 22 21 25 29 32 31 34 34 34 35 39 43 46 49 51 52 56 61 61 63 65 63 63 64 67 70 72 75 76 79 81 83 83 85 88 90 93 94
22 21 21 23 26 28 31 30 28 29 29 28 34 30 31 34 38 42 37 35 39 42 43 43 44 44 46 48 50 52 53 53 54 56 58 61 64 65 67 69 72 74 76 78 80 81 84 86 88 89 90 92 93 95
25 24 24 25 24 26 27 29 28 28 30 33 35 36 36 36 39 43 48 46 45 46 45 47 47 48 50 52 53 55 57 59 60 62 63 66 69 71 73 74 75 76 78 79 81 83 84 85 86 88 89 91 92 92
33 34 35 32 31 30 30 31 31 32 32 34 35 37 39 41 44 46 47 49 50 51 52 52 53 53 54 55 56 58 60 62 64 66 68 70 72 74 76 78 79 79 80 80 80 81 82 83 85 86 87 89 91 92
38 38 37 39 40 39 40 40 40 39 39 40 41 41 41 42 43 44 46 47 49 51 52 53 54 56 57 59 61 63 64 66 68 70 71 72 74 75 76 76 77 78 78 79 80 82 83 83 85 87 87 87 88 90
47 46 45 44 44 45 45 46 47 47 46 46 46 48 49 50 49 49 51 52 52 53 55 56 57 58 59 61 63 64 65 66 66 67 68 70 71 72 74 75 76 77 78 78 79 80 82 83 84 86 87 87 88 89
54 52 53 52 52 51 50 51 50 51 52 52 52 54 56 57 58 58 58 61 64 64 63 62 63 65 67 67 68 68 69 69 70 72 72 72 73 73 74 73 73 75 77 78 79 81 82 83 84 85 85 84 82 81
57 55 53 52 54 54 54 53 54 54 53 53 53 52 53 55 57 59 60 60 60 61 64 66 67 66 66 67 67 68 68 68 69 69 69 70 70 71 72 73 75 76 77 78 78 79 80 81 80 78 76 74 72 71
54 55 55 54 52 52 53 53 53 53 53 54 55 55 55 55 57 58 59 60 61 62 63 64 66 66 67 67 66 66 65 66 66 67 68 69 69 70 71 72 72 73 74 75 75 73 72 72 71 70 69 69 68 67
45 45 46 48 49 50 51 52 53 55 57 60 61 61 62 62 62 62 62 62 62 62 62 62 62 63 63 63 63 63 63 62 62 63 64 64 64 66 68 69 69 68 68 67 67 67 67 66 67 66 65 65 64 63
42 42 43 44 46 47 49 50 52 53 53 54 56 57 56 56 56 56 57 57 57 58 58 58 59 59 59 59 60 60 60 61 61 62 63 64 64 63 63 63 63 63 63 63 63 62 61 61 60 60 60 60 59 58
39 38 38 38 38 39 40 43 44 44 44 44 45 46 47 48 48 49 50 50 51 52 52 53 53 54 55 56 57 58 58 58 58 58 58 58 58 58 58 58 58 58 58 57 58 57 57 56 56 55 54 53 52 52
32 32 33 35 36 36 37 38 39 41 41 42 42 43 44 44 45 46 45 46 46 47 47 49 50 51 51 52 52 52 51 52 52 52 52 53 53 52 52 53 53 54 54 54 54 54 53 53 52 51 51 51 50 48
29 29 28 29 30 31 33 34 34 35 36 37 38 38 39 39 40 40 40 41 41 41 42 43 43 44 44 44 44 45 46 46 46 47 47 47 48 48 49 50 50 50 50 50 50 50 49 49 48 48 48 48 46 45

GFSWCAN_250_spd_063.txt.gz
Wind_Speed
22 18 16 16 18 22 26 30 35 40 45 47 48 50 51 52 55 55 56 56 65 70 77 84 91 97 99 95 95 91 99 92 88 84 78 74 69 66 63 59 60 54 49 49 49 48 43 51 51 48 51 52 48 44
14 11 10 13 16 22 27 31 35 40 42 45 47 47 47 50 50 52 55 58 65 73 77 82 88 96 100 95 98 97 94 92 87 84 74 70 70 69 60 58 54 48 51 50 52 53 55 52 52 51 51 51 50 49
8 4 7 12 15 21 24 29 33 37 40 42 42 43 46 47 48 52 54 57 63 69 76 83 90 100 103 99 99 97 93 90 86 84 79 72 67 63 58 56 53 52 52 53 58 56 56 56 54 54 57 52 49 51
5 2 8 13 16 20 24 27 30 33 35 37 41 43 44 45 46 50 55 59 63 69 75 83 91 104 105 101 98 94 92 85 83 79 74 68 62 58 56 57 57 56 57 57 57 55 58 59 59 59 58 52 49 53
6 5 11 16 18 21 24 26 28 31 34 38 40 41 41 41 45 49 53 58 65 72 77 81 90 98 102 102 100 96 90 85 81 77 73 70 68 65 61 60 57 57 56 59 58 63 63 58 61 60 59 56 55 56
9 9 12 17 21 23 25 27 29 31 33 36 37 37 38 41 44 48 53 58 61 68 79 84 87 96 102 101 100 97 91 87 81 76 72 68 67 64 61 58 58 59 59 59 59 61 61 59 58 61 61 60 62 61
11 13 14 16 19 22 24 27 29 32 33 35 37 39 41 44 49 52 57 60 63 63 71 78 87 94 99 103 100 95 92 85 79 72 67 63 59 58 55 52 54 56 56 57 58 57 56 58 60 63 68 64 62 59
13 13 14 18 20 22 23 25 28 32 34 37 39 42 46 49 49 52 55 57 59 65 74 79 83 89 94 96 94 90 84 81 72 67 63 60 61 58 53 53 57 58 58 59 59 59 62 65 63 63 63 62 62 64
16 16 16 16 17 21 24 26 28 31 34 36 38 41 43 44 46 49 48 52 58 61 64 67 72 76 79 87 81 78 77 73 70 65 63 61 59 56 56 59 60 61 59 60 62 64 63 62 62 60 62 62 64 64
18 18 18 19 20 21 22 24 25 25 27 29 32 33 37 38 41 44 46 48 51 54 56 58 62 71 74 71 72 72 72 71 69 64 64 62 61 63 62 62 62 64 64 68 68 66 65 64 63 64 68 64 65 65
24 22 18 18 19 21 22 26 28 27 28 28 28 30 32 36 38 40 46 51 55 59 63 66 67 68 68 69 73 73 72 70 68 66 69 68 65 66 66 66 66 65 65 68 68 67 69 69 69 69 69 71 69 65
30 27 23 20 19 21 23 26 28 31 34 34 35 34 34 37 37 41 46 52 56 58 59 61 61 62 64 65 65 67 66 67 66 65 67 66 69 70 68 66 66 65 65 67 69 70 71 69 67 68 69 69 67 64
30 28 27 24 20 19 22 25 28 31 35 35 38 44 43 45 47 47 44 45 50 53 54 52 53 55 56 56 56 59 61 61 57 55 60 54 58 60 61 61 61 59 62 65 67 70 71 69 65 63 61 62 65 70
36 30 28 26 24 23 26 28 35 37 40 43 45 48 49 50 50 52 54 52 49 48 48 48 49 49 51 55 58 61 59 59 61 62 56 55 54 55 58 56 56 57 60 61 63 64 63 65 67 66 64 68 70 73
38 33 31 30 29 27 25 31 35 35 39 45 47 51 51 50 48 47 47 46 45 43 42 42 43 47 51 54 55 58 57 56 57 59 58 54 53 52 54 56 55 54 54 60 64 65 66 66 67 70 71 72 76 81
31 34 35 32 30 31 33 33 34 39 42 43 44 44 44 44 44 42 40 39 39 41 42 44 47 51 54 53 55 57 55 53 55 57 57 55 53 52 53 53 58 61 63 62 63 66 68 69 69 73 76 79 82 75
31 35 31 30 29 31 33 32 34 36 37 39 40 42 41 39 38 38 40 42 44 45 45 46 47 47 48 51 52 55 57 58 56 57 59 58 58 60 57 59 60 61 63 68 68 69 72 71 75 77 80 84 85 88
28 27 28 25 25 20 23 27 28 30 31 37 37 38 41 40 40 40 40 41 41 41 41 42 42 45 49 52 54 55 58 60 59 61 62 63 64 63 62 64 64 66 69 74 74 77 76 76 75 78 83 88 89 90
16 20 19 18 17 18 21 17 20 19 18 19 24 38 38 36 36 37 38 38 38 38 38 39 39 41 42 44 48 48 52 55 57 60 62 65 64 62 66 68 70 71 70 69 72 73 77 80 79 80 82 83 85 86
8 10 13 15 17 18 22 16 16 12 11 15 17 17 19 18 17 22 32 24 20 17 26 28 27 27 32 35 38 39 42 42 43 49 51 52 52 54 58 61 65 69 72 75 77 80 82 82 83 83 84 86 88 90
13 7 6 8 13 9 12 14 21 16 14 14 12 16 18 15 21 21 19 26 28 29 31 32 33 38 36 37 38 41 42 43 46 49 52 55 59 64 65 66 67 68 70 71 72 74 76 80 83 86 88 90 92 94
19 19 15 14 14 18 20 21 21 24 26 22 19 19 22 28 25 26 29 31 33 36 37 37 36 38 42 45 46 47 50 52 54 55 56 59 60 62 63 65 66 68 69 72 74 77 80 82 85 88 90 92 94 95
24 24 26 25 24 23 24 26 30 29 28 29 28 30 31 31 34 38 38 38 38 40 42 45 46 45 43 45 47 49 51 54 56 58 60 62 64 65 67 68 70 72 75 77 78 81 82 84 85 87 87 87 88 89
34 35 34 32 31 31 31 31 32 31 32 33 34 35 36 36 37 39 41 44 46 48 49 50 51 53 54 55 57 58 59 60 61 62 63 64 64 66 67 69 71 73 75 76 77 78 79 79 80 82 84 85 86 87
41 41 43 43 42 41 41 41 41 41 41 40 40 41 41 41 42 43 44 46 47 48 50 52 54 55 57 59 60 62 62 63 64 65 66 67 69 70 70 70 71 73 74 75 76 78 80 81 82 82 83 84 85 85
49 48 48 46 47 48 47 47 48 49 51 51 51 50 51 51 51 52 52 52 53 55 57 59 61 62 62 62 63 64 66 67 68 69 70 71 72 74 75 76 77 77 78 79 79 80 80 81 82 82 81 82 82 81
55 55 55 55 54 53 51 49 49 51 52 53 55 55 56 56 56 58 60 61 63 64 65 66 67 67 68 68 68 69 70 70 71 71 71 72 73 75 76 78 78 77 77 78 78 77 77 77 78 78 77 75 74 74
55 56 56 55 56 56 56 56 56 55 54 55 55 56 56 56 57 57 58 59 60 62 63 63 65 67 68 70 70 71 71 71 71 71 72 74 75 74 74 74 73 72 72 71 72 73 73 72 72 71 70 69 68 68
53 54 54 53 53 54 54 55 55 56 57 58 57 58 59 59 60 60 61 61 62 62 64 64 65 65 65 65 67 68 68 69 69 69 69 69 68 68 67 67 67 67 67 68 67 67 67 66 66 66 66 66 65 64
47 46 47 47 46 46 47 48 50 51 51 53 55 56 57 58 58 58 58 58 58 58 58 57 57 56 57 57 58 59 59 59 60 60 60 61 62 62 63 63 63 62 62 62 62 62 62 62 62 63 62 61 61 60
42 43 43 42 42 41 42 42 44 45 46 46 46 46 47 47 46 46 46 46 47 47 47 48 49 49 50 51 51 52 53 54 55 55 56 56 56 57 57 57 57 58 58 58 58 58 58 58 57 57 56 56 55 53
37 35 34 35 36 38 39 40 41 42 42 42 43 44 44 43 42 42 42 43 43 44 45 45 46 46 47 48 48 49 50 51 51 51 52 52 52 52 53 53 53 54 54 54 54 54 53 53 53 52 51 50 50 50
33 32 31 31 32 33 35 36 37 37 38 39 39 39 39 39 39 40 40 40 41 42 42 42 43 43 43 44 44 45 45 45 46 46 47 48 48 48 49 50 50 50 50 51 50 49 49 49 48 48 47 47 46 46

GFSWCAN_250_spd_066.txt.gz
Wind_Speed
29 27 23 20 20 23 26 28 31 36 39 41 44 49 53 52 54 59 58 55 60 64 67 72 82 86 97 107 110 105 106 103 94 88 81 77 75 72 69 68 67 66 63 58 56 51 44 46 48 50 49 49 49 49
24 18 13 12 13 16 21 25 28 31 36 42 46 50 49 50 54 55 51 53 56 59 65 72 82 89 96 103 108 107 98 98 91 87 82 78 77 77 72 71 72 67 66 64 57 51 50 55 53 54 52 50 49 50
15 10 8 7 10 15 20 26 31 34 37 41 43 44 47 50 50 50 52 53 56 61 68 74 82 89 95 99 105 110 108 100 93 87 85 81 78 78 73 70 70 65 63 62 57 51 53 54 55 54 51 49 51 52
11 8 3 4 9 14 20 24 29 33 35 37 41 44 46 46 47 50 51 51 56 62 66 73 82 89 95 99 105 107 106 101 96 88 82 79 77 76 70 68 65 59 59 57 56 53 55 55 56 53 51 54 55 56
11 8 3 9 13 17 21 24 27 31 34 38 40 41 42 43 47 49 48 51 56 59 65 72 82 89 93 94 105 108 104 97 92 89 80 75 74 73 69 65 59 57 53 53 52 56 58 56 55 55 55 56 57 59
13 10 8 12 16 21 24 26 27 30 32 34 36 37 40 45 44 43 47 52 58 61 63 71 82 86 86 95 106 107 102 94 92 89 85 78 74 72 67 60 58 57 56 54 55 57 57 58 60 62 62 60 59 60
15 14 11 14 18 20 24 26 28 31 33 35 38 41 44 44 45 49 57 59 59 62 66 73 80 85 90 95 102 103 97 90 89 88 84 78 73 71 66 58 61 61 61 62 62 61 61 62 62 62 60 60 60 59
15 16 16 14 18 21 22 24 26 28 30 33 36 37 39 42 44 46 49 54 56 56 63 72 77 80 86 90 98 102 93 88 84 84 82 79 75 69 62 59 64 65 67 67 66 66 64 63 61 60 61 62 62 62
15 18 17 17 17 19 22 24 25 25 27 27 28 32 36 40 41 45 49 53 55 56 61 69 74 83 87 91 95 101 84 83 83 81 80 80 75 67 61 65 66 66 67 68 65 63 63 62 63 64 65 64 65 67
18 17 19 19 18 18 19 21 24 25 28 30 31 33 34 35 39 43 43 44 48 49 51 61 72 76 83 87 94 90 75 76 81 81 80 74 69 69 66 65 65 66 67 64 62 62 62 64 65 66 66 69 70 70
24 20 20 22 23 24 24 23 24 24 24 25 25 27 29 32 35 37 37 41 44 49 58 67 75 74 85 88 86 76 73 74 80 80 77 73 70 69 67 67 68 68 66 65 65 65 66 67 67 68 70 71 72 72
29 26 22 22 24 25 26 27 27 27 27 27 27 26 25 26 29 33 37 40 43 52 61 68 68 71 74 75 69 71 74 76 80 78 75 73 69 67 68 69 69 69 68 68 68 68 68 69 71 72 74 74 75 75
32 31 26 24 26 27 26 27 29 31 30 31 32 33 34 33 33 34 33 31 34 40 42 55 59 67 65 64 67 70 69 76 76 76 73 69 69 72 72 72 72 72 72 72 72 71 72 74 76 74 74 76 77 78
33 35 34 30 29 29 28 28 30 31 32 33 36 38 39 40 38 41 46 48 50 52 53 55 57 57 59 63 63 65 68 70 71 71 71 72 72 72 71 73 74 75 75 76 77 77 74 72 69 72 73 74 74 75
38 36 34 32 30 28 26 26 27 29 31 32 32 36 39 41 43 44 47 48 50 52 54 54 53 52 55 58 62 63 65 66 67 69 70 70 73 74 77 77 77 78 78 80 76 71 71 69 69 69 68 69 70 71
35 38 36 33 30 29 27 25 25 26 27 28 28 32 34 36 37 37 38 37 37 40 42 43 45 48 52 55 58 61 64 65 67 68 70 73 75 76 79 78 79 78 76 69 67 64 62 63 65 66 68 70 73 74
32 35 36 34 35 34 33 34 36 34 36 39 39 39 40 40 40 41 41 40 39 39 39 40 42 44 47 50 54 56 59 61 65 66 67 69 72 72 73 73 73 70 66 67 65 62 62 63 65 68 71 74 76 76
25 30 30 32 34 34 36 36 39 36 35 37 38 36 36 37 39 40 40 41 41 41 42 44 44 46 48 50 51 53 55 57 58 58 61 64 65 65 65 66 66 66 65 66 67 68 70 72 74 77 76 80 83 85
23 26 22 24 27 27 28 31 36 34 33 36 36 38 38 37 36 36 37 39 41 42 42 43 45 45 46 47 49 52 53 54 55 56 58 60 61 62 64 66 65 64 65 67 68 71 73 74 74 78 81 82 82 84
18 13 16 21 23 22 22 22 23 27 32 33 32 32 33 33 33 35 35 35 35 37 37 39 39 41 43 45 48 51 55 57 59 58 58 58 61 64 66 67 68 68 67 68 68 67 68 71 75 80 81 82 83 84
8 10 14 12 10 14 19 12 14 14 15 20 19 18 21 18 27 30 31 32 27 28 33 32 34 34 36 37 42 46 48 52 58 59 59 58 53 51 52 54 59 60 60 64 68 72 75 77 78 77 79 82 84 86
11 10 8 8 9 12 11 9 9 9 14 14 16 13 14 15 14 17 14 20 21 23 23 25 28 26 27 29 32 34 38 41 43 45 48 50 53 57 59 61 65 67 68 69 71 73 75 77 79 81 82 84 86 88
11 11 14 12 12 14 14 15 15 15 15 18 17 18 17 17 19 18 23 23 24 27 29 30 32 34 37 39 41 43 46 47 49 52 55 57 58 59 61 62 64 67 69 71 73 75 76 78 80 81 84 85 85 85
22 21 20 19 20 20 21 23 25 27 28 29 31 29 30 32 30 29 31 32 36 37 38 40 41 42 43 45 47 49 50 51 53 55 57 59 61 62 64 66 67 69 71 72 75 77 79 80 81 81 81 80 80 82
32 29 30 30 30 31 31 32 32 33 33 33 35 37 38 39 41 41 41 41 41 42 44 44 45 47 48 50 52 54 55 57 59 60 62 63 65 66 68 70 71 72 73 75 76 76 76 77 76 77 79 80 80 82
40 39 39 39 39 40 39 40 41 42 44 44 44 44 45 45 46 47 48 49 50 51 51 52 53 55 56 57 59 60 62 63 65 66 68 69 70 71 71 72 73 74 74 74 75 76 77 78 79 79 79 79 79 79
48 47 46 44 44 44 45 45 47 49 50 51 51 52 52 53 55 56 57 58 59 59 60 60 61 62 64 65 65 66 67 67 68 68 69 70 71 72 73 75 74 74 74 75 76 77 77 76 75 74 74 74 73 72
49 49 50 50 49 48 49 49 50 50 51 53 55 57 58 59 60 62 64 63 63 64 65 66 67 67 68 68 68 69 70 70 70 70 71 70 70 72 73 73 74 74 73 72 71 70 70 69 69 69 67 66 66 65
47 47 48 48 48 48 48 49 50 49 50 50 51 51 53 54 57 59 60 61 62 63 64 65 66 66 66 66 66 65 66 67 68 68 69 69 69 68 67 66 65 65 65 65 65 65 64 64 63 62 61 60 61 61
45 45 45 43 42 43 44 44 43 42 43 44 45 48 51 52 53 54 55 56 56 56 56 56 56 57 57 56 56 57 56 57 58 58 58 59 59 59 59 59 60 59 59 59 59 58 57 57 57 57 58 58 58 58
40 40 41 41 40 39 38 36 36 36 37 39 40 41 41 42 43 43 44 44 45 46 46 46 47 47 48 48 48 49 50 50 50 51 51 52 53 53 53 53 53 53 52 52 52 53 53 54 55 56 55 55 54 54
36 35 34 34 33 32 32 34 35 35 35 35 34 34 35 36 36 37 38 38 39 39 40 40 40 41 43 43 44 44 45 46 46 46 46 46 46 46 47 47 47 48 48 49 50 50 51 51 51 50 50 50 50 49
33 32 31 30 29 30 31 31 32 32 33 33 34 34 33 33 33 33 34 34 34 35 35 35 36 36 37 38 38 39 39 40 40 41 41 42 42 43 44 44 45 45 46 46 47 46 46 47 46 46 46 46 45 43

GFSWCAN_250_spd_069.txt.gz
Wind_Speed
35 35 34 34 34 34 34 36 37 40 41 45 49 52 53 52 49 51 51 53 54 60 62 57 62 72 83 89 96 99 106 110 105 100 87 87 85 81 80 78 78 73 70 65 61 56 56 56 57 56 54 53 50 49
31 29 28 25 25 25 26 29 31 34 37 41 43 45 47 47 49 51 55 53 57 62 60 55 65 74 83 91 97 101 98 102 102 97 89 87 82 80 77 76 78 75 70 69 65 59 59 60 60 58 58 57 56 55
25 23 20 16 16 16 20 24 27 31 34 36 38 40 44 45 46 49 51 53 58 60 54 57 67 74 83 90 97 95 103 110 108 99 96 93 88 81 81 77 74 69 70 67 64 58 59 60 60 60 60 58 58 55
19 14 9 6 6 10 15 20 25 30 33 35 37 39 43 46 50 49 50 54 58 57 53 61 67 77 84 91 93 93 96 106 109 105 97 95 89 83 77 78 74 69 69 64 62 62 63 61 63 62 60 60 59 59
10 4 1 1 5 10 14 18 24 29 31 34 38 42 45 48 51 52 53 55 55 50 52 59 66 72 82 85 85 90 102 104 100 99 97 91 87 82 77 76 73 70 68 67 63 66 64 64 66 62 62 62 58 58
1 7 5 5 9 14 16 19 23 27 31 34 37 40 45 46 47 50 52 49 44 49 53 62 65 71 73 79 89 94 97 94 100 96 91 91 89 84 78 70 71 70 69 71 71 67 66 64 64 61 57 59 59 60
9 13 12 11 14 17 20 23 26 29 31 35 40 43 45 46 46 43 43 49 51 53 55 57 59 65 69 81 88 81 90 92 95 95 92 91 89 84 77 68 71 69 66 65 64 64 64 63 61 60 59 60 60 62
13 17 17 18 19 22 25 27 29 31 33 35 37 39 40 40 42 46 46 45 45 48 52 53 56 61 66 74 77 85 88 88 89 94 93 91 88 85 74 67 70 67 67 66 66 66 64 60 62 62 61 62 64 66
16 19 19 21 24 25 26 28 30 30 31 31 32 33 35 38 39 39 42 43 43 45 49 51 55 61 65 76 81 86 87 86 86 88 90 88 86 76 68 70 70 69 68 68 67 66 64 63 62 62 64 64 67 69
18 21 22 22 24 27 28 29 31 32 32 32 33 34 35 33 37 39 39 39 39 43 44 47 50 59 72 77 80 83 83 79 84 86 86 83 80 78 76 73 72 70 71 71 70 69 68 66 63 64 66 68 70 72
18 20 22 23 23 24 25 27 27 28 29 29 29 30 32 33 33 34 33 33 36 40 41 47 53 63 63 65 71 78 79 72 77 82 85 82 80 77 73 76 73 72 72 70 69 67 65 66 68 69 70 72 74 75
22 22 24 26 26 26 25 26 26 26 27 28 29 29 28 27 26 28 31 34 37 44 46 50 56 61 67 69 72 78 78 70 72 76 77 77 77 76 76 77 78 77 74 70 69 69 70 70 71 71 74 76 76 77
25 23 23 26 28 29 29 28 27 28 28 28 29 28 27 27 29 28 31 33 38 46 50 55 59 66 66 70 70 74 72 66 68 67 70 75 78 77 77 77 76 74 72 71 71 73 75 75 76 77 77 77 79 80
27 26 25 24 22 21 23 27 29 31 31 31 31 33 34 33 33 36 40 42 44 44 45 49 58 58 60 52 58 59 61 56 60 64 70 73 75 76 77 75 74 73 73 72 73 75 78 78 81 80 79 79 82 83
32 31 29 25 23 21 20 22 21 21 21 22 24 25 28 29 31 34 34 36 40 40 42 45 47 48 50 44 47 52 58 55 60 65 68 71 73 74 74 74 75 76 74 75 77 79 80 82 82 82 82 83 84 87
35 34 30 28 25 22 22 21 23 24 23 24 24 26 28 30 32 34 37 32 29 32 35 37 38 43 42 41 39 47 52 54 58 63 67 70 72 74 75 76 77 76 78 79 80 81 82 82 83 84 84 86 89 86
30 28 30 30 28 28 24 24 23 22 22 23 25 26 27 27 29 30 32 35 34 31 31 30 31 32 32 39 45 48 51 53 57 62 65 68 71 72 74 76 76 77 78 80 82 83 84 85 85 86 89 87 83 81
27 30 28 27 29 32 34 33 31 30 31 31 30 31 33 36 37 35 33 34 34 34 35 34 36 39 40 42 45 46 49 52 56 60 64 66 67 70 72 74 76 78 79 79 82 84 85 85 86 84 83 82 79 78
22 22 22 23 24 27 28 30 33 31 31 30 32 33 34 34 34 33 33 34 35 35 36 36 37 38 39 40 42 45 48 52 56 59 61 62 64 67 69 71 74 76 77 78 80 81 80 79 78 76 77 78 81 83
23 21 18 18 18 18 22 24 26 28 28 28 28 27 28 30 34 36 36 36 37 37 37 38 38 39 41 43 44 46 49 51 54 55 57 59 62 66 68 70 71 73 74 74 74 73 73 75 75 78 80 81 82 83
18 17 14 12 16 18 17 15 14 19 21 22 24 25 25 26 27 27 29 32 32 33 35 37 39 42 43 44 45 47 49 51 53 55 56 58 60 62 64 65 64 63 62 62 63 67 72 74 75 78 80 82 84 85
11 15 12 10 10 8 9 10 10 6 7 9 11 13 16 19 19 20 23 27 29 29 31 33 36 37 39 40 42 45 47 48 49 51 54 57 57 58 59 60 62 68 71 74 77 74 74 77 80 82 82 83 84 86
10 10 11 10 10 10 11 9 8 7 6 9 8 8 10 12 13 14 18 20 21 24 25 25 24 27 30 33 35 38 40 41 43 45 48 52 55 57 59 61 64 65 68 71 75 78 78 78 80 82 83 83 83 84
14 13 13 13 14 15 18 17 18 18 18 17 18 19 20 21 21 21 22 24 26 29 33 31 32 35 38 39 41 43 45 48 51 53 55 57 59 61 63 64 66 68 69 71 73 74 75 76 78 80 81 82 84 86
21 21 22 21 22 22 22 23 24 25 26 28 29 31 33 33 33 34 36 37 37 38 40 41 43 46 48 49 51 52 53 54 55 57 58 59 61 62 63 64 66 68 69 71 73 74 76 78 79 81 82 82 82 81
31 30 31 30 31 33 33 33 34 35 35 36 38 39 40 41 42 43 45 46 47 48 49 50 51 52 53 54 55 57 57 58 59 60 61 62 63 65 67 68 70 72 74 75 77 80 80 80 78 78 79 79 78 77
40 39 38 37 38 38 40 42 43 44 45 47 48 49 50 51 51 51 52 52 53 53 54 55 56 57 58 58 59 60 62 63 64 65 66 67 69 71 72 74 76 76 77 77 76 75 76 76 76 76 75 74 72 71
47 47 47 46 45 44 43 44 45 46 47 50 52 55 56 58 58 59 61 61 61 62 62 62 62 62 63 64 64 65 66 66 67 68 69 70 70 71 72 73 73 73 74 74 74 73 72 70 69 69 68 67 67 67
50 49 48 48 46 46 47 48 48 48 47 48 49 50 52 54 57 58 59 61 62 63 64 64 65 65 64 64 64 65 65 66 67 66 66 68 69 70 71 70 69 67 66 66 66 65 65 64 64 64 64 63 62 61
47 46 46 45 45 44 43 42 42 41 42 42 43 44 44 45 47 50 53 55 57 58 58 58 59 60 60 60 61 61 61 62 62 62 61 61 61 61 60 61 61 61 61 60 60 60 59 59 58 58 58 57 57 56
39 40 40 40 38 37 36 36 35 34 33 34 36 39 41 43 44 45 46 46 47 47 47 47 47 47 48 49 50 51 52 52 53 53 54 54 55 55 55 55 55 55 55 54 54 54 54 54 54 53 53 53 52 52
34 33 33 33 32 31 29 29 29 32 34 35 35 36 36 36 37 38 39 40 41 42 42 42 43 43 44 44 45 45 46 47 48 48 48 49 50 50 49 49 49 49 49 49 50 50 50 49 50 50 49 49 49 49
31 31 30 28 27 26 25 28 29 30 31 32 32 33 33 32 32 33 33 34 34 35 36 36 37 37 38 38 39 40 41 42 42 42 43 43 42 42 43 44 44 45 45 45 45 46 46 46 46 46 45 45 46 46

GFSWCAN_250_spd_072.txt.gz
Wind_Speed
37 39 38 38 40 42 44 46 48 49 50 51 53 53 54 58 60 57 54 55 51 51 60 59 57 58 60 63 68 81 90 96 91 98 100 96 92 89 86 82 80 79 79 77 71 71 60 58 66 62 59 61 57 55
34 33 34 36 35 36 37 39 40 42 44 44 45 50 53 55 54 52 48 53 55 60 61 60 59 58 58 62 73 81 81 88 87 94 102 97 89 90 83 84 84 78 78 81 78 71 68 65 65 68 66 60 59 57
29 29 29 28 25 26 28 29 30 33 36 40 42 43 48 52 51 47 51 56 58 61 62 57 58 59 59 63 71 75 83 83 88 94 102 100 96 90 85 84 85 82 81 79 79 75 75 73 73 69 69 65 63 59
25 24 21 21 21 22 22 23 24 27 30 33 36 38 40 43 45 48 50 53 58 57 55 57 59 57 60 62 66 73 79 82 86 95 101 100 95 93 88 86 88 85 81 80 76 75 76 74 73 73 70 66 64 60
17 18 18 15 11 12 14 17 19 21 23 26 29 33 38 42 46 51 55 57 57 57 56 58 55 54 56 61 66 70 75 79 84 92 93 92 94 95 90 87 83 84 80 79 73 75 74 75 73 72 69 68 65 62
14 14 9 4 4 7 11 14 16 20 23 25 29 34 38 43 48 52 57 58 57 53 53 51 48 51 56 61 63 66 73 80 83 91 92 90 95 94 85 76 77 81 83 79 73 74 70 73 76 73 70 67 64 64
8 5 0 3 5 9 11 14 17 22 25 29 33 36 39 43 46 47 44 44 44 47 49 48 49 50 55 58 60 66 75 81 85 75 68 81 91 91 84 76 75 78 81 81 75 69 72 71 68 70 69 68 66 68
1 3 6 8 10 12 16 19 22 24 25 28 31 33 35 38 40 43 44 44 43 43 44 46 47 50 53 54 60 66 67 73 70 74 74 81 92 88 82 79 79 79 78 78 75 73 71 70 67 66 68 70 72 72
5 8 10 13 15 17 19 21 22 24 24 27 28 31 34 36 37 39 39 39 40 41 41 41 43 47 48 51 54 56 60 65 73 79 73 81 90 87 86 87 89 84 77 73 71 75 72 70 69 67 67 67 68 69
9 12 15 15 17 19 22 23 25 26 26 24 25 25 29 33 34 34 34 33 34 34 35 34 37 41 44 46 48 56 63 69 76 75 75 78 85 91 90 90 87 81 75 74 73 69 69 69 68 68 68 67 68 69
14 17 18 18 18 20 23 27 29 30 31 31 30 30 28 28 28 27 27 28 30 30 28 32 38 40 43 46 50 54 56 59 56 48 64 76 79 78 87 84 84 81 79 76 71 69 67 66 65 66 68 69 70 72
17 19 20 21 21 21 22 21 22 25 27 29 30 29 28 27 26 26 28 28 28 29 33 38 38 38 39 41 44 48 52 53 55 59 64 63 70 78 83 85 85 83 81 80 75 70 67 67 68 70 71 72 74 76
18 18 19 21 22 23 24 24 24 24 24 25 26 29 30 31 30 29 29 30 31 31 34 34 35 37 36 38 41 44 48 53 56 60 61 66 72 76 80 82 83 84 82 80 77 73 71 72 72 73 74 76 78 80
24 20 19 18 19 20 21 23 24 25 25 24 23 24 25 25 27 31 32 31 32 32 31 30 31 34 35 37 39 40 45 50 54 56 58 65 68 71 76 78 80 80 79 78 79 78 77 77 75 75 76 79 82 84
27 26 24 22 20 19 18 19 19 20 22 22 24 24 25 25 27 27 28 29 29 32 33 31 29 28 31 34 38 41 43 45 49 53 55 60 66 68 71 74 75 76 77 77 77 78 79 80 81 83 84 86 89 89
26 29 27 26 24 20 19 18 18 17 16 16 16 18 21 23 24 22 24 25 25 27 27 28 28 30 33 34 37 37 38 41 44 49 52 58 62 65 68 70 72 73 74 76 77 78 79 80 81 83 84 86 86 88
30 30 29 28 27 24 21 21 20 19 19 19 19 20 22 22 22 23 23 23 24 24 23 23 25 26 27 24 28 31 34 37 37 42 48 54 59 63 65 66 68 70 72 74 75 77 79 81 82 83 84 86 89 91
29 28 28 26 25 25 24 23 22 21 21 20 19 20 21 22 24 27 28 27 25 23 23 22 24 24 22 20 20 22 27 32 36 39 44 52 57 60 63 65 66 68 70 72 75 77 78 80 82 83 86 89 90 92
24 22 21 21 22 23 22 23 21 21 18 19 21 23 22 21 22 24 25 26 25 25 25 25 25 26 26 27 28 29 30 32 35 39 43 49 55 59 63 65 67 69 71 72 75 76 77 80 81 83 86 88 90 89
26 25 22 19 19 19 21 22 23 22 22 22 21 23 23 23 24 26 27 27 26 26 27 28 29 28 28 29 29 30 32 34 35 38 41 44 48 53 57 61 64 66 69 71 73 74 77 79 81 83 85 86 87 87
20 21 20 19 16 17 16 15 17 17 19 20 19 18 18 21 24 25 24 23 22 24 25 25 25 25 25 28 30 32 34 36 38 40 43 46 49 51 54 57 59 62 65 69 71 73 76 78 81 82 84 83 81 83
13 10 7 8 11 16 14 13 12 9 11 10 11 12 14 15 15 16 18 20 20 21 22 22 22 22 25 27 29 32 35 37 40 42 45 48 50 52 55 57 59 62 64 67 70 72 74 75 75 76 79 84 87 88
11 11 10 11 9 8 9 7 7 10 10 8 8 7 7 8 9 9 13 16 19 24 25 27 29 32 34 35 37 38 40 41 43 45 47 50 52 54 56 58 60 62 64 66 70 74 76 78 80 80 81 83 85 87
11 9 10 10 9 9 11 10 9 8 8 8 10 11 12 12 13 16 17 19 22 26 28 29 32 34 35 38 39 41 44 46 48 49 51 53 55 57 60 62 64 66 69 71 72 74 75 77 78 81 83 85 86 86
14 13 12 13 13 14 15 16 17 18 18 19 20 21 22 23 23 25 26 27 29 29 31 33 35 38 40 41 42 45 46 49 51 53 54 56 59 62 64 67 69 71 73 75 77 77 78 79 80 80 81 82 83 84
24 23 23 23 23 24 24 25 26 26 27 28 30 31 33 34 35 36 37 39 41 42 44 45 47 48 50 51 52 53 55 57 59 61 63 64 66 67 68 70 71 71 71 73 74 75 76 77 78 80 80 80 81 82
31 32 33 34 34 34 35 36 37 38 39 40 42 42 43 45 46 47 48 49 50 51 52 53 54 56 56 57 59 60 62 63 64 65 66 67 68 68 68 68 69 70 72 72 73 74 76 76 76 76 78 79 79 78
38 38 39 40 41 41 42 43 45 47 48 50 51 53 55 56 57 58 59 59 59 59 59 59 60 61 62 62 63 64 64 65 66 67 68 68 69 69 69 70 69 70 70 71 71 72 73 73 73 73 74 73 72 72
47 47 46 47 47 48 48 48 48 48 49 50 51 53 56 58 59 60 60 60 61 61 62 63 63 64 64 64 64 64 65 65 65 65 65 65 66 65 65 66 66 66 67 67 68 68 69 69 69 69 68 68 67 66
47 47 48 48 48 47 46 45 45 44 45 46 47 47 46 47 49 51 53 55 57 59 61 61 62 61 61 61 60 60 59 59 59 59 58 58 59 61 61 61 62 62 63 63 63 63 63 63 63 62 62 62 61 61
44 44 44 42 42 41 41 42 43 43 42 41 42 44 45 47 48 49 50 51 51 51 51 51 52 52 52 53 52 52 52 53 53 53 54 55 55 55 56 56 56 57 57 57 57 57 57 57 57 57 57 57 58 58
38 38 37 38 38 38 38 37 36 36 37 39 42 43 44 45 44 44 44 44 44 45 45 45 46 46 46 46 46 47 47 48 48 48 49 49 49 50 50 51 51 51 52 52 52 52 53 54 54 54 54 54 54 53
35 35 36 36 36 35 33 31 31 33 36 37 38 38 38 38 38 39 39 39 40 40 40 40 41 41 41 41 42 42 43 43 43 44 44 44 45 45 46 47 47 47 48 49 49 50 50 50 50 50 50 50 50 50

GFSWCAN_250_spd_075.txt.gz
Wind_Speed
35 37 39 41 42 44 46 48 50 52 54 56 57 58 60 60 60 59 55 52 50 49 52 54 54 54 56 55 53 52 54 58 67 64 69 72 77 78 77 78 80 86 90 82 78 70 67 70 69 68 54 51 56 56
35 38 39 40 41 43 46 47 48 50 52 54 56 58 60 61 61 60 56 52 55 56 54 61 57 57 57 59 56 54 51 61 67 66 69 76 79 77 73 73 77 84 86 83 79 69 70 71 73 68 63 62 60 54
31 31 31 33 36 36 37 39 41 44 46 48 51 54 56 56 56 55 51 52 58 57 59 59 58 64 62 60 57 52 53 57 65 69 70 76 74 75 74 73 77 81 83 85 83 79 76 73 72 68 65 69 68 65
24 25 26 27 27 28 29 31 33 34 36 40 43 46 48 49 52 51 49 53 56 55 55 52 60 61 61 58 52 49 53 54 64 68 70 72 69 77 77 76 77 82 81 82 82 81 82 76 73 73 72 72 68 68
20 21 22 18 16 16 17 19 20 23 27 31 35 39 42 45 47 50 52 51 49 54 50 57 59 57 54 53 51 51 53 56 62 66 69 68 69 76 77 81 78 79 75 75 77 81 81 80 77 72 69 67 67 69
16 14 13 11 10 11 11 13 16 19 21 24 28 31 35 39 42 45 49 49 50 48 54 56 55 51 51 51 48 47 51 55 60 62 66 66 71 77 84 80 79 79 77 76 77 79 75 77 77 76 74 73 75 75
11 12 9 6 3 4 7 10 14 18 21 24 27 29 33 37 37 37 38 41 40 44 49 51 49 47 50 47 43 48 52 51 54 57 62 66 77 84 86 83 82 81 80 82 81 75 72 71 72 74 75 75 75 74
10 9 6 3 2 4 8 11 14 17 19 22 24 28 31 34 37 41 44 45 45 44 43 40 42 45 42 44 46 49 48 47 50 53 60 69 76 74 76 85 84 85 87 83 79 75 74 75 73 72 73 74 74 74
8 7 5 7 8 9 10 13 16 17 19 20 23 26 30 33 35 36 38 38 38 39 42 43 42 41 42 44 45 45 43 42 43 48 60 68 69 68 72 84 87 87 87 85 81 75 73 73 71 72 72 73 74 73
8 7 10 13 14 15 16 18 19 20 20 21 21 22 24 29 31 34 35 36 37 39 39 39 39 40 40 38 38 39 40 41 44 49 57 62 65 61 67 80 91 92 89 82 78 76 73 69 69 70 70 70 70 71
10 12 14 16 18 20 22 26 28 29 29 28 27 27 26 27 29 31 32 30 31 32 33 34 34 33 32 33 34 38 38 39 40 45 52 59 60 54 57 73 85 90 91 88 85 81 73 70 68 68 68 68 69 71
12 16 17 18 20 20 20 22 24 26 29 32 34 32 31 30 31 30 30 30 31 31 32 32 30 31 33 34 33 34 37 37 42 42 49 53 59 59 60 67 79 82 84 83 83 79 72 69 67 67 68 69 70 70
15 17 19 20 21 23 24 24 24 25 25 26 28 31 33 35 34 34 34 33 31 32 33 32 31 30 29 30 31 32 34 35 37 40 41 45 43 54 60 66 71 77 78 78 79 78 76 74 73 72 71 70 71 72
18 20 21 22 21 21 21 21 23 24 25 25 23 26 27 26 27 29 30 31 31 30 26 26 25 27 26 26 25 27 28 30 32 34 34 37 39 41 53 59 63 69 73 76 79 80 80 79 77 77 76 77 77 78
22 22 22 22 22 22 22 21 20 19 18 20 20 19 20 22 22 23 24 25 26 26 26 23 22 21 21 20 21 24 27 31 34 37 38 38 38 40 48 54 59 61 66 72 75 79 82 82 80 80 81 82 83 84
26 25 24 24 23 23 23 21 19 17 16 14 13 15 17 18 18 18 19 18 19 19 19 21 23 23 22 21 20 20 22 24 27 30 35 38 43 43 46 52 56 59 63 65 69 74 77 80 82 83 84 85 85 86
27 26 24 23 21 21 21 21 20 20 19 17 17 18 18 18 20 18 18 18 18 18 17 18 20 20 19 19 18 17 19 19 22 26 30 35 38 40 42 48 54 57 60 63 65 68 71 73 76 78 80 81 82 84
32 30 27 25 23 22 21 20 19 17 15 14 15 16 17 19 21 21 19 18 19 17 17 17 17 16 16 16 18 18 19 21 22 24 26 29 33 38 42 47 51 55 58 61 64 66 68 71 72 74 75 78 80 82
30 30 29 27 26 26 25 23 19 17 16 15 14 13 14 16 19 20 19 19 16 17 18 20 19 17 17 18 17 19 21 23 24 26 28 31 34 38 43 48 52 55 58 61 63 65 67 68 70 72 75 77 79 81
30 27 23 23 23 22 22 21 21 20 18 15 16 15 13 16 18 21 21 19 21 21 21 20 19 19 20 18 18 20 22 22 22 24 25 28 32 36 42 48 52 56 59 61 64 66 68 69 71 73 75 78 81 83
26 25 25 24 24 23 21 17 17 17 17 15 12 12 14 17 21 22 22 21 19 17 16 16 17 17 17 17 18 19 19 21 23 25 28 31 34 37 40 43 47 51 56 59 62 64 66 69 72 74 76 78 80 83
17 19 16 18 18 18 18 18 18 16 15 17 16 16 16 15 16 16 18 17 16 17 17 16 17 19 20 22 20 20 21 23 26 28 30 32 35 37 40 43 47 50 54 57 60 62 65 68 70 72 75 78 80 82
10 10 10 10 10 10 10 12 11 11 11 11 12 11 11 10 8 6 8 7 10 13 14 15 16 17 20 22 23 25 26 27 29 31 33 35 37 40 42 44 46 48 51 54 58 61 63 66 68 71 74 77 80 82
3 1 1 1 1 2 1 3 3 2 2 4 4 3 1 2 2 5 6 8 11 12 13 16 19 21 23 26 27 26 28 30 33 36 37 40 42 44 47 49 52 54 56 58 61 63 66 68 71 74 77 79 81 81
6 6 6 6 7 7 8 9 9 10 11 12 12 12 13 13 14 15 17 19 20 21 22 24 26 27 29 31 33 35 37 39 40 42 44 47 48 51 53 56 58 60 62 64 65 67 69 70 72 75 77 80 83 85
16 16 16 16 16 17 18 18 19 19 20 21 22 23 25 26 28 29 31 32 33 34 36 37 38 40 41 43 44 45 47 49 50 52 53 55 56 58 60 62 63 64 66 68 70 72 74 75 77 79 80 80 81 82
25 25 27 28 29 30 31 31 31 32 32 33 33 35 36 37 39 41 42 43 45 46 47 49 50 51 52 53 55 56 57 58 59 60 61 63 64 65 66 67 68 69 70 71 73 74 75 76 77 77 77 76 77 77
32 33 35 36 38 38 39 40 41 42 43 45 46 48 50 51 52 54 55 56 57 58 58 59 60 60 61 61 61 62 62 63 64 65 65 66 66 67 68 69 69 69 69 70 71 72 73 72 72 72 72 72 72 72
37 37 38 38 39 39 41 42 43 45 47 49 51 54 56 58 60 61 62 62 61 61 61 60 59 59 58 58 59 59 60 60 60 61 61 62 62 63 64 64 65 65 65 65 65 65 66 67 67 67 66 66 66 66
44 44 44 44 44 44 44 44 44 44 44 45 46 48 51 53 54 54 55 56 57 57 56 56 56 56 56 56 57 57 56 56 56 56 55 55 56 56 56 56 56 57 58 58 58 59 60 60 61 61 61 61 61 60
42 43 43 43 43 42 40 40 41 41 41 41 41 42 43 44 46 47 48 48 49 49 49 50 50 50 50 50 50 50 51 50 51 51 51 52 52 53 54 54 54 54 55 55 55 55 56 56 56 56 56 56 56 56
39 39 39 39 38 38 39 39 38 38 37 37 38 39 40 41 41 41 41 41 40 40 39 39 39 39 40 41 41 42 43 44 44 45 46 46 47 47 48 49 49 49 49 50 50 50 51 51 51 52 52 52 52 53
37 37 37 36 35 36 35 35 35 35 36 36 37 37 37 36 37 37 37 36 36 36 36 36 36 37 37 37 37 38 39 40 41 42 42 42 42 43 43 44 44 44 44 45 46 46 47 48 48 49 50 50 50 51

GFSWCAN_250_spd_078.txt.gz
Wind_Speed
28 30 32 33 33 35 37 39 40 41 42 43 43 44 44 44 46 44 40 40 39 38 41 41 44 44 46 48 48 56 52 46 38 37 43 50 56 57 60 66 67 58 57 62 69 72 73 71 65 65 62 65 64 64
29 31 32 34 36 38 40 41 43 45 47 48 49 50 50 50 51 48 46 42 43 44 44 47 50 50 53 57 53 52 49 44 37 36 42 49 56 57 61 68 68 68 69 69 74 73 78 74 72 66 63 60 65 63
30 32 35 36 38 40 43 44 44 44 46 48 51 52 54 55 55 53 53 52 50 49 49 47 44 53 59 58 57 54 51 44 37 40 44 51 56 60 63 70 69 65 62 62 72 76 81 74 72 69 67 67 65 62
26 27 29 31 33 35 37 39 41 43 44 46 49 51 53 54 54 51 51 52 50 48 45 46 52 56 61 61 57 55 53 43 40 44 45 53 60 63 63 67 66 66 63 67 71 74 81 77 74 71 66 61 63 66
22 23 23 24 25 27 28 30 33 37 40 43 46 47 50 51 51 49 52 48 47 49 44 54 62 62 62 60 57 56 52 46 45 45 45 55 61 63 65 64 60 63 63 68 72 78 81 82 77 77 71 70 68 67
16 17 16 16 17 18 20 22 25 28 31 35 38 42 45 47 45 46 45 40 38 40 49 57 58 59 58 57 56 58 52 46 44 44 46 50 58 62 60 58 67 67 69 68 73 76 80 82 82 78 73 69 68 69
10 9 7 7 7 8 11 14 16 19 24 28 32 34 36 37 37 38 39 48 48 48 49 53 58 57 53 53 59 54 47 44 41 43 48 49 53 54 53 55 65 67 67 68 76 75 75 80 84 83 77 73 74 75
4 4 4 2 1 3 5 8 12 14 18 23 27 30 32 34 37 39 41 40 44 43 43 46 49 47 43 46 51 44 40 40 41 46 46 43 46 46 51 57 61 65 66 70 74 73 75 78 84 86 83 78 74 74
7 7 6 6 7 8 8 10 12 16 19 22 23 25 27 30 32 33 35 37 41 41 41 42 43 37 39 47 44 41 37 37 41 39 40 40 41 45 59 56 61 67 69 73 76 75 72 74 76 79 84 77 73 71
11 10 9 8 11 13 15 16 17 19 19 20 21 24 26 28 30 32 34 37 38 39 36 35 38 41 43 44 39 36 35 36 37 38 40 38 40 46 52 54 64 72 76 74 74 75 73 74 75 75 76 76 74 72
12 11 10 13 15 16 17 17 20 26 26 25 24 24 24 26 27 28 29 32 34 35 36 38 39 38 37 37 35 32 33 34 35 37 37 37 41 41 46 54 62 69 74 70 72 76 75 77 78 74 70 71 74 75
14 15 15 18 19 19 21 21 23 23 26 30 32 32 32 33 35 36 36 34 33 32 33 33 34 34 34 33 34 34 34 33 36 39 34 36 40 41 43 52 60 66 73 75 74 77 79 80 78 74 72 70 69 68
16 18 18 20 22 24 24 24 25 27 25 27 30 31 30 32 33 33 33 33 33 33 33 33 34 34 33 32 33 35 34 37 38 35 32 33 36 39 40 46 54 62 71 74 74 76 78 79 77 74 73 74 73 71
19 19 21 22 23 23 25 26 24 25 28 28 28 29 27 25 26 27 29 30 30 30 30 30 31 31 33 34 34 33 31 30 29 25 28 31 34 38 38 42 53 61 63 70 72 75 79 79 79 78 77 77 76 76
22 21 21 21 22 24 24 24 25 25 23 24 24 25 25 25 24 24 24 25 27 28 29 30 28 28 30 25 21 24 26 22 20 25 30 31 29 30 32 39 42 47 54 60 62 67 75 79 82 83 83 83 83 82
25 24 23 22 21 21 22 23 23 23 22 21 21 22 22 23 22 21 21 20 20 20 19 20 22 22 20 20 22 25 26 26 27 29 31 29 28 29 28 30 36 42 47 52 56 59 64 71 76 78 81 83 84 84
28 27 25 24 23 22 21 21 23 24 25 22 20 21 22 23 22 21 20 19 18 18 19 20 22 22 22 21 21 22 20 21 21 24 27 30 31 34 34 32 37 42 44 45 49 50 53 56 62 68 73 76 78 81
31 30 29 27 24 23 22 22 22 21 18 18 20 21 22 23 22 22 22 22 21 20 19 19 18 21 22 24 24 25 24 23 23 25 25 27 31 33 34 33 35 38 41 44 47 50 52 55 58 61 64 67 71 75
35 34 32 30 27 25 24 22 20 20 19 18 16 15 17 19 21 21 22 23 24 19 20 21 21 21 22 21 21 22 24 24 23 23 24 27 28 30 31 32 34 36 39 43 46 50 53 55 57 61 64 67 70 72
35 34 32 31 29 29 28 25 23 20 18 18 18 16 15 16 19 20 20 23 23 22 23 25 24 22 23 24 22 21 21 22 24 24 25 27 29 31 34 35 37 39 42 45 48 51 54 56 59 61 64 66 68 70
29 28 29 26 29 29 29 27 25 23 22 19 18 14 13 15 18 19 21 20 20 20 19 21 25 26 26 27 27 26 24 23 22 23 24 26 28 32 33 34 35 37 39 42 45 49 52 55 58 62 65 68 70 71
21 21 21 22 24 25 23 22 21 22 22 19 15 11 10 10 11 13 13 14 14 14 16 18 21 20 19 18 20 23 24 25 27 26 27 28 28 29 31 34 36 38 40 43 46 50 54 57 60 63 66 68 69 72
15 15 14 15 16 16 15 13 13 14 15 16 15 15 16 15 12 10 9 6 6 7 9 10 10 11 13 17 20 21 22 24 26 28 28 28 28 30 32 35 37 39 42 45 48 50 53 56 58 61 63 65 68 70
8 10 11 11 12 12 13 13 12 11 10 9 8 7 7 5 3 1 2 3 5 5 5 7 10 13 15 18 21 23 25 26 28 29 31 33 35 36 37 38 40 42 43 45 47 50 52 55 58 61 63 66 68 70
4 5 7 7 8 8 8 8 9 10 11 13 13 12 12 10 10 11 12 14 15 17 18 19 20 21 23 25 27 28 29 31 32 34 36 38 39 39 40 42 44 46 48 51 53 55 56 59 61 63 64 66 69 71
10 12 13 15 17 17 17 17 17 16 16 16 16 18 19 21 23 25 26 27 28 29 31 32 33 34 35 36 37 38 39 41 42 43 44 45 45 46 47 49 51 52 54 55 57 59 61 63 65 67 69 71 72 74
21 21 23 24 25 25 26 27 28 28 28 29 30 31 32 34 35 37 38 40 41 42 44 45 46 47 47 48 48 48 49 49 50 50 51 51 52 53 54 56 57 58 59 60 61 63 64 67 69 70 71 72 74 74
30 30 31 32 32 33 34 35 37 38 40 41 42 44 46 48 49 51 53 53 53 54 54 54 54 54 54 53 53 53 53 54 54 54 55 55 56 57 58 59 60 61 61 62 63 64 65 65 65 65 66 66 68 69
33 33 33 34 35 36 37 39 40 43 45 47 49 51 53 56 57 58 57 56 54 53 52 51 49 49 48 48 48 48 49 49 49 48 49 51 52 53 54 55 56 56 57 57 57 57 59 60 61 61 62 63 63 64
35 35 37 37 38 39 40 40 41 41 43 44 45 47 49 51 51 51 51 51 51 50 50 49 48 47 46 46 46 45 45 45 45 46 46 46 46 47 48 49 50 51 51 52 53 53 54 55 55 56 57 57 57 57
37 37 37 38 39 39 39 39 39 39 40 40 40 41 40 40 41 41 41 41 41 41 41 41 40 40 40 41 41 41 42 42 43 43 44 44 45 45 46 47 47 48 48 49 50 50 51 51 52 52 53 53 53 53
37 37 37 37 37 37 38 38 38 37 36 36 36 36 35 35 35 34 35 35 34 34 34 33 33 33 34 34 35 36 37 38 39 40 41 41 42 43 44 44 45 46 46 46 46 47 47 47 48 48 48 48 49 49
35 35 34 34 33 33 32 33 32 32 32 33 32 32 31 30 30 30 30 29 29 28 28 28 28 28 29 29 30 30 31 31 32 33 34 35 36 36 37 38 38 38 39 40 41 41 42 43 43 44 44 45 46 46

GFSWCAN_250_spd_081.txt.gz
Wind_Speed
26 27 28 30 30 31 31 32 33 34 35 36 37 38 38 38 40 39 43 43 43 45 47 46 47 47 48 47 47 50 45 44 42 38 39 43 42 46 53 59 64 67 68 72 65 50 54 59 64 61 54 62 59 65
27 28 29 28 28 29 30 31 32 33 35 36 36 36 37 38 39 40 38 39 42 44 44 44 45 47 48 48 50 47 43 39 39 35 34 39 40 44 54 59 67 70 74 75 59 52 56 59 62 62 61 65 58 65
24 24 26 28 30 31 32 34 36 37 38 38 38 39 40 39 39 37 40 43 45 43 44 43 41 46 48 48 49 45 42 41 37 37 36 37 38 45 52 58 63 69 71 69 60 54 60 62 66 64 67 71 67 63
25 28 30 32 34 35 36 37 38 40 42 42 43 43 42 42 41 39 36 40 45 46 45 42 46 44 50 49 48 46 45 41 39 35 34 35 39 42 47 56 58 66 71 68 62 58 62 63 66 69 73 73 72 64
25 26 27 28 29 30 31 33 35 37 39 40 41 42 43 43 41 41 43 41 41 47 47 48 51 52 54 50 47 48 45 43 40 36 33 36 39 42 45 53 55 62 67 64 63 56 62 63 65 70 72 73 71 67
20 21 21 21 22 24 27 28 31 34 36 38 39 41 43 44 43 41 38 35 36 42 48 52 52 58 55 51 50 51 50 47 41 37 36 38 41 40 43 51 61 63 62 60 54 53 57 61 63 69 72 72 73 71
14 14 15 16 18 19 20 22 24 26 29 32 35 37 39 42 37 37 45 50 50 51 49 51 59 58 54 57 52 53 51 47 42 37 37 40 42 39 42 49 60 62 57 54 53 52 59 68 67 69 74 76 77 77
10 10 10 11 12 13 14 16 18 20 23 26 29 32 35 36 39 38 43 46 47 47 51 57 58 57 51 49 48 50 48 46 40 36 35 40 41 37 37 46 53 57 57 58 55 56 62 68 70 72 77 81 84 81
3 2 2 3 6 8 10 12 14 17 21 23 26 29 32 32 35 39 42 44 46 46 45 42 47 50 50 48 46 45 46 43 41 35 35 39 39 37 40 48 53 56 53 58 55 60 65 69 71 77 80 83 84 83
6 7 5 4 6 7 9 11 13 16 20 23 25 27 29 31 34 36 37 38 39 38 39 39 44 44 45 48 41 43 45 43 36 35 35 35 37 37 43 46 50 52 53 53 54 60 68 73 76 78 81 84 86 85
11 11 11 9 8 11 13 13 15 18 20 21 23 25 27 29 29 32 34 33 30 31 33 37 40 42 39 35 39 46 41 32 30 34 31 33 33 37 41 41 47 49 51 55 56 61 67 74 75 77 80 82 80 82
14 14 14 13 14 13 13 16 18 19 21 25 26 24 25 26 27 27 28 31 34 35 38 37 37 37 38 39 40 35 30 28 31 33 29 29 37 35 35 36 43 47 50 56 57 62 67 73 78 79 79 78 79 79
18 16 15 16 17 18 18 19 17 21 24 26 28 28 28 30 32 33 34 34 34 35 36 37 37 38 37 36 36 34 30 34 37 30 29 35 35 33 32 34 40 44 48 53 53 57 65 71 76 79 79 77 74 77
21 20 19 18 20 21 22 23 23 22 22 24 27 29 27 25 26 28 30 30 30 31 32 33 33 33 34 35 34 35 35 32 28 27 32 37 36 29 32 33 38 41 46 49 50 53 60 68 72 74 78 76 75 76
24 24 24 22 22 22 23 24 24 26 25 27 27 28 27 28 27 27 27 28 29 30 29 28 29 29 30 32 30 28 29 31 32 32 34 34 30 29 33 33 35 40 43 46 50 58 66 68 69 73 75 77 77 76
26 25 26 24 23 23 23 24 24 23 24 24 25 26 25 25 25 24 24 24 24 24 24 25 27 27 26 27 25 26 27 30 31 33 32 33 33 33 35 34 36 38 43 50 54 58 58 56 63 69 73 75 77 78
29 28 26 23 22 21 21 22 22 21 20 22 24 23 23 23 23 22 22 21 21 21 22 23 23 23 23 25 28 31 32 31 32 30 34 34 30 28 27 29 30 36 38 38 38 50 54 54 57 63 69 74 77 79
32 30 28 26 23 20 19 17 16 17 17 18 20 21 21 21 22 23 23 23 22 21 20 21 22 24 26 26 25 26 26 27 27 27 29 29 30 31 33 34 32 32 36 37 40 45 49 51 53 55 59 65 71 77
34 33 32 30 27 24 20 18 17 16 15 13 12 14 16 17 17 19 20 21 21 22 21 20 21 23 24 24 24 23 24 24 26 28 29 29 30 30 31 32 34 36 38 39 40 42 45 47 49 51 53 56 60 64
34 33 32 31 28 27 23 21 18 18 17 16 14 13 14 16 15 16 17 18 18 18 20 21 21 22 23 24 24 25 25 26 27 26 26 28 30 31 32 31 33 34 39 42 44 44 45 48 49 51 53 55 58 61
31 29 29 30 31 28 25 24 23 20 19 18 14 13 13 12 13 14 15 18 18 19 20 20 22 26 27 26 25 25 27 26 25 24 24 25 26 26 29 31 34 36 37 38 41 43 45 47 49 50 53 56 59 62
23 24 25 25 26 26 24 24 23 21 20 20 18 14 10 10 11 11 12 13 14 16 15 17 20 22 20 23 24 24 24 25 26 27 28 29 30 30 31 31 33 35 37 39 41 42 44 47 49 52 55 57 59 61
18 20 20 19 19 20 19 18 17 18 19 20 18 18 17 15 13 12 9 8 8 8 9 12 15 20 20 21 23 25 26 27 27 27 27 28 29 29 30 32 35 36 38 40 41 44 46 47 49 52 54 56 58 59
16 16 15 16 17 16 15 13 12 12 13 12 12 11 9 8 7 5 4 4 7 7 8 9 11 14 17 18 19 21 23 24 24 26 28 31 32 34 34 35 37 39 41 43 45 47 48 49 51 52 54 55 58 60
10 11 12 13 13 14 14 14 15 16 16 15 14 12 9 7 6 6 8 10 12 13 14 16 17 18 19 21 22 23 25 26 28 30 32 35 36 37 38 39 40 42 43 44 46 49 51 52 54 55 56 58 59 62
9 12 14 15 17 19 20 21 21 21 21 20 20 20 21 21 22 23 24 26 27 28 28 28 30 31 32 33 34 34 35 37 38 39 40 41 42 44 45 46 47 47 49 50 51 53 55 56 57 57 57 57 58 60
16 18 18 19 21 22 23 24 26 26 26 28 29 29 31 33 34 35 38 40 40 41 41 42 42 42 42 42 43 43 44 45 46 46 47 47 48 48 49 50 50 51 51 52 53 54 55 56 57 57 59 60 62 63
25 26 28 29 30 30 30 30 30 32 34 37 38 39 41 43 45 49 50 49 49 48 48 47 46 45 45 44 43 42 42 43 43 43 42 43 43 45 45 47 48 49 49 50 51 52 54 55 57 58 59 60 61 63
30 32 32 32 33 34 36 38 39 41 42 44 45 47 49 51 52 52 51 50 49 49 48 47 46 45 43 43 42 42 42 43 43 42 43 44 45 46 47 47 48 48 49 49 50 51 52 54 55 56 58 59 59 60
34 34 35 36 38 39 41 42 42 44 44 45 46 46 46 45 44 43 42 41 40 40 40 41 40 39 38 38 37 37 37 37 37 38 38 39 40 42 43 44 45 46 47 48 49 50 50 51 52 52 53 53 53 53
37 38 38 39 39 40 40 41 40 41 41 41 40 40 40 38 37 36 35 34 34 34 35 35 35 36 36 36 36 36 35 36 36 36 37 38 38 39 39 40 41 42 42 43 43 44 45 46 46 47 47 47 47 47
38 38 38 38 38 38 38 38 38 37 36 36 36 36 34 33 33 32 32 31 31 30 30 30 30 30 30 31 32 32 33 34 35 35 36 36 37 38 38 38 39 40 41 41 41 41 41 42 42 43 43 44 45 46
37 37 37 36 34 33 33 32 31 31 31 32 33 32 30 30 29 27 28 28 26 25 25 26 26 26 26 26 27 27 28 29 30 30 31 32 33 34 34 35 36 36 37 37 38 39 39 40 40 41 42 42 43 43

GFSWCAN_250_spd_084.txt.gz
Wind_Speed
26 27 28 28 29 29 29 29 29 29 30 30 30 29 30 32 31 33 36 38 41 43 44 44 45 46 49 49 48 49 46 48 47 46 46 47 47 47 46 49 51 53 60 63 62 61 62 58 59 64 65 67 64 65
25 25 26 26 26 26 26 26 26 27 27 28 28 29 32 33 33 34 35 38 41 44 43 44 46 49 51 53 52 51 45 44 44 43 43 45 48 47 46 48 52 52 56 60 64 61 62 59 60 65 59 63 59 59
23 24 25 26 26 25 26 27 27 27 27 27 27 28 30 33 33 36 39 41 42 45 44 44 46 50 50 49 48 45 40 42 41 42 43 42 43 45 42 46 49 50 54 58 61 64 63 61 58 53 53 51 54 59
23 23 24 25 26 27 28 29 29 30 30 30 29 28 30 32 34 36 38 41 43 45 44 43 44 45 49 46 44 43 41 40 43 40 40 40 41 42 40 44 45 50 50 55 60 64 62 61 56 49 50 50 54 59
23 25 27 29 31 32 33 34 34 35 34 34 33 32 33 34 36 40 41 41 41 44 42 45 44 46 46 44 43 40 38 38 39 37 36 38 38 40 40 38 43 46 44 46 56 62 63 58 56 46 46 49 54 61
23 24 24 25 26 28 30 31 32 33 34 35 35 35 35 36 38 43 44 40 39 42 44 45 47 46 46 44 40 39 40 37 37 37 36 35 35 35 35 36 45 46 49 54 59 62 63 59 47 41 45 47 53 62
18 19 19 20 22 23 24 26 28 30 32 33 35 36 38 38 37 34 38 44 48 47 46 48 45 46 46 44 40 38 39 36 33 34 33 33 35 31 31 32 44 45 48 58 60 63 64 61 44 46 47 54 56 59
11 12 13 14 16 16 18 20 22 25 28 31 33 35 37 40 39 36 42 48 52 54 52 48 48 44 42 42 39 38 40 36 29 28 31 34 31 26 25 36 42 43 43 49 56 61 62 54 44 47 50 55 59 61
7 8 8 8 8 9 11 14 16 19 22 25 29 34 36 35 35 40 47 45 45 50 51 52 48 46 45 42 41 39 39 36 30 27 31 33 28 26 33 40 44 43 41 46 52 62 62 50 48 50 54 54 63 65
4 3 2 0 3 6 8 11 13 16 20 23 25 27 29 32 36 43 45 43 41 39 42 44 51 52 42 40 40 40 40 37 32 33 33 29 38 32 35 40 45 42 37 42 48 56 57 51 50 55 60 59 64 66
8 7 6 6 6 5 8 11 14 16 18 21 24 26 28 31 35 35 36 38 38 38 38 39 42 44 41 43 42 39 35 36 36 37 33 36 41 37 39 42 42 41 35 37 42 47 50 52 54 60 65 66 64 70
13 14 12 11 11 10 10 11 14 16 16 18 22 25 27 27 26 27 28 31 32 32 35 37 39 37 37 39 40 41 40 37 37 33 29 33 45 44 40 40 39 34 35 38 42 47 52 55 54 58 69 73 73 76
18 19 18 17 16 14 14 13 13 13 18 21 22 23 23 23 23 23 23 25 31 33 36 40 41 42 42 43 39 36 29 34 42 36 28 40 48 38 33 32 34 34 35 38 45 46 46 53 59 59 63 72 75 77
21 20 21 21 21 19 18 17 15 16 17 18 20 22 24 26 27 30 34 35 34 36 37 35 32 34 36 34 32 34 38 34 31 34 37 38 36 32 29 29 31 31 35 41 41 42 42 45 54 58 62 71 76 81
24 24 23 23 22 21 20 19 18 18 19 21 22 24 24 23 23 22 23 24 26 27 26 26 27 28 28 28 30 32 32 32 32 34 35 33 30 30 29 30 31 32 31 36 35 37 39 46 50 54 58 64 71 77
23 24 24 23 24 25 24 21 20 21 21 22 22 24 23 23 23 23 23 23 23 23 22 23 25 25 25 26 28 31 34 34 33 33 33 33 32 30 29 30 31 32 36 37 40 42 46 50 54 59 61 63 66 70
27 24 23 22 22 22 23 22 20 20 20 21 23 23 22 23 23 24 24 24 24 24 24 23 23 24 25 27 29 29 31 31 31 29 31 33 32 29 29 32 32 36 37 37 42 43 44 51 56 63 62 62 64 68
27 28 26 24 22 21 20 19 20 18 18 17 16 17 19 20 22 23 23 23 23 23 24 24 25 26 27 27 27 27 27 28 28 29 31 31 31 31 32 33 33 37 37 36 40 44 47 48 54 56 54 56 60 64
28 28 27 26 25 24 22 18 18 17 17 15 13 14 15 16 16 18 19 19 20 20 20 21 22 22 24 24 24 25 26 26 27 29 30 31 32 31 31 31 32 36 38 39 41 41 41 41 44 49 51 52 53 57
32 32 30 27 24 24 23 20 17 16 16 13 11 10 11 12 12 14 15 15 15 14 16 18 20 21 21 23 24 26 28 28 28 29 29 29 28 27 27 29 31 32 34 35 37 40 44 46 49 51 52 55 57 59
32 32 32 30 27 25 24 22 21 19 16 15 13 10 10 9 10 11 11 13 13 13 14 15 17 19 20 21 22 23 24 25 26 26 27 28 28 28 29 28 29 32 32 32 34 35 39 43 46 48 50 52 54 56
31 30 29 28 30 29 27 24 22 22 20 17 15 13 11 10 10 9 5 7 8 10 11 12 13 13 15 17 18 20 22 23 24 24 25 27 29 29 31 31 30 31 32 33 36 39 41 42 44 46 48 50 52 55
26 25 24 24 24 23 24 23 22 20 19 18 16 15 13 12 12 11 7 5 5 5 5 6 9 12 15 18 17 20 22 23 24 24 25 26 28 28 30 31 31 32 34 35 36 37 40 42 45 47 49 51 53 55
19 21 21 21 19 18 16 16 15 14 14 13 11 10 9 8 9 6 5 3 5 5 5 5 7 10 13 15 17 21 22 23 24 26 27 28 31 32 32 32 33 34 36 36 38 39 41 43 44 46 48 50 52 54
15 14 16 16 17 17 18 17 18 17 16 13 11 9 8 8 8 8 8 9 10 12 14 16 18 19 20 22 24 25 26 28 29 31 32 33 34 35 35 36 37 38 39 41 42 44 46 47 49 50 51 52 53 54
9 11 13 15 16 17 18 18 19 20 21 21 20 21 21 20 20 21 21 22 23 25 26 27 28 29 31 32 33 34 35 36 37 38 39 40 41 41 42 42 43 44 45 46 47 49 50 51 52 53 54 55 55 56
13 15 17 19 20 21 21 22 23 23 23 23 25 27 29 31 33 33 36 36 37 37 36 36 37 37 37 38 39 40 40 41 43 44 45 46 47 48 49 49 50 50 50 51 52 53 54 55 55 56 57 58 60 61
19 22 23 25 27 28 29 29 30 31 33 35 37 38 39 40 41 43 44 42 42 41 40 40 39 38 38 38 38 39 39 40 41 42 42 43 44 44 45 47 48 48 49 50 51 52 53 54 56 57 58 60 61 62
25 28 31 32 32 33 34 35 37 39 41 42 43 44 45 46 45 44 42 40 39 40 39 39 38 37 36 36 36 36 37 37 37 38 39 41 43 44 46 48 49 50 52 53 54 55 56 57 58 58 59 60 61 62
33 34 35 35 36 37 38 40 41 43 43 44 45 46 45 43 41 39 37 36 35 34 34 33 34 35 35 36 35 35 34 35 36 36 37 38 40 41 42 43 44 45 46 47 49 50 51 52 53 54 54 55 55 55
36 37 38 39 40 41 41 40 41 41 40 39 39 39 38 38 36 34 33 32 31 31 31 31 31 31 32 32 33 33 33 34 34 34 34 35 36 37 38 39 39 40 41 42 43 43 44 45 45 46 46 47 47 47
41 41 40 40 40 39 39 38 36 35 34 34 34 34 34 33 32 32 30 29 29 29 28 28 28 28 29 29 30 30 31 32 32 32 33 33 33 34 35 35 35 36 37 38 38 39 39 39 40 41 41 42 43 43
39 39 38 38 36 35 34 33 33 33 33 32 32 32 31 30 30 28 26 26 27 27 26 26 26 26 27 27 27 28 29 29 30 30 31 32 33 33 34 35 35 35 35 35 36 36 37 37 38 38 39 39 40 41

GFSWCAN_250_spd_087.txt.gz
Wind_Speed
23 23 23 23 24 24 25 26 27 27 27 27 27 26 25 26 28 29 29 33 38 40 38 43 44 47 51 52 55 55 52 44 45 44 48 52 55 54 53 56 54 54 55 57 58 52 57 66 64 64 65 70 73 76
24 24 24 24 25 25 24 24 23 23 23 24 25 25 26 26 28 28 30 35 37 38 42 43 45 46 48 51 51 49 46 44 45 47 49 51 52 47 48 50 50 48 48 51 51 51 56 58 58 57 59 65 65 69
24 23 23 23 23 22 22 21 22 22 22 23 24 24 25 27 30 30 31 33 36 39 41 41 41 42 43 46 46 43 45 46 47 45 45 45 44 46 46 48 44 46 44 48 44 52 53 55 56 56 60 59 64 57
23 23 22 22 21 21 21 22 23 23 23 24 24 24 25 27 29 30 31 33 35 38 39 41 41 42 43 41 41 43 39 41 41 42 42 43 44 45 47 48 47 46 44 47 43 48 48 51 53 56 59 60 60 57
21 20 20 20 21 21 21 22 22 22 22 23 25 26 28 28 29 31 33 34 35 36 38 41 41 42 41 41 40 37 36 38 40 40 40 42 43 44 46 43 46 44 43 45 44 44 47 50 53 53 54 57 55 45
18 20 21 23 24 24 24 24 24 24 25 26 26 28 30 31 31 29 29 30 32 32 37 39 39 38 39 38 36 36 34 37 37 36 37 37 40 40 41 41 43 44 40 41 43 42 46 49 51 54 52 50 44 38
17 18 20 20 21 22 23 25 26 28 29 29 31 31 31 33 31 30 31 38 37 37 39 37 37 38 37 35 34 35 33 34 33 34 33 38 40 37 36 35 42 42 38 38 42 39 45 49 50 51 51 49 44 32
13 14 14 15 16 18 20 22 24 27 30 33 34 35 35 35 37 38 38 37 37 37 36 35 35 33 34 35 33 32 30 31 31 33 35 37 35 31 29 34 43 43 36 37 41 39 43 49 50 51 46 47 43 37
8 8 9 10 12 13 16 18 21 24 27 31 34 36 37 32 33 44 46 42 38 37 35 33 34 34 31 31 30 29 29 28 29 34 38 39 34 27 36 42 41 42 35 34 37 40 40 43 46 47 47 44 44 42
3 2 3 6 7 7 9 13 17 20 23 25 27 27 27 30 37 45 49 46 42 37 32 32 30 29 31 31 29 27 28 29 27 31 32 29 29 36 38 40 42 42 34 28 31 38 40 44 44 48 48 42 44 46
4 3 4 4 4 4 5 9 13 18 20 22 21 24 31 36 39 41 43 35 35 39 37 35 32 30 33 31 28 25 23 20 21 20 21 26 31 37 41 43 44 41 32 29 28 32 39 43 48 48 49 45 44 44
8 8 8 9 10 9 9 11 14 17 22 27 29 30 32 32 29 28 31 32 37 39 41 42 40 33 32 31 30 26 26 24 21 24 23 27 35 42 43 42 38 34 30 28 24 30 35 39 47 49 53 48 46 50
13 14 14 15 16 15 13 14 16 18 20 20 21 22 23 22 23 25 27 31 36 40 43 43 42 42 42 41 34 32 27 26 28 25 26 32 40 44 45 39 30 24 26 31 27 29 33 36 39 43 46 49 48 47
19 20 19 17 18 19 18 16 14 16 20 23 24 26 29 31 35 38 39 40 41 43 44 44 43 43 43 42 40 42 40 37 31 31 42 47 42 41 39 28 19 24 28 28 31 34 34 35 38 41 46 52 55 52
24 24 25 23 22 20 19 18 18 18 19 19 19 21 23 26 29 32 33 35 38 39 39 40 41 40 36 34 35 37 38 36 36 36 32 28 29 32 35 34 34 34 32 31 31 33 34 35 39 43 45 46 50 54
26 27 27 26 25 25 23 19 17 18 20 21 21 21 22 21 22 23 25 26 26 26 26 27 29 31 31 32 32 33 32 30 28 27 28 28 29 32 34 33 31 33 33 31 33 33 35 36 41 41 43 46 49 52
28 28 27 27 26 26 26 25 23 21 19 19 19 20 21 22 22 24 24 25 25 26 27 27 28 29 28 28 27 26 25 25 26 26 27 27 30 32 34 32 31 31 32 32 34 36 36 37 39 39 40 43 47 49
26 27 27 25 24 24 24 24 24 23 21 20 20 20 19 17 18 19 19 19 19 19 20 21 22 24 24 23 24 24 24 24 25 27 28 29 31 33 33 32 31 32 33 34 36 37 36 39 41 40 41 43 46 50
27 25 25 25 25 24 24 23 22 22 21 19 18 18 17 16 15 16 16 15 15 15 16 17 18 18 19 19 20 21 23 24 24 25 27 29 31 31 29 30 31 31 31 32 35 38 38 38 40 41 42 45 49 52
30 29 27 26 25 24 24 24 21 21 20 17 15 13 12 11 10 9 9 10 11 12 13 15 16 18 19 18 19 22 23 25 25 26 26 26 28 27 27 29 30 30 31 31 34 38 42 41 41 41 43 46 48 50
36 35 33 30 28 25 23 22 20 20 19 17 15 14 12 10 8 7 6 6 8 9 10 12 14 15 16 17 18 19 19 20 20 22 24 25 24 23 25 26 28 29 30 32 33 35 37 40 42 43 43 45 47 48
34 34 35 34 34 32 30 27 26 23 21 18 16 14 13 13 12 9 7 7 4 2 4 6 7 9 10 12 13 14 16 18 19 20 21 22 23 23 25 26 27 28 29 31 32 33 34 37 40 42 43 45 47 48
28 28 28 28 27 25 27 26 25 23 21 21 18 15 13 11 9 9 7 4 3 4 5 6 6 6 6 7 9 11 13 13 16 18 18 20 21 22 24 25 26 28 30 32 33 34 35 36 38 39 41 44 46 47
22 23 22 19 17 17 18 18 18 18 15 14 13 11 9 7 6 4 2 1 4 5 4 5 7 9 11 13 15 16 18 20 21 22 23 24 26 26 27 28 30 31 32 31 33 35 36 37 39 40 43 45 47 48
16 16 17 17 17 15 15 15 14 14 13 13 11 9 8 9 8 9 10 11 12 13 15 16 17 19 20 21 22 23 24 25 27 28 29 30 31 31 32 33 35 36 37 38 38 40 42 43 43 44 46 47 49 50
10 12 13 13 14 15 16 18 18 19 19 20 19 20 20 19 19 20 21 22 23 24 25 26 28 29 30 31 32 34 35 35 35 36 37 37 37 37 38 39 40 41 41 42 43 44 46 47 48 49 50 51 52 54
9 11 13 16 17 19 21 22 23 23 24 26 27 28 29 31 32 32 32 32 31 31 30 30 31 32 33 33 34 35 36 38 40 41 43 44 44 45 46 46 46 47 47 48 49 50 51 52 53 53 54 55 56 56
14 16 18 20 23 25 28 29 30 31 32 35 35 35 36 37 36 34 34 34 34 34 32 32 32 32 33 34 34 36 36 37 39 40 42 43 45 46 47 48 48 49 49 50 50 51 52 53 54 55 57 57 58 60
21 23 25 27 29 31 33 35 37 38 39 39 39 40 39 38 37 36 35 33 31 31 30 31 31 31 32 32 33 34 34 36 36 37 39 41 42 44 46 47 48 49 51 52 53 54 55 55 56 57 58 59 60 60
27 29 31 33 35 36 37 39 40 41 40 40 39 38 37 36 35 33 31 29 28 28 27 27 27 28 29 30 31 31 32 33 34 35 35 36 38 40 41 42 43 44 45 47 48 49 50 50 51 52 53 53 54 55
32 34 36 36 37 38 39 39 39 38 37 35 34 35 34 34 32 30 30 29 28 28 27 28 28 28 28 28 29 30 31 32 32 32 33 33 35 36 36 37 38 39 40 40 41 41 42 43 44 44 45 45 46 47
37 38 37 37 38 37 37 35 33 33 33 33 33 32 31 30 29 28 28 27 26 26 26 27 27 26 27 28 28 29 29 30 31 31 31 32 32 32 33 33 34 34 35 36 36 37 37 38 39 39 40 40 41 41
37 38 38 37 35 35 33 31 31 30 30 30 30 30 30 30 29 28 27 25 25 24 24 23 24 24 24 25 25 25 26 27 27 28 29 30 30 31 31 31 32 33 33 33 34 34 35 35 36 36 37 37 38 39

GFSWCAN_250_spd_090.txt.gz
Wind_Speed
26 25 24 24 23 23 22 23 23 24 24 23 24 25 25 25 27 26 29 32 35 36 34 40 41 42 45 48 51 53 52 52 50 54 57 57 56 58 62 64 64 61 59 63 63 62 65 73 74 76 77 73 78 76
26 25 24 24 23 23 23 23 23 23 24 24 25 26 26 25 25 27 29 30 30 33 36 38 37 37 42 47 48 45 47 45 48 51 55 56 58 59 60 58 56 56 55 56 57 58 60 64 63 65 66 66 68 70
26 26 25 24 23 22 22 22 22 22 22 23 24 25 26 26 26 26 26 26 28 31 34 37 42 43 44 46 45 45 44 42 44 46 49 52 55 56 53 56 51 54 54 56 55 59 58 61 58 57 58 61 61 61
23 21 20 19 18 18 18 19 20 20 21 20 21 22 24 26 26 26 26 26 27 32 35 36 37 40 39 40 42 41 38 40 41 42 44 47 50 49 51 50 51 52 53 52 52 54 51 57 52 51 54 55 56 57
19 17 16 16 16 17 18 20 21 21 21 20 21 22 23 25 26 25 25 26 28 31 34 36 35 37 38 38 37 35 38 41 43 43 45 47 48 48 50 49 51 50 48 49 50 48 49 45 46 47 47 49 52 53
17 18 19 19 19 19 19 19 20 22 24 24 25 25 23 23 23 24 24 26 27 29 32 34 36 36 36 36 35 36 37 39 40 43 45 46 47 47 47 49 47 47 47 47 46 46 47 42 43 43 45 46 48 51
21 20 21 22 22 23 23 24 24 24 24 25 27 26 24 24 25 27 32 35 36 36 35 34 35 37 36 36 36 33 33 34 37 39 42 43 43 43 43 45 46 47 45 44 45 43 45 39 40 41 43 45 47 48
16 17 17 18 20 21 23 25 26 28 30 30 29 29 28 27 25 28 29 30 33 33 32 33 34 35 37 35 35 35 37 38 40 40 42 42 41 41 39 43 49 46 44 44 42 41 43 38 35 38 40 42 45 47
12 13 15 17 18 18 20 22 25 28 31 33 34 35 32 27 28 31 28 30 29 30 30 32 33 33 32 32 32 32 35 35 36 38 41 41 41 36 42 46 49 46 43 41 38 36 39 38 35 37 39 41 44 45
8 10 10 9 13 18 20 22 24 27 30 32 32 28 28 33 37 33 28 26 25 24 26 27 28 30 29 27 28 30 33 37 39 41 41 37 37 42 46 49 49 45 40 37 34 34 36 39 34 34 35 38 42 44
3 3 5 9 11 13 16 18 19 21 23 23 24 26 32 38 42 41 31 24 23 25 26 27 26 27 27 28 27 29 32 36 39 39 35 36 39 43 47 46 46 44 40 35 30 31 35 39 40 34 35 37 41 44
3 5 6 7 11 13 16 19 22 25 26 25 27 31 34 38 37 35 32 30 27 25 26 27 26 26 26 27 27 27 29 32 34 35 37 37 43 46 46 45 44 42 40 34 26 28 35 38 40 39 33 34 37 40
8 8 10 10 13 14 15 17 16 16 21 27 31 30 31 29 25 29 33 35 39 38 31 28 28 28 28 25 23 23 23 29 32 30 35 42 47 45 42 42 41 38 34 31 28 29 31 35 37 40 36 31 35 38
16 15 15 16 16 17 16 17 20 20 19 22 23 24 25 31 36 38 39 41 44 41 35 32 32 30 29 28 26 23 24 23 25 28 32 38 40 40 39 35 34 35 33 31 30 34 33 35 38 39 39 36 37 38
23 23 22 21 19 19 19 19 17 17 18 22 27 30 32 34 36 37 38 40 42 43 42 41 38 35 32 28 24 23 21 24 26 32 35 35 36 34 31 33 36 38 33 30 31 33 34 36 41 42 41 39 38 38
28 28 27 26 25 24 20 17 18 20 19 15 15 17 19 23 27 30 34 36 40 41 41 41 41 37 31 26 21 21 23 25 28 30 29 28 25 29 34 36 38 37 34 33 37 37 36 37 37 39 41 42 41 40
30 32 31 30 29 27 25 22 19 16 16 19 20 19 16 18 19 22 25 27 29 32 33 33 33 33 31 30 30 29 28 28 30 29 30 33 33 32 31 33 33 33 32 33 34 34 34 35 36 38 40 40 40 42
28 29 31 32 32 29 28 27 23 22 20 18 17 17 17 17 18 18 19 20 22 24 26 27 27 28 28 27 27 26 28 30 30 29 29 30 31 32 31 31 31 30 31 32 33 34 35 36 38 40 42 41 40 42
29 28 28 28 29 29 27 27 27 26 23 21 20 19 18 17 16 16 15 16 17 17 18 19 19 19 20 20 21 21 21 22 23 23 26 28 28 28 27 28 29 31 32 33 34 35 35 37 40 41 40 41 42 39
32 31 30 29 27 27 24 24 23 23 24 22 20 19 19 17 14 13 12 12 13 13 14 15 15 16 17 18 18 19 18 18 19 20 22 23 25 26 27 28 29 31 32 34 35 37 37 39 40 41 40 40 42 44
35 34 32 31 30 29 28 25 23 21 19 18 18 18 17 15 14 13 11 10 9 8 8 8 9 9 11 13 16 18 18 19 21 22 23 23 24 25 27 28 29 30 30 31 32 34 36 37 39 40 38 36 38 40
34 33 34 32 33 32 31 29 27 25 21 19 16 15 14 12 11 10 9 9 9 9 9 10 11 12 13 14 16 18 18 19 19 20 22 23 24 24 24 24 26 26 28 28 28 29 32 33 33 34 36 37 37 39
26 26 26 26 25 24 26 25 24 23 22 20 17 15 13 11 9 6 5 5 4 5 6 8 10 12 15 17 17 18 18 20 21 21 22 23 22 22 23 25 26 27 27 28 28 28 29 30 31 33 35 37 38 39
22 22 22 21 19 20 20 19 17 16 14 14 12 10 9 8 7 5 3 3 5 5 7 9 11 14 16 18 19 20 20 21 23 24 24 24 26 27 28 28 29 30 31 31 32 33 34 35 36 37 39 41 42 43
16 17 17 16 16 16 16 17 17 16 16 15 14 13 10 12 12 12 12 13 14 15 16 18 19 20 21 22 22 22 22 23 24 25 27 29 30 31 32 33 34 34 34 35 36 37 38 39 40 41 42 43 45 47
9 11 12 13 14 15 17 18 18 19 19 19 20 21 20 19 20 21 22 23 23 24 24 24 25 26 27 28 29 30 31 32 32 33 33 34 34 35 34 35 36 36 37 38 39 39 41 42 43 44 45 47 48 49
8 11 12 13 14 17 19 21 22 24 26 28 28 28 28 28 27 26 26 27 27 28 29 29 29 30 31 32 33 35 36 37 38 38 38 39 39 40 40 41 41 42 43 43 44 46 46 47 48 49 50 51 53 54
14 15 16 17 19 21 23 25 27 30 31 32 32 33 33 31 30 29 29 29 28 29 29 29 30 31 32 34 36 37 38 39 40 40 41 42 42 43 43 44 44 44 45 46 46 48 49 50 51 51 52 54 55 55
21 22 23 24 26 28 30 32 35 36 38 37 37 35 33 31 29 29 28 27 26 26 26 26 28 29 30 31 32 33 35 36 38 38 39 41 42 42 43 44 44 45 46 47 47 48 49 49 50 51 51 52 52 52
26 28 29 30 32 34 36 38 38 39 38 37 35 34 32 32 31 30 28 26 25 25 25 26 26 27 28 30 31 31 32 33 34 35 35 36 36 37 38 39 40 41 42 43 44 44 45 45 46 46 47 47 47 48
32 32 33 34 36 38 38 38 37 36 35 33 32 32 31 31 29 28 27 25 25 24 24 24 25 26 26 26 26 27 28 29 30 31 32 32 32 33 34 34 35 36 36 37 37 38 39 40 41 41 42 42 42 43
35 36 37 37 37 37 37 35 33 32 31 30 30 29 28 28 28 27 25 24 23 22 22 22 23 22 22 22 23 24 24 25 25 26 27 28 29 29 30 31 32 33 33 34 34 35 35 36 37 37 38 38 39 39
36 37 36 36 36 35 34 32 30 30 30 29 29 28 27 26 26 25 24 22 21 21 21 22 21 21 21 21 22 22 22 23 24 24 25 25 26 27 28 28 29 29 30 31 31 32 33 33 34 34 34 35 35 36

GFSWCAN_250_spd_093.txt.gz
Wind_Speed
33 31 28 25 24 24 23 22 22 22 22 22 23 23 25 26 27 26 28 32 32 27 27 34 34 34 35 39 41 44 47 48 49 52 59 64 67 70 71 73 72 72 71 71 72 70 71 74 77 79 82 86 90 89
31 29 27 26 25 24 23 22 23 23 24 23 23 23 24 24 23 24 27 26 25 26 30 32 32 31 34 36 37 37 41 45 47 51 57 61 64 66 69 70 70 69 69 68 67 67 68 73 77 80 82 83 84 82
30 27 24 23 23 22 23 23 23 23 24 24 24 23 23 23 21 22 24 25 24 27 30 32 34 34 36 39 37 39 41 42 47 51 54 58 60 65 67 66 64 63 62 60 61 64 67 69 73 76 77 78 75 74
26 24 22 21 20 20 21 22 22 23 24 24 23 23 23 23 22 21 22 23 24 26 27 26 30 34 31 36 39 39 38 41 44 46 49 52 57 60 62 60 57 58 56 60 60 62 58 61 61 59 61 61 59 60
24 21 19 19 18 17 18 19 20 21 21 21 20 19 20 20 21 22 22 22 22 22 24 27 27 30 31 34 35 35 35 36 37 39 44 52 56 56 56 54 55 57 58 57 60 53 54 54 55 56 54 52 51 51
19 19 18 18 19 19 19 19 18 18 20 20 19 18 19 19 21 24 25 27 25 23 24 25 27 30 33 34 35 33 33 34 36 40 42 46 51 51 51 53 55 54 55 56 52 53 54 53 52 53 49 46 44 46
19 21 22 22 23 24 24 24 23 20 19 20 20 20 19 20 23 25 26 24 24 24 27 27 28 29 31 32 31 32 32 34 37 39 42 43 45 46 48 51 52 54 54 53 53 53 50 48 49 47 44 44 43 41
18 19 20 21 22 23 25 27 27 27 24 23 23 22 22 21 21 22 23 23 24 24 26 26 29 30 30 31 31 33 34 36 38 39 40 43 43 45 47 50 51 51 50 51 50 50 47 45 47 44 41 39 39 39
16 16 17 18 19 22 25 27 28 29 29 29 27 23 18 21 21 22 23 23 23 23 26 27 27 27 28 28 29 31 32 35 37 39 41 41 42 43 47 51 51 50 51 50 49 47 47 41 40 39 36 38 36 37
11 12 14 16 19 21 23 26 30 33 36 34 29 22 24 25 20 18 19 21 21 24 26 27 28 28 28 29 30 30 32 33 35 37 35 36 40 45 46 51 51 49 48 47 45 42 40 38 36 37 37 35 36 35
8 10 11 12 13 15 18 22 27 30 31 31 29 32 33 31 25 18 17 18 20 24 27 29 29 30 29 29 29 32 33 36 37 38 37 39 42 42 47 47 49 46 44 42 40 38 37 37 36 37 36 35 36 37
4 6 7 9 11 14 17 21 23 25 28 31 36 38 40 38 26 21 18 19 19 21 24 26 27 28 29 30 32 34 35 36 39 39 38 38 42 45 46 47 48 47 44 40 37 36 34 36 38 38 39 36 36 37
6 6 7 11 14 15 15 17 21 25 28 32 35 39 38 32 27 24 26 25 27 29 24 23 25 28 28 30 32 32 34 38 38 39 40 44 49 49 49 49 48 45 40 35 32 34 36 37 39 41 42 41 36 37
11 9 10 11 14 14 17 19 18 20 24 27 29 30 30 33 36 38 37 36 33 27 26 26 26 25 25 26 24 26 30 34 37 38 42 51 51 47 41 39 39 38 36 38 36 33 31 34 37 40 42 42 40 37
16 17 16 16 18 17 17 19 20 21 22 23 24 26 32 38 39 38 37 35 31 29 29 27 25 25 24 22 23 26 29 31 35 42 48 46 43 36 34 35 34 34 35 36 35 35 34 34 36 41 40 41 42 43
18 20 22 22 21 20 20 20 19 17 17 20 23 26 26 28 29 32 33 33 33 31 28 28 29 29 27 26 28 29 31 36 42 41 41 39 38 38 37 38 38 39 40 39 39 37 33 33 38 41 42 44 46 45
23 21 23 25 25 24 21 20 20 21 19 15 13 13 18 20 22 25 28 30 33 33 34 33 32 30 26 25 27 29 30 32 33 36 37 38 38 39 40 41 42 41 43 43 43 41 39 36 39 40 39 38 40 41
26 25 25 25 26 26 25 23 21 19 17 17 17 16 15 15 15 17 19 20 24 26 28 29 28 28 25 23 23 25 28 30 33 36 41 42 42 41 40 39 40 41 39 39 36 34 34 35 37 37 38 39 39 40
24 25 27 27 26 26 26 25 22 21 21 20 19 17 16 14 13 13 14 15 17 18 21 23 24 25 25 24 25 24 24 25 27 28 31 32 32 33 32 32 32 32 32 32 31 31 32 32 34 35 37 40 41 42
27 26 26 27 26 23 24 25 25 24 23 22 21 19 17 16 15 14 13 13 12 13 14 16 18 19 20 21 21 22 23 24 24 25 26 28 28 27 27 29 30 30 31 32 33 34 34 35 36 36 36 37 38 40
33 32 31 30 30 26 24 25 22 20 20 19 19 18 17 16 15 15 14 14 13 13 12 12 12 13 14 15 17 18 20 21 23 24 25 25 26 26 26 27 29 32 33 35 37 37 38 39 40 40 41 42 43 43
35 35 34 32 32 31 28 27 27 26 23 21 18 15 13 11 10 9 9 9 10 11 13 14 16 17 18 18 18 19 20 21 22 23 24 25 26 28 30 32 34 34 35 37 37 38 40 41 42 42 42 43 43 43
27 28 27 26 27 26 26 25 24 23 22 20 18 16 14 12 8 6 4 3 4 6 8 11 14 17 19 20 22 24 25 25 26 29 31 32 32 33 33 35 36 38 39 39 39 39 40 40 41 41 41 40 40 41
20 21 21 20 20 21 19 19 17 17 16 15 14 11 9 8 6 4 3 3 5 5 7 10 13 16 19 20 21 23 24 25 27 29 31 33 34 35 35 36 37 38 38 38 38 38 39 39 39 40 41 41 42 43
15 17 16 16 16 17 17 17 16 15 15 15 16 15 14 14 16 16 17 16 15 16 17 19 19 20 20 21 22 24 25 28 29 30 31 33 35 37 38 38 37 37 38 39 40 40 39 39 40 41 43 45 47 47
12 13 14 15 15 16 17 18 19 19 20 21 23 23 23 22 22 22 22 23 24 25 25 25 26 28 29 30 31 32 32 33 33 34 34 34 35 34 34 35 36 36 37 37 37 38 39 40 40 41 42 43 44 46
13 14 16 17 17 18 19 20 22 23 25 28 28 29 28 27 25 27 27 27 28 29 30 32 32 33 34 35 36 37 38 38 39 39 39 39 40 40 41 41 41 42 42 43 43 44 44 45 46 47 48 49 49 50
16 17 19 21 22 24 25 27 29 31 33 34 34 34 33 29 29 28 27 27 28 29 30 31 31 32 33 34 35 36 37 38 40 40 41 41 41 41 41 41 41 42 43 44 44 45 45 46 46 47 48 48 49 50
21 23 25 26 28 30 31 33 36 38 39 39 37 35 34 32 31 29 29 27 27 26 26 28 30 31 32 33 33 34 34 35 36 37 37 38 39 39 39 40 40 40 41 41 42 42 43 43 44 44 45 46 47 47
26 27 29 31 33 35 37 39 41 42 42 40 37 35 34 34 33 32 30 28 26 25 25 26 27 28 29 30 31 32 33 33 33 34 34 34 35 35 35 36 36 37 37 38 39 39 40 40 41 41 42 43 43 44
31 33 34 36 37 39 40 42 43 42 40 36 34 33 33 32 31 31 29 27 27 25 24 24 25 26 27 28 29 29 29 30 30 31 32 32 33 33 33 33 33 34 34 35 35 36 37 37 38 39 39 40 41 41
36 35 37 38 38 40 41 40 39 38 35 33 33 32 31 30 29 29 29 27 26 24 24 23 24 24 24 24 24 24 25 25 26 26 26 27 27 27 28 29 29 30 31 31 32 33 34 34 35 36 36 37 38 39
37 38 38 39 39 37 37 37 36 33 31 31 31 31 30 29 29 28 26 24 24 23 23 22 22 22 22 22 23 23 23 23 23 23 24 24 25 25 26 27 28 28 29 30 30 31 32 33 33 34 35 35 36 36

GFSWCAN_250_spd_096.txt.gz
Wind_Speed
53 53 45 41 37 33 30 27 24 22 22 22 23 22 21 19 19 18 19 19 17 17 23 23 25 28 28 31 32 33 37 37 36 38 43 47 51 55 60 62 64 68 69 71 72 70 71 71 68 69 68 74 76 79
50 46 41 37 33 30 28 26 23 23 23 22 21 19 19 18 17 18 19 18 17 19 24 25 27 26 28 28 31 33 38 40 41 43 44 47 50 54 60 61 62 64 69 71 71 72 71 71 70 73 73 75 77 80
45 40 37 33 30 29 28 26 24 23 22 22 21 20 18 18 18 17 18 18 19 23 23 22 20 24 27 27 30 33 33 31 36 40 43 45 47 50 55 59 61 62 65 66 69 70 69 69 69 71 77 78 79 82
38 36 33 31 29 28 25 25 24 23 22 21 21 20 20 20 19 18 17 17 19 20 18 21 23 22 22 28 30 31 28 31 35 36 38 40 43 43 50 54 56 59 60 63 65 68 68 67 68 67 68 69 73 77
33 32 30 28 27 24 22 21 20 20 20 20 20 20 20 21 21 21 20 18 19 19 20 20 22 26 27 27 27 28 31 36 37 37 39 40 41 43 46 49 54 54 56 60 65 65 63 66 66 68 67 67 69 67
29 28 28 26 25 24 23 21 19 17 17 17 17 18 18 18 19 22 20 17 18 20 21 21 22 22 24 26 30 33 32 31 34 37 39 41 43 44 45 49 50 51 53 57 59 57 56 59 58 58 60 58 58 56
26 27 27 26 26 25 24 23 22 20 18 16 16 17 18 18 17 18 16 17 18 18 18 19 22 23 23 24 25 27 30 34 37 39 41 41 40 39 41 44 46 52 50 51 54 51 56 53 53 51 51 53 50 47
24 25 25 26 26 27 27 27 26 25 23 19 16 16 17 15 16 17 17 17 17 17 18 17 17 20 22 24 27 31 32 34 35 36 35 35 34 36 39 45 48 49 50 51 47 54 53 50 50 49 50 47 48 47
20 22 23 24 25 27 27 27 29 28 26 22 18 15 15 15 15 14 15 16 16 16 17 18 19 20 20 24 28 32 34 35 35 36 37 37 36 37 45 45 46 48 51 51 53 52 50 49 49 48 47 45 45 43
17 18 19 20 22 25 28 30 30 31 28 23 18 18 20 18 15 13 13 16 17 17 16 18 21 23 24 25 28 30 32 32 35 36 37 38 40 44 43 44 46 46 48 49 49 48 49 46 45 45 45 43 43 42
12 14 15 17 19 22 24 27 29 30 26 25 23 25 19 16 17 15 14 16 19 20 20 21 24 25 26 26 27 28 29 30 30 31 32 34 37 38 42 45 45 43 45 47 47 45 44 44 43 42 43 42 44 43
7 7 9 13 17 20 22 24 26 28 32 33 34 30 26 20 17 17 14 16 18 20 23 24 25 27 29 28 27 27 28 28 29 29 30 31 35 39 41 41 43 42 44 45 44 44 42 42 42 42 43 43 42 41
8 9 10 12 15 18 21 24 25 26 30 34 34 32 29 22 19 20 19 18 21 20 20 22 23 25 26 28 29 28 29 31 31 30 31 36 37 37 39 40 40 39 39 38 39 40 39 39 42 42 42 42 41 39
11 10 9 11 14 16 17 19 22 23 26 28 30 30 27 25 24 26 28 26 19 16 18 20 22 22 24 25 26 28 31 30 31 32 34 40 42 41 41 40 38 40 39 39 40 41 41 41 41 42 43 42 43 42
12 13 13 15 16 17 19 20 20 22 23 24 27 29 31 35 34 33 28 24 21 21 20 20 20 20 19 21 22 26 28 29 33 37 42 41 40 40 39 39 39 39 38 39 39 38 37 37 37 40 41 40 41 41
14 15 16 18 19 18 18 19 19 20 21 21 23 28 30 31 30 27 26 25 25 25 23 22 20 19 20 21 24 28 30 34 40 40 40 40 38 36 34 33 35 35 34 35 37 36 34 33 34 34 34 34 36 39
18 18 19 20 21 21 21 20 20 20 19 17 16 15 17 21 22 25 26 26 25 25 26 27 24 26 26 26 29 31 36 38 37 37 38 39 39 37 35 35 35 35 35 36 35 36 36 36 36 36 34 34 36 38
21 21 23 23 22 20 21 23 24 23 20 17 15 14 14 16 18 20 22 23 24 26 25 26 26 26 28 30 32 31 29 30 33 35 36 38 39 39 38 37 37 37 37 38 38 39 40 40 41 39 36 38 38 39
27 26 24 24 23 23 22 22 20 20 20 20 19 17 16 15 14 14 14 15 16 17 20 22 25 26 25 24 25 27 30 31 32 32 33 35 36 38 41 42 43 44 43 43 44 46 45 46 45 41 39 36 35 35
29 30 29 27 24 22 23 22 22 20 19 18 17 15 14 14 14 14 14 14 14 14 15 16 17 19 19 19 18 19 20 24 30 35 38 40 42 43 45 46 46 46 44 42 41 39 39 37 36 34 33 32 33 34
31 30 30 28 27 27 26 26 25 24 20 20 19 16 14 11 9 8 9 10 10 11 13 15 17 19 21 22 24 25 26 29 31 33 35 37 38 37 37 36 37 37 37 37 37 35 34 34 34 35 37 38 40 40
35 33 32 31 31 30 27 26 25 23 21 20 18 17 15 13 10 8 6 5 5 6 9 11 14 16 17 19 21 23 25 25 26 28 29 30 30 30 31 32 34 35 37 37 36 36 37 39 40 41 42 43 43 44
30 29 29 28 28 26 25 25 23 21 19 18 17 15 12 10 7 5 2 2 2 4 6 9 12 15 17 20 22 24 25 27 28 29 30 32 33 33 34 35 35 36 38 39 40 40 41 42 43 44 45 46 47 47
23 24 24 23 21 21 18 17 14 14 13 12 11 7 5 4 2 2 4 4 7 9 11 14 15 17 18 20 22 24 26 28 31 32 33 35 36 36 36 37 38 39 40 41 42 42 42 43 43 44 45 46 47 47
22 21 21 21 20 20 19 19 18 17 17 15 15 14 14 12 14 13 13 14 14 15 17 20 23 24 26 27 28 29 30 31 31 31 33 34 34 34 34 35 36 37 38 39 41 41 42 42 43 44 44 45 45 45
18 19 19 20 19 20 21 22 23 24 24 24 25 25 26 26 25 24 23 22 23 25 26 27 27 29 30 31 32 33 34 35 35 36 37 37 38 38 38 38 38 38 38 38 39 40 41 42 42 42 42 43 45 45
14 15 16 19 20 20 21 23 25 26 27 28 28 30 31 32 29 28 27 27 27 28 29 30 31 32 32 33 33 34 35 35 36 37 37 38 39 39 40 41 42 42 43 43 43 44 45 45 46 46 47 47 48 49
16 18 19 21 22 23 25 27 29 32 34 35 35 36 35 33 32 30 29 28 28 28 28 29 30 31 32 32 32 33 33 34 34 36 37 37 38 38 38 39 39 39 40 41 42 42 43 44 45 45 46 47 47 48
18 19 21 23 25 28 30 32 35 37 39 39 40 38 35 33 32 31 29 28 27 26 25 25 26 28 29 31 32 32 32 32 32 33 33 34 35 35 36 36 37 37 37 37 38 39 40 41 41 42 43 44 44 45
22 24 26 28 31 33 36 38 40 42 42 43 41 37 36 35 35 32 31 29 27 25 24 24 24 26 28 29 31 31 31 31 31 31 31 31 31 32 33 34 34 35 36 37 37 38 38 39 39 40 41 42 42 43
29 30 32 34 36 38 41 42 43 43 44 41 39 36 35 34 34 32 30 28 26 26 25 24 24 25 26 27 27 27 27 27 28 29 29 30 30 30 30 31 31 31 32 32 33 34 35 36 37 38 39 40 41 41
32 34 36 38 40 42 43 42 42 41 39 38 35 33 33 33 32 30 29 29 27 26 25 24 24 24 24 24 24 24 25 25 25 26 26 27 28 29 29 30 30 30 31 32 32 32 33 34 34 35 36 37 38 38
37 39 40 41 42 42 41 40 39 38 36 35 34 32 31 31 32 31 29 27 25 24 23 24 24 23 23 23 23 23 23 23 24 25 26 26 27 27 28 29 29 30 30 31 31 32 32 33 34 34 35 36 37 38

GFSWCAN_250_spd_099.txt.gz
Wind_Speed
67 65 61 58 56 54 55 48 40 34 30 27 24 21 18 16 16 16 14 12 13 16 16 18 18 18 21 22 23 27 29 27 26 27 31 34 37 38 42 45 46 49 50 52 53 56 62 58 56 58 60 59 60 59
61 59 56 53 51 51 49 40 35 30 28 26 23 18 16 15 14 12 11 12 15 15 17 17 17 17 19 22 27 29 29 28 28 31 33 36 39 39 40 45 47 50 54 54 53 60 60 57 57 60 57 57 58 62
53 50 48 49 47 47 40 36 31 28 28 27 23 18 16 16 15 14 13 14 14 16 14 12 17 21 22 24 26 27 28 30 33 35 35 37 39 41 45 48 48 49 51 53 57 60 62 60 59 55 58 58 57 62
45 45 44 43 43 37 35 32 29 27 28 26 23 20 18 16 16 15 15 13 14 14 13 19 17 18 22 23 24 24 23 26 23 22 29 33 38 41 42 37 40 47 47 50 54 57 60 60 61 62 60 60 62 64
36 37 37 36 34 33 32 29 27 26 26 25 23 22 19 18 20 17 16 16 15 17 18 16 18 20 21 23 24 23 25 29 33 31 29 31 33 35 34 36 39 42 46 50 53 58 52 59 61 58 60 65 65 59
31 30 29 31 31 31 30 28 27 25 23 21 20 20 19 20 20 18 18 18 15 15 17 19 19 19 19 20 22 26 31 32 34 38 39 37 36 37 35 36 41 47 50 53 56 55 55 49 56 57 58 62 61 62
28 28 28 29 29 29 28 27 26 24 21 18 17 15 16 17 16 13 17 17 15 15 17 17 18 19 21 23 24 24 28 31 31 34 38 39 39 37 38 42 43 47 51 52 50 52 40 45 47 49 54 57 56 59
24 25 26 26 27 27 27 28 27 25 21 18 15 13 13 14 13 12 13 16 14 14 14 15 16 19 20 22 23 26 29 31 33 36 36 35 37 40 42 42 41 44 47 46 43 40 46 48 44 48 48 52 51 54
22 23 24 25 25 26 27 27 26 24 21 18 14 11 12 14 13 13 14 15 14 14 14 15 17 19 20 21 23 26 28 30 32 33 33 34 36 38 39 37 38 43 42 39 41 47 46 44 43 46 45 47 47 49
18 19 20 21 22 24 25 25 26 26 21 18 16 15 17 15 15 14 15 17 16 18 17 17 17 18 21 22 23 25 28 30 33 33 33 36 38 40 37 37 38 39 38 39 42 43 44 42 43 44 45 46 46 47
16 18 20 22 24 26 27 28 29 26 23 23 23 23 15 17 18 19 16 18 18 19 19 20 19 20 22 23 25 27 28 29 30 30 32 32 32 34 35 36 37 36 36 37 40 44 45 45 45 45 45 45 46 46
16 18 20 22 23 24 26 27 26 29 32 31 30 21 19 22 19 18 18 19 19 18 19 19 19 20 21 21 22 24 25 26 27 27 26 26 30 32 33 33 33 34 36 38 39 41 42 44 43 43 43 44 45 45
15 17 18 20 21 23 25 25 27 30 29 30 27 24 24 24 22 20 19 17 17 17 18 18 19 19 21 24 22 21 23 25 25 26 28 31 32 33 34 35 33 34 35 36 36 37 39 40 40 42 44 47 47 47
12 13 15 16 17 20 22 24 25 26 27 28 29 29 28 26 25 22 19 18 17 17 18 18 19 20 21 21 24 27 27 26 26 28 30 31 30 31 31 32 33 30 33 35 37 39 40 40 43 45 47 48 49 49
12 14 14 16 18 19 20 22 23 23 25 26 26 29 32 31 28 23 16 18 18 16 15 16 18 18 22 25 26 25 26 26 28 30 33 31 32 32 31 31 32 33 34 35 37 40 42 44 45 46 46 46 46 45
15 15 16 17 17 18 19 20 21 21 21 23 26 30 32 32 30 24 19 17 16 15 14 14 14 15 17 23 26 27 26 29 33 35 34 33 32 33 32 33 33 33 33 33 35 36 35 34 34 33 34 36 37 38
18 17 17 17 18 19 18 19 19 19 19 18 19 21 22 20 16 17 20 22 20 17 17 17 17 16 19 21 24 26 30 33 33 31 29 28 27 27 28 28 30 32 32 32 33 34 34 34 34 33 32 32 33 32
21 21 20 19 18 19 20 22 23 22 20 18 17 17 18 19 19 18 18 18 20 21 21 22 21 21 22 24 24 26 27 27 27 27 28 29 29 30 29 29 29 30 30 30 32 34 34 33 32 33 33 32 33 33
25 24 24 22 21 19 19 19 21 20 20 19 17 15 14 14 13 12 13 14 16 17 19 21 25 27 30 31 30 31 32 30 29 31 33 32 33 34 35 35 35 34 32 31 31 31 32 33 34 34 34 35 36 37
32 31 29 27 25 24 24 23 21 18 16 15 13 13 13 11 11 10 10 11 12 13 15 17 21 23 25 26 27 29 30 32 34 37 35 36 40 39 37 36 36 37 36 37 37 38 38 39 40 42 42 43 42 41
36 35 33 31 30 29 28 26 24 24 23 20 17 15 13 11 9 7 6 6 7 9 12 15 17 19 20 22 24 27 29 30 33 38 40 39 41 41 41 40 41 42 42 42 43 44 44 45 45 44 43 42 41 41
35 33 33 31 30 29 28 27 26 25 24 22 20 17 15 13 11 8 6 5 6 7 9 10 12 14 16 18 20 23 25 28 31 33 35 37 39 41 42 43 44 44 44 43 42 41 41 41 41 41 41 41 40 40
32 31 30 29 29 27 27 25 23 21 19 18 16 14 12 10 6 4 2 4 5 7 10 13 15 16 18 19 21 22 24 25 27 29 30 32 33 35 36 37 38 38 40 40 39 38 38 38 38 39 40 41 41 42
29 28 26 26 24 24 22 20 18 18 17 16 15 14 10 10 5 7 4 6 9 11 13 15 17 19 21 23 25 27 28 30 31 32 33 34 34 35 35 36 37 37 38 39 39 40 40 41 41 42 43 44 45 45
25 25 23 23 22 22 21 21 20 19 20 19 18 17 16 13 15 14 15 16 16 18 20 21 24 26 28 30 30 31 31 31 32 33 34 34 35 36 36 37 38 38 39 39 39 40 40 40 40 40 41 42 42 42
20 21 21 21 21 22 23 23 23 24 24 24 24 25 24 24 25 27 24 21 21 21 23 25 27 29 30 31 32 34 35 35 36 36 36 36 36 36 36 36 36 37 38 39 40 40 40 40 41 41 41 41 42 43
17 18 19 21 21 22 23 24 26 27 28 29 30 30 29 32 32 29 26 25 24 24 25 25 26 28 29 29 29 29 30 30 32 33 34 35 36 36 37 38 38 39 39 39 40 40 41 41 41 42 43 44 44 45
17 18 18 20 22 24 26 27 29 31 33 35 36 36 36 35 33 31 30 29 27 25 23 23 24 25 26 28 29 30 29 29 29 29 30 31 32 33 33 33 34 35 35 36 37 39 39 40 41 42 43 44 45 46
16 17 19 21 23 26 28 30 32 35 37 38 38 38 37 35 33 33 31 30 27 24 23 22 22 23 25 26 28 29 29 29 28 27 26 26 26 28 29 30 31 31 32 33 33 34 35 36 37 38 39 40 41 42
19 21 22 25 26 29 31 34 36 39 39 40 40 37 36 34 32 32 32 29 26 24 23 22 23 24 24 25 25 26 26 26 27 26 26 25 25 25 26 27 28 29 30 32 33 34 35 35 36 37 38 39 40 41
23 25 27 29 31 34 36 37 38 39 39 39 38 36 34 33 32 31 30 28 27 25 23 23 23 23 23 22 22 23 23 23 23 23 24 24 24 24 25 25 26 26 27 28 29 30 31 32 33 34 35 36 37 38
28 30 33 34 36 37 38 38 40 40 39 38 35 33 33 31 30 30 29 28 27 24 22 23 23 23 23 23 22 22 22 22 23 23 23 23 24 24 25 25 26 26 26 27 28 29 30 30 31 32 33 34 35 36
35 37 37 38 39 39 40 40 39 39 38 35 34 33 32 29 28 29 28 27 25 24 23 23 23 22 22 22 22 21 21 22 22 22 23 23 24 24 24 25 26 27 28 28 29 30 31 31 32 33 33 34 35 35

GFSWCAN_250_spd_102.txt.gz
Wind_Speed
73 72 72 67 66 64 61 59 57 55 52 45 39 36 29 25 22 18 18 17 16 15 15 16 15 17 21 24 27 27 27 28 29 32 34 35 36 38 40 41 42 40 43 47 49 49 50 50 54 55 54 58 58 60
66 66 65 61 60 57 54 53 52 50 48 38 34 30 26 23 19 16 15 15 14 13 11 12 14 16 16 20 21 23 22 26 31 34 37 38 38 41 41 42 45 44 47 50 51 57 52 52 55 51 51 54 58 64
56 56 57 54 52 50 49 48 47 46 40 33 30 27 24 22 19 16 15 15 14 11 12 15 17 15 14 15 21 23 25 29 30 36 39 40 41 42 43 44 45 46 46 48 50 49 46 52 54 55 50 53 55 60
46 47 45 44 45 44 45 44 43 40 33 30 27 25 23 23 22 18 15 14 14 14 18 16 14 17 20 20 20 21 25 30 30 33 36 37 38 42 42 42 43 48 47 50 51 50 50 53 54 51 51 57 65 64
38 38 38 38 39 41 41 40 38 33 31 27 25 23 23 24 22 19 16 15 14 15 15 14 16 16 17 17 19 22 23 26 29 31 33 37 39 41 40 41 44 46 49 51 52 53 53 54 55 55 55 60 63 60
32 33 33 33 35 35 35 34 32 30 28 25 22 22 24 24 22 19 17 17 16 16 15 16 15 15 18 19 19 21 27 32 33 34 31 33 37 37 38 38 35 38 40 39 47 50 50 49 48 52 58 63 59 52
29 30 30 30 30 31 31 31 30 28 26 22 21 22 23 22 20 20 19 19 18 15 15 15 14 13 15 18 24 27 31 35 36 38 39 36 35 37 37 33 35 37 39 46 52 53 52 51 48 49 49 50 50 55
25 26 27 28 30 31 30 29 27 26 24 21 20 20 20 18 17 16 16 17 18 16 16 14 14 14 17 20 24 28 29 28 30 34 37 41 41 39 38 38 40 41 45 51 50 47 39 28 35 41 43 45 46 51
24 24 25 26 27 26 26 27 27 26 23 21 21 20 20 17 18 18 17 17 18 18 18 17 17 18 19 21 25 26 28 29 30 31 31 33 35 40 42 42 42 44 45 48 44 38 39 37 38 41 42 43 46 50
20 22 23 24 25 25 25 25 24 22 22 21 22 20 19 18 16 17 17 18 18 17 17 17 19 19 20 22 24 25 25 27 29 27 30 34 35 37 35 37 39 40 42 41 36 37 40 42 38 38 42 45 48 51
18 19 21 22 22 23 24 24 23 22 24 25 26 21 20 20 18 19 18 18 16 16 16 18 18 19 21 24 24 25 25 26 26 28 29 30 34 36 36 38 37 36 35 35 36 39 41 43 43 44 46 46 48 50
18 19 20 21 22 23 23 23 24 29 32 31 27 23 23 22 19 18 18 18 17 16 16 17 19 19 20 21 22 22 22 24 26 28 30 33 32 33 35 38 38 36 36 36 37 40 43 44 44 46 48 49 50 50
17 19 20 21 21 21 23 26 29 30 28 25 22 24 25 24 21 21 20 20 17 16 16 17 18 17 17 18 20 20 21 22 22 23 26 28 29 30 32 34 34 34 35 36 37 40 42 44 44 45 47 48 48 48
15 16 16 17 19 22 24 24 26 27 26 25 27 30 30 27 23 23 21 20 20 19 17 17 17 17 18 18 19 22 22 22 25 27 28 29 30 30 30 31 34 33 34 35 36 38 40 41 43 44 45 45 46 47
15 16 17 18 18 19 21 22 22 22 25 29 31 34 31 26 22 22 22 22 20 19 19 18 18 18 20 19 19 19 20 22 24 25 25 26 27 28 30 33 32 32 34 37 38 38 39 40 41 42 43 44 46 47
19 19 18 19 19 20 20 20 21 22 27 30 35 36 30 25 20 20 19 18 17 15 17 18 19 18 18 18 20 22 24 26 27 27 27 27 28 28 29 31 31 31 32 34 36 38 39 40 40 40 42 42 43 43
19 22 18 19 20 20 20 21 21 21 24 28 32 33 28 20 18 19 19 17 17 16 15 16 16 17 19 20 21 22 23 24 25 25 26 27 27 26 27 29 31 32 32 34 35 37 39 40 41 41 41 42 42 43
26 24 20 21 22 22 22 21 21 20 19 19 19 19 18 17 19 22 22 21 19 17 17 16 16 17 18 19 20 21 24 26 27 29 28 26 26 27 29 31 33 34 35 34 34 35 36 37 39 40 40 39 39 40
31 27 25 23 22 23 24 24 24 23 22 21 21 21 21 23 25 23 20 20 19 19 19 20 22 24 25 25 25 27 28 28 29 31 30 29 29 30 31 32 34 33 33 33 33 34 35 35 35 35 35 36 36 37
32 30 29 29 27 26 25 23 23 22 19 18 17 17 17 18 19 19 19 20 23 24 25 25 26 28 30 32 33 33 34 35 36 34 33 34 34 35 33 32 31 30 29 29 29 29 30 31 32 32 33 34 36 37
34 32 31 31 30 29 27 26 24 22 21 19 17 15 13 12 11 11 11 12 13 16 18 21 23 25 27 29 31 32 33 34 39 40 39 39 38 39 39 38 36 35 35 34 32 32 32 33 33 34 35 37 37 38
39 39 38 37 36 33 31 30 29 27 25 24 21 17 15 13 9 6 4 5 6 8 11 13 16 18 20 23 25 27 29 31 35 37 38 38 38 40 40 40 40 40 40 40 40 40 39 39 39 39 39 39 39 39
37 36 36 34 32 30 30 28 25 24 22 18 17 15 12 9 6 3 3 6 6 10 12 14 16 19 21 22 23 24 26 28 30 32 34 35 35 36 37 38 38 38 39 39 38 38 38 37 37 38 39 39 39 38
29 28 28 27 25 24 22 21 19 18 16 13 10 7 5 3 2 3 4 6 13 16 18 21 22 24 26 27 28 29 29 30 31 32 32 33 34 34 34 35 35 36 36 36 36 37 37 37 37 37 38 39 39 39
26 25 24 24 22 21 21 20 19 18 18 16 14 14 13 9 14 15 16 17 19 21 23 25 27 29 31 32 32 32 32 32 32 32 32 33 34 34 35 36 37 37 38 39 39 39 39 39 40 41 41 42 42 43
22 22 22 22 23 22 22 21 21 22 21 21 21 23 20 20 21 20 18 17 19 20 21 24 26 28 29 30 30 30 31 32 33 33 33 34 34 34 34 35 35 36 37 37 38 38 39 40 40 41 42 43 43 44
19 19 20 22 23 23 23 24 25 25 26 27 26 27 26 25 23 20 20 21 21 21 21 22 23 25 27 29 30 30 30 30 30 30 31 32 32 32 33 33 34 34 35 36 37 38 38 39 40 40 41 42 43 44
16 17 17 19 20 21 22 23 25 26 27 28 28 29 29 27 26 26 25 25 24 24 21 20 20 22 25 27 28 29 30 29 28 27 26 26 27 27 28 29 30 31 32 33 33 35 36 37 38 39 39 40 41 42
16 17 18 19 21 23 25 26 28 30 30 31 31 31 31 29 29 29 29 28 27 25 21 20 21 23 24 25 26 27 27 27 27 27 25 24 24 25 26 27 28 30 30 32 33 34 34 35 36 37 37 39 40 40
14 17 19 21 23 25 28 30 31 33 33 34 33 32 31 30 30 30 30 29 27 25 24 22 21 23 25 25 25 25 24 23 23 24 24 24 23 23 24 24 26 27 28 30 31 32 33 34 35 35 36 37 38 38
18 20 23 25 27 30 32 32 33 34 35 35 34 33 31 31 31 30 30 29 28 26 23 22 22 22 23 24 23 22 22 22 21 21 21 21 21 22 22 23 24 25 26 26 27 29 29 30 31 32 33 34 34 35
22 24 27 30 32 34 34 34 34 35 35 34 33 32 31 31 30 29 29 28 27 24 23 22 22 22 21 21 20 20 20 19 19 19 19 20 20 20 21 21 22 23 24 25 25 26 27 28 29 30 31 32 32 33
30 31 33 34 34 35 35 36 35 35 35 33 32 32 32 31 29 27 27 28 26 25 23 22 22 22 22 20 20 19 19 19 19 19 19 20 21 21 22 23 24 25 26 27 27 28 28 28 29 30 31 32 32 32

GFSWCAN_250_spd_105.txt.gz
Wind_Speed
81 80 80 78 78 76 73 73 71 68 65 62 58 54 48 43 40 37 33 32 30 26 22 19 17 19 18 18 20 20 20 23 26 31 35 37 37 40 42 43 44 43 43 48 51 51 51 49 50 50 51 56 57 59
71 71 72 72 72 69 67 66 64 62 59 56 53 48 42 37 36 33 29 29 26 22 17 17 17 17 18 17 17 18 20 23 25 28 35 38 39 41 41 42 44 43 43 47 50 55 55 48 49 50 52 57 58 61
60 60 62 62 63 61 60 59 57 54 51 49 47 42 35 34 33 29 27 26 24 18 16 17 16 12 13 17 20 21 21 24 27 33 35 38 39 39 42 44 43 42 43 46 50 52 49 47 48 52 53 56 60 61
53 53 53 52 51 49 50 50 48 46 45 44 42 36 30 32 30 28 27 25 22 19 19 17 13 15 15 15 14 18 25 26 29 31 33 33 35 39 40 44 46 45 45 46 50 51 53 51 48 51 56 59 62 61
44 44 43 42 41 40 41 40 41 42 42 41 37 29 28 29 28 27 25 23 20 18 16 15 16 14 15 15 15 19 23 27 30 31 32 35 39 40 42 43 45 46 45 47 50 52 52 51 52 54 58 60 65 63
36 35 34 36 37 37 37 36 38 39 39 37 30 27 28 27 27 25 23 22 21 19 16 14 14 14 15 16 19 22 25 28 29 30 34 35 37 39 39 39 41 44 48 50 52 52 53 55 55 57 60 61 63 62
29 32 32 33 33 33 34 36 36 36 34 29 28 27 27 25 23 23 22 22 21 18 15 13 15 14 13 17 20 24 29 32 32 30 32 33 34 34 35 37 37 38 44 51 53 55 55 58 59 61 61 60 62 62
28 28 28 29 30 31 31 32 32 30 29 29 27 27 23 21 24 23 23 22 21 19 17 16 17 16 17 21 22 25 29 31 33 34 34 33 31 31 34 35 38 41 45 47 52 53 56 59 57 54 54 56 57 60
24 24 25 26 27 28 28 29 29 30 29 28 27 24 22 24 23 22 22 22 20 19 18 17 17 19 21 23 24 26 27 28 29 31 33 33 32 33 35 36 38 40 42 45 43 41 43 40 39 42 47 52 54 56
21 23 24 24 25 25 26 27 28 28 28 27 26 26 23 21 20 20 19 21 18 17 16 16 16 17 19 21 22 23 22 25 26 26 29 30 30 32 35 38 40 40 41 41 40 42 40 40 38 40 45 48 51 53
21 21 22 23 24 25 26 27 27 27 27 30 27 22 23 22 20 19 19 17 15 15 15 15 16 17 18 20 20 20 22 23 22 23 28 28 29 33 35 39 37 36 38 39 40 40 38 39 42 46 48 51 50 50
20 21 22 23 24 25 27 28 29 34 39 33 27 23 22 22 19 19 18 19 17 15 15 14 14 16 18 19 18 19 22 24 26 31 32 35 37 34 31 31 35 38 40 40 40 40 39 39 41 43 45 46 49 51
22 23 23 24 26 28 31 35 37 32 25 25 26 21 19 19 19 18 20 20 18 15 15 15 15 17 17 17 18 20 20 22 25 25 26 28 29 32 35 37 38 39 40 40 40 40 40 42 44 48 52 56 57 57
21 22 24 26 28 30 31 30 28 25 25 25 27 25 22 21 21 19 17 19 20 18 15 14 14 16 17 17 16 19 23 24 26 26 26 28 29 29 31 34 37 38 39 39 39 39 40 41 43 45 46 47 50 53
20 22 23 24 25 26 27 26 25 25 27 29 30 30 28 20 18 18 17 16 18 17 16 16 16 17 18 19 19 17 18 23 26 27 29 30 30 31 33 35 37 37 38 40 41 41 41 42 43 44 44 46 48 50
20 21 21 21 21 23 24 24 25 27 28 29 32 29 24 17 14 17 14 14 16 16 15 16 16 16 17 18 19 20 21 19 19 20 21 22 23 25 28 30 33 35 37 39 40 41 42 43 44 45 47 47 48 49
23 23 22 21 22 22 22 23 25 26 28 28 28 26 17 15 19 17 16 15 15 15 14 15 16 17 17 18 18 18 20 21 22 23 23 24 26 28 31 32 33 34 36 38 40 40 41 42 43 44 44 46 47 47
27 24 23 23 23 22 22 21 20 20 21 23 25 22 14 18 18 17 15 15 13 13 12 11 14 15 16 17 20 22 23 24 25 27 29 30 30 30 31 34 35 37 39 41 42 42 43 45 45 45 46 47 47 47
30 27 25 25 26 28 27 24 24 24 25 25 25 24 21 22 22 21 18 14 14 13 13 14 16 16 16 17 19 21 23 25 26 27 29 31 32 33 34 37 40 41 41 42 42 42 42 43 44 45 47 47 47 47
32 30 28 27 26 26 25 23 22 22 22 22 23 23 22 23 21 19 18 17 18 20 21 21 23 24 26 26 28 29 30 31 30 28 28 29 29 29 31 33 35 36 38 39 38 39 39 40 40 41 42 43 44 43
34 32 31 30 30 29 27 25 23 21 20 20 20 20 22 23 23 22 22 23 23 24 26 27 29 30 30 31 32 33 34 35 34 34 35 35 34 35 36 36 37 36 37 36 35 35 36 37 38 40 41 42 41 41
37 35 34 34 32 30 29 27 26 24 23 21 20 18 16 14 13 13 14 14 16 19 21 24 26 28 30 31 31 32 32 34 36 36 36 36 37 37 38 38 39 39 38 37 36 36 36 36 37 38 39 40 41 41
37 36 35 34 31 30 30 28 26 24 22 19 17 15 13 11 9 5 7 10 12 13 17 20 22 23 25 26 27 29 30 31 33 35 35 35 36 37 37 38 39 39 40 39 39 39 39 39 39 40 41 41 42 42
32 32 31 29 28 29 27 26 24 21 18 16 13 11 8 6 5 5 10 13 14 18 22 24 25 27 29 30 31 31 31 32 32 33 34 34 34 34 35 36 36 37 37 37 37 38 38 38 39 39 39 40 40 40
27 25 23 23 22 21 20 18 17 14 13 10 10 7 4 1 6 10 13 16 18 19 21 24 27 30 32 33 34 34 34 34 34 34 34 35 35 34 33 33 34 35 36 37 38 39 39 39 40 40 40 40 41 41
25 24 23 22 22 20 19 19 19 18 16 15 15 16 15 15 15 16 18 18 20 21 21 22 24 26 28 30 31 32 31 31 31 31 32 32 32 33 34 34 34 35 35 36 36 37 38 38 39 39 39 40 40 41
21 21 22 23 23 22 22 23 23 22 21 21 21 21 20 20 20 19 18 20 21 22 24 24 25 26 27 28 29 30 30 31 30 29 28 28 29 29 30 31 32 33 34 34 35 35 35 36 36 37 39 39 40 41
18 18 18 19 19 20 21 21 21 22 22 22 23 23 23 23 23 23 23 24 24 24 23 22 22 23 24 26 29 30 31 31 31 30 29 27 26 26 28 29 30 31 31 32 33 34 35 36 36 37 38 38 39 40
15 15 16 17 18 19 21 22 23 24 24 25 26 26 26 26 26 26 26 26 26 25 25 23 23 23 25 27 28 28 28 28 27 27 27 26 26 25 26 26 27 29 30 30 31 32 33 33 34 35 36 36 37 38
13 14 15 17 19 22 24 27 27 26 27 29 29 29 28 28 28 28 28 27 27 27 27 26 24 23 25 26 26 26 25 24 24 25 24 24 24 24 25 25 25 25 26 26 28 29 30 30 31 32 33 34 34 35
16 18 19 20 22 25 27 29 29 29 30 31 31 30 28 29 29 29 28 28 28 27 27 25 23 24 25 25 25 23 23 22 22 22 21 21 22 22 22 23 24 23 24 26 27 27 28 29 30 31 32 32 33 34
17 20 22 23 25 27 28 29 29 30 31 31 31 30 29 29 29 29 28 27 28 29 28 26 24 24 24 24 24 23 22 21 21 20 20 19 19 20 20 21 22 22 23 24 25 27 28 28 29 30 31 32 33 33
22 23 27 28 26 28 29 30 30 31 31 31 31 30 30 29 29 28 27 27 27 28 27 26 24 23 23 23 22 22 21 20 20 19 20 20 21 21 22 23 24 24 25 25 25 25 26 27 28 28 28 29 30 31

GFSWCAN_250_spd_108.txt.gz
Wind_Speed
83 83 83 84 82 81 82 81 79 78 74 73 70 67 65 62 58 57 53 48 42 38 32 31 28 27 25 24 21 22 18 19 20 25 29 29 34 37 39 39 42 42 40 41 33 32 37 42 42 44 47 49 49 53
73 73 73 74 75 73 74 75 74 72 70 68 65 61 58 56 54 52 48 43 35 34 29 25 26 23 20 18 18 18 17 18 20 24 27 31 33 33 35 37 40 43 41 35 34 42 47 44 45 47 50 51 52 53
60 61 62 64 65 66 67 66 65 65 63 61 58 54 52 52 48 45 43 34 32 29 26 23 22 19 20 18 15 11 18 20 21 24 27 30 32 33 36 39 40 36 41 42 41 45 47 49 49 49 52 52 52 52
54 55 56 55 53 54 55 56 57 56 56 54 51 48 48 47 41 43 35 31 28 26 24 21 20 19 18 15 14 16 18 20 23 23 25 28 31 34 37 39 39 40 41 42 47 49 50 52 51 52 53 53 52 52
47 46 47 46 47 47 47 45 45 46 46 44 43 44 45 41 38 36 31 28 25 24 22 20 21 19 16 14 16 18 20 21 23 24 26 29 31 34 35 36 39 41 44 45 47 46 49 51 50 50 55 55 58 52
38 38 38 38 37 38 38 39 39 38 38 38 40 42 39 36 33 33 28 24 22 24 21 21 20 16 13 12 14 18 22 24 24 25 27 28 31 31 32 35 38 42 42 42 44 49 52 51 50 49 52 58 56 52
31 30 30 31 32 32 34 36 35 35 35 37 39 37 34 32 32 26 26 21 22 22 20 20 18 17 17 16 18 20 23 25 24 28 28 28 29 31 32 33 34 39 42 41 44 49 53 55 57 59 57 59 54 57
25 26 27 30 31 31 31 32 33 34 36 36 33 32 31 30 28 26 22 22 21 19 19 18 17 17 17 18 20 22 24 27 24 26 27 26 27 29 30 31 33 35 40 41 42 47 51 53 55 54 54 54 59 61
27 28 28 27 27 28 29 30 32 32 31 29 29 29 29 30 26 22 21 20 19 18 18 17 16 16 18 20 20 23 25 25 23 26 26 27 27 29 28 30 31 34 35 38 40 43 45 47 51 50 50 53 54 56
25 25 25 26 26 27 27 27 27 26 26 28 27 29 32 25 20 19 16 16 15 16 17 18 16 17 18 19 19 21 20 19 20 22 25 26 27 27 30 31 32 33 33 36 38 41 43 44 41 43 45 46 50 52
23 23 24 24 24 24 24 24 24 24 27 31 34 31 22 21 19 16 15 16 14 15 16 16 15 14 16 16 17 17 18 19 18 20 23 25 29 30 30 31 31 32 32 34 36 39 41 43 43 44 44 44 48 51
23 23 23 23 24 24 25 26 29 35 38 35 29 25 23 19 17 16 18 17 15 17 16 14 13 14 14 14 15 17 18 20 22 24 25 28 27 25 25 29 30 31 34 36 38 40 42 43 44 44 45 48 52 55
24 24 25 26 26 28 31 34 37 33 26 21 21 20 18 17 17 18 18 16 17 16 14 13 13 13 13 15 18 19 19 21 27 29 29 26 24 26 28 30 31 34 36 37 38 39 40 41 43 45 46 49 51 54
25 25 26 27 29 32 33 31 24 20 24 28 26 24 22 22 20 16 17 14 16 14 13 13 11 13 15 17 17 19 23 25 25 22 21 23 24 25 29 32 34 37 40 41 42 42 42 42 43 43 45 49 53 56
25 26 28 29 30 29 26 23 25 29 28 25 23 20 15 11 12 15 14 13 12 11 11 11 11 11 14 17 18 17 17 17 21 23 24 25 26 27 29 32 34 36 36 38 39 41 42 42 43 43 44 47 49 52
24 24 24 24 24 24 25 28 30 30 27 24 18 11 8 11 13 13 11 10 10 11 10 9 10 10 11 15 17 18 17 16 16 17 18 20 22 24 26 29 32 34 35 36 38 39 41 42 42 43 45 47 48 49
27 26 24 24 24 25 26 28 29 26 23 18 16 11 8 8 11 10 10 9 8 10 10 9 9 11 12 12 12 13 14 17 19 21 21 21 21 23 26 28 30 31 34 35 38 39 41 41 42 44 44 46 47 47
28 28 28 28 26 24 24 24 22 19 18 18 18 16 10 11 10 9 9 7 7 8 10 12 12 12 12 12 14 16 17 18 20 21 22 24 26 28 30 32 33 35 36 38 39 41 42 42 43 45 46 47 49 50
29 28 27 25 25 24 23 19 16 17 18 20 22 20 16 16 15 10 9 8 8 8 8 9 10 12 13 15 18 19 20 22 24 26 27 28 29 30 32 33 35 36 38 40 41 42 44 45 46 47 48 49 49 49
30 29 29 28 26 24 23 22 21 20 18 19 18 17 18 15 11 8 8 9 11 12 13 15 16 17 18 20 21 22 23 23 24 25 27 29 30 33 35 37 39 40 41 43 44 45 45 44 45 46 47 48 49 51
32 31 29 28 27 24 23 22 21 20 19 18 18 18 17 16 14 13 14 15 17 19 20 22 25 26 27 28 28 29 30 30 29 29 30 30 32 33 35 36 37 38 39 39 40 41 41 42 43 43 44 45 47 48
34 32 30 28 27 26 24 23 22 20 18 17 16 15 15 13 14 15 18 20 22 24 26 28 29 30 30 31 31 31 32 32 32 32 31 32 32 32 34 35 37 39 41 42 43 44 44 44 45 45 46 46 48 49
37 36 35 34 32 30 30 28 26 23 21 19 17 15 14 13 13 13 13 15 18 21 23 25 26 26 27 28 29 29 29 30 31 31 31 31 31 32 32 33 33 33 34 36 38 40 40 41 42 43 44 45 45 47
34 33 32 32 30 30 28 26 23 20 18 16 13 10 9 8 6 8 12 16 20 23 24 25 27 30 31 31 32 32 32 32 32 32 33 32 31 31 32 34 35 36 36 37 37 37 38 38 40 41 42 43 44 45
30 29 28 27 26 25 22 20 18 16 16 12 9 4 1 7 10 12 15 19 23 26 28 28 29 30 32 33 33 33 33 33 33 32 32 32 31 31 30 30 31 32 34 35 37 39 40 40 40 41 41 42 43 44
26 25 24 22 21 20 18 16 14 13 11 9 9 9 7 8 10 13 16 19 20 21 22 23 25 27 29 30 31 32 33 32 31 29 29 29 28 28 28 29 30 31 32 32 33 35 36 37 39 40 41 42 43 43
24 24 23 24 22 20 18 18 18 15 15 16 17 17 17 19 20 19 20 22 24 24 24 24 24 25 26 27 28 29 30 31 31 31 30 29 27 27 27 27 28 30 32 32 33 33 34 35 36 37 38 39 40 41
19 20 18 19 18 18 18 18 18 18 18 18 19 21 22 23 23 23 24 25 27 26 26 25 24 23 23 24 26 28 29 29 28 27 26 26 26 27 27 27 27 28 29 30 31 32 32 33 33 34 34 35 36 36
15 14 13 13 13 14 16 16 18 19 19 20 21 21 23 24 24 26 27 27 28 27 27 27 26 24 23 24 26 27 28 27 26 25 24 24 25 25 25 25 26 26 26 27 28 28 29 30 31 32 33 33 34 34
11 12 13 14 15 16 17 20 21 21 22 23 24 24 25 26 26 27 28 29 29 29 29 28 27 24 23 23 25 27 27 27 26 25 24 24 24 24 24 24 24 25 25 25 26 26 27 28 28 29 30 31 32 32
12 14 16 17 17 19 20 22 23 23 24 25 26 27 27 27 28 28 29 28 29 30 30 30 28 26 23 24 25 26 26 26 25 25 24 23 23 22 22 22 22 23 24 24 25 25 26 27 28 28 29 30 31 31
14 16 18 20 20 21 23 24 25 25 26 27 28 29 27 27 29 28 29 29 29 30 30 29 28 26 25 25 26 26 26 25 24 23 22 22 22 22 21 22 23 23 24 25 25 26 27 28 29 29 30 31 31 32
20 21 22 24 26 25 26 27 25 25 26 29 30 29 29 29 30 30 31 31 30 30 29 29 28 27 26 25 26 26 25 25 24 23 23 23 23 23 23 23 23 24 24 25 26 26 26 27 27 28 28 29 29 30

GFSWCAN_250_spd_114.txt.gz
Wind_Speed
84 84 85 86 87 87 87 88 86 87 87 86 85 84 83 82 81 82 79 73 71 72 65 62 61 54 45 43 38 31 32 28 24 25 23 21 20 24 26 25 25 24 27 31 33 32 32 35 37 39 40 39 39 40
81 81 82 83 83 83 84 83 79 85 85 82 82 81 78 76 74 73 72 69 67 65 59 56 54 46 36 41 33 29 30 24 22 23 21 21 22 24 25 28 27 29 27 32 35 36 35 37 38 39 40 41 42 45
71 74 76 78 79 80 84 77 78 81 80 79 76 75 75 73 73 71 67 64 61 58 52 48 48 33 35 35 27 28 25 22 21 20 19 20 22 23 25 27 27 27 25 30 36 39 39 42 43 43 46 49 53 50
58 62 65 68 73 74 77 73 71 73 75 74 74 72 70 67 66 65 61 60 55 50 46 45 37 32 32 30 26 27 24 22 19 19 18 18 21 22 23 24 24 23 27 29 36 42 45 46 47 47 49 51 50 48
53 54 56 59 62 65 66 64 64 64 66 68 68 67 66 64 62 60 57 53 48 45 42 37 33 30 30 25 25 25 24 20 17 17 17 17 17 19 19 21 24 27 30 34 38 41 45 47 49 50 50 50 48 48
47 49 52 55 55 55 55 55 54 54 53 56 59 60 58 56 55 53 49 44 42 41 37 33 30 26 27 23 24 23 23 19 18 17 14 13 14 17 20 23 25 24 23 30 35 41 47 49 51 51 50 48 50 51
42 43 46 47 47 47 50 49 48 45 48 48 47 48 47 47 46 42 40 40 39 34 32 30 24 25 23 22 23 22 22 18 17 15 13 12 14 16 19 20 18 18 23 29 31 38 41 44 48 50 49 49 48 46
35 37 39 40 43 42 39 39 39 41 42 43 42 40 39 38 37 39 35 33 31 31 28 26 21 23 22 22 23 22 20 16 16 14 13 12 13 15 18 19 20 22 26 27 30 33 36 40 45 46 46 45 46 49
31 33 34 36 33 32 33 34 34 34 35 37 37 36 37 37 34 31 30 29 30 26 26 22 20 21 21 21 21 19 18 14 13 13 14 15 13 14 17 20 22 24 25 26 29 32 36 43 45 45 44 44 46 46
27 28 28 27 28 30 31 31 31 31 32 34 37 39 35 29 29 28 26 27 25 24 22 19 20 21 21 20 18 17 16 14 14 15 15 15 15 15 17 21 23 23 25 27 29 31 35 39 43 43 44 43 42 42
23 25 28 31 31 31 31 31 31 33 36 37 34 28 26 27 26 25 26 25 22 21 20 21 21 20 20 18 17 17 16 16 16 16 15 14 13 15 18 22 25 26 26 28 29 31 33 36 39 40 42 42 42 40
28 29 29 29 29 30 31 33 36 34 30 26 24 24 24 22 25 26 24 21 20 20 21 20 19 18 17 17 18 18 19 18 16 15 15 15 17 17 19 21 24 27 28 29 30 31 33 36 37 38 40 41 40 38
23 24 25 26 27 27 26 23 21 21 21 22 24 26 27 29 27 24 20 19 19 20 18 16 14 15 16 17 16 16 17 16 15 15 16 18 19 19 19 20 23 27 29 30 31 32 34 36 38 39 40 40 41 42
24 25 26 25 25 24 24 24 23 24 25 29 31 31 29 26 21 20 22 21 19 16 13 11 11 11 12 12 13 13 13 13 13 13 15 17 19 21 21 21 23 27 30 33 33 33 34 36 37 38 40 41 41 42
25 25 25 25 24 24 25 27 29 31 31 29 27 25 24 26 26 23 23 21 18 14 12 12 12 11 11 10 11 12 13 13 13 14 17 21 23 25 26 26 28 28 29 31 33 35 36 37 38 39 40 41 42 44
28 26 26 29 30 31 32 32 30 28 27 27 29 29 28 25 25 25 22 18 16 13 14 14 12 12 11 11 11 12 13 15 15 16 18 20 22 24 25 28 30 31 32 32 33 35 36 38 39 41 40 40 40 41
32 35 34 33 33 32 31 32 31 34 34 33 30 29 28 25 22 20 18 16 16 15 13 12 12 12 10 10 10 10 10 12 13 15 18 21 22 25 26 28 29 31 31 32 33 34 36 37 38 38 39 41 42 42
38 37 37 36 35 37 40 39 38 34 31 30 30 28 25 22 19 16 14 13 14 12 10 7 7 9 10 10 10 10 11 13 14 16 17 18 20 23 27 29 32 34 34 35 36 37 38 38 39 39 40 42 43 45
36 37 38 44 45 44 40 36 35 32 30 28 27 26 23 21 17 14 12 10 10 11 10 8 6 6 5 6 7 9 11 13 15 17 18 19 21 22 24 27 30 32 35 36 37 38 39 40 41 41 42 42 43 43
37 40 42 40 40 39 39 36 32 31 29 28 26 22 20 17 15 13 12 9 6 4 3 2 2 4 6 7 9 11 14 15 17 18 20 21 23 25 27 28 30 32 33 35 36 38 40 41 41 42 42 43 43 44
34 35 34 33 31 30 29 28 28 25 23 21 21 18 16 14 11 8 5 2 2 5 6 8 9 10 12 13 14 16 17 19 21 23 26 28 30 31 32 33 34 35 36 38 39 41 42 43 44 45 45 46 46 47
31 30 30 29 27 27 25 22 20 18 17 17 16 14 12 9 5 2 4 6 8 9 10 11 11 12 13 15 15 16 17 17 19 21 24 27 30 32 34 36 38 39 41 41 42 43 44 45 45 45 45 45 46 46
32 31 29 28 26 24 23 21 20 18 17 15 13 9 5 2 3 5 6 8 11 14 16 19 20 20 20 19 18 18 18 18 19 21 22 24 27 29 32 34 36 38 40 42 43 45 46 47 48 48 48 48 49 49
32 32 31 30 28 27 24 23 20 19 16 13 9 6 5 3 4 7 10 14 17 19 21 23 23 24 24 24 24 23 22 21 22 22 23 23 24 26 28 31 33 36 38 39 41 42 43 44 45 46 47 48 49 49
36 34 33 31 29 28 25 23 21 18 14 11 9 8 5 3 7 9 12 16 19 19 20 20 20 21 21 21 23 23 24 24 24 24 24 24 23 23 24 25 27 29 32 34 36 37 39 40 41 42 42 43 44 45
30 29 28 25 25 23 20 19 16 14 11 10 12 10 9 10 11 13 15 17 19 21 23 24 24 24 24 24 24 24 24 25 25 26 25 24 24 24 25 26 27 29 30 32 32 33 34 35 36 37 38 38 39 40
25 24 23 21 20 19 19 17 15 13 12 11 10 10 11 12 14 16 18 20 22 23 25 27 27 26 25 25 23 24 23 24 25 25 24 23 24 24 24 25 26 26 27 28 29 29 30 31 32 32 33 33 33 34
24 22 21 19 17 16 15 13 12 11 11 11 11 13 14 16 18 19 21 24 25 26 27 28 29 29 29 28 26 25 24 24 25 25 24 23 24 24 24 24 24 24 24 25 25 25 26 26 27 28 29 30 30 31
19 19 17 15 14 13 12 11 11 12 12 13 14 15 18 20 20 21 23 25 27 29 28 29 30 30 31 29 28 27 26 25 25 25 24 23 23 23 23 23 23 22 21 22 22 23 23 24 24 25 26 26 27 28
10 10 10 10 10 9 9 10 12 14 15 15 16 18 21 23 23 24 25 26 28 30 31 31 30 30 31 30 28 27 26 26 25 25 25 23 23 22 22 21 21 21 21 20 21 22 22 23 24 25 25 26 27 28
4 5 6 7 8 10 11 13 15 17 20 19 18 20 23 24 25 27 28 28 29 30 31 32 31 30 31 30 28 28 27 25 25 24 24 24 22 21 20 20 20 20 20 21 22 22 23 24 25 25 26 27 28 29
7 7 8 10 12 15 15 16 18 20 23 25 24 23 24 26 27 28 30 31 30 29 31 32 32 31 31 30 29 29 28 26 25 24 24 24 22 21 21 20 20 20 21 21 22 23 24 25 26 27 27 28 29 29
12 14 13 13 16 18 21 22 23 25 27 30 31 30 29 29 28 27 30 31 31 31 31 32 34 32 30 30 30 30 29 26 25 24 24 24 23 22 22 21 21 21 22 22 23 25 26 26 27 28 28 28 28 28

GFSWCAN_250_spd_117.txt.gz
Wind_Speed
81 81 82 83 83 82 83 83 81 80 79 79 76 75 73 72 71 71 71 71 72 73 74 76 75 76 71 65 62 60 54 50 41 34 32 28 24 26 26 25 26 29 29 29 31 33 33 33 34 37 41 40 32 32
80 80 81 81 79 81 81 84 82 81 81 82 80 79 79 78 78 79 78 76 76 77 76 74 72 67 65 60 59 53 51 43 36 31 29 26 22 24 23 26 25 28 30 28 33 35 35 36 39 42 43 46 44 44
75 77 78 77 77 78 77 78 80 80 82 81 80 80 80 80 79 78 77 78 77 78 71 66 66 64 59 58 54 47 44 36 32 26 25 24 21 22 22 23 21 25 29 31 36 36 38 39 42 43 46 45 48 50
65 69 73 75 74 74 75 78 78 77 81 79 76 76 76 77 77 76 74 71 69 67 66 62 61 57 55 54 46 42 38 32 27 24 24 23 19 19 20 20 22 25 30 33 36 39 41 42 44 47 48 47 47 44
56 58 61 66 67 69 74 75 77 77 75 66 75 73 72 72 72 71 67 67 67 63 58 56 55 54 52 45 40 37 33 27 24 23 22 19 17 17 18 21 23 26 28 32 36 41 43 46 47 49 51 51 53 56
50 53 54 56 58 61 65 69 75 72 65 59 71 72 71 68 66 63 62 62 60 55 54 54 52 51 45 38 37 32 27 24 22 20 18 15 15 17 18 19 22 23 27 35 35 34 35 43 49 51 53 54 56 53
46 48 50 52 53 56 60 62 62 60 56 59 64 65 63 64 64 59 57 55 52 52 49 48 49 43 36 35 32 27 24 21 18 16 14 14 16 17 17 17 19 21 24 29 35 38 42 42 47 51 54 55 55 51
40 42 45 47 50 52 52 52 51 49 47 50 52 54 55 56 54 55 50 47 47 44 45 44 40 34 32 30 28 24 22 18 16 14 13 14 16 16 15 18 20 24 28 30 31 35 40 44 48 49 51 54 55 56
34 36 38 40 42 42 43 43 44 42 43 44 46 46 45 45 48 43 41 41 41 42 39 35 32 29 29 26 25 22 18 16 15 15 14 15 15 17 17 19 22 26 28 29 31 33 34 40 44 47 48 48 49 49
30 32 33 34 35 36 38 37 37 39 40 41 42 42 43 41 37 38 39 38 38 32 32 29 27 26 25 24 22 20 17 14 15 15 15 15 17 17 18 21 24 26 27 29 30 30 31 35 40 43 45 46 45 44
27 30 32 32 31 32 33 36 36 36 37 37 38 37 35 35 35 34 33 31 29 30 27 25 24 24 23 21 19 19 18 16 15 16 16 16 17 19 22 24 26 27 29 30 31 32 34 37 40 42 45 47 45 46
26 28 29 31 33 34 34 34 35 34 32 29 29 32 32 31 31 30 29 25 27 25 25 24 22 21 21 20 20 18 16 13 13 15 17 19 22 25 24 24 26 28 30 31 32 34 34 36 37 41 42 43 43 43
26 28 29 29 29 29 28 24 22 22 24 26 27 27 28 28 29 28 27 28 26 25 22 20 18 18 18 18 17 16 15 14 15 16 18 19 22 24 25 26 26 27 30 31 32 34 36 38 39 41 43 44 44 43
24 24 24 23 21 21 22 23 24 25 26 28 30 30 30 31 30 27 26 26 23 21 18 17 17 16 16 16 16 15 15 15 15 17 19 20 22 24 25 26 28 28 29 31 33 34 36 38 40 42 43 44 44 45
25 24 25 25 25 25 26 27 29 30 29 29 30 30 28 22 24 27 25 22 20 19 18 18 17 16 16 15 15 15 16 16 16 17 20 21 23 24 27 29 30 30 31 32 33 34 35 37 40 42 44 46 46 46
29 29 29 31 32 33 34 33 32 30 29 25 24 25 28 29 25 23 21 21 19 20 19 16 14 15 14 15 15 15 16 16 17 18 19 21 22 23 25 28 30 31 31 32 33 33 35 37 38 39 42 44 46 47
36 35 34 34 33 30 28 29 30 30 33 33 31 28 26 25 24 21 21 20 18 15 13 11 11 13 13 13 13 12 13 14 15 17 18 21 22 25 25 26 28 29 30 31 32 35 36 36 36 38 39 41 42 43
36 37 34 35 36 35 36 35 35 33 31 29 27 25 23 21 21 20 20 16 13 10 9 8 8 11 11 11 12 13 13 15 16 17 18 20 20 23 26 27 29 30 30 31 33 34 35 37 37 38 39 39 40 41
37 39 38 38 39 38 34 33 32 31 30 30 28 26 26 24 22 19 16 14 11 10 8 7 7 6 7 8 10 11 12 14 15 16 17 19 21 23 25 27 29 31 32 33 35 35 37 38 39 41 42 42 43 45
38 38 39 39 39 39 38 36 35 34 34 32 30 27 25 24 22 19 16 14 11 8 6 4 4 6 7 9 11 12 14 16 18 20 21 22 24 27 29 30 31 33 34 36 37 39 40 41 41 42 43 44 45 46
34 35 37 37 38 39 39 38 37 34 33 30 27 24 22 21 19 16 13 9 6 2 2 5 8 10 12 13 16 18 20 22 24 26 28 28 30 30 31 33 34 35 37 39 41 42 43 44 45 45 46 46 47 47
38 37 37 38 39 38 36 34 32 29 26 24 22 18 15 12 10 7 3 3 3 4 4 5 6 8 10 11 13 16 18 21 24 26 28 30 33 34 35 36 38 39 40 41 41 42 42 43 43 44 45 46 47 48
36 35 34 34 33 31 29 28 25 23 21 19 17 14 10 6 3 2 2 4 6 9 11 13 14 15 16 17 17 18 18 19 20 23 25 28 30 32 34 36 38 39 41 42 42 43 44 44 44 44 44 44 44 45
30 31 31 30 28 28 25 24 22 20 17 14 11 8 7 6 5 4 5 8 10 11 12 12 12 14 16 17 18 19 20 20 22 23 24 25 26 29 31 33 35 37 39 40 41 42 42 43 43 43 43 43 43 43
30 31 30 29 28 27 23 20 18 16 14 13 11 8 6 5 7 8 10 12 14 16 17 19 20 20 18 18 19 20 21 21 21 22 23 24 25 25 26 27 29 31 33 35 37 38 40 40 41 41 41 41 41 41
31 31 31 29 28 24 21 19 16 14 12 11 11 9 8 10 11 12 13 15 17 19 21 23 24 24 23 21 21 20 20 21 22 22 23 23 24 24 24 25 26 28 30 32 33 34 35 36 37 37 38 38 38 38
27 26 25 23 22 20 19 17 15 14 13 11 10 11 12 14 15 16 18 19 20 21 23 25 26 27 28 27 26 24 23 22 22 22 22 23 23 23 24 25 26 27 28 29 29 30 30 30 30 31 32 32 33 34
23 22 22 21 20 18 16 14 12 10 9 9 10 10 12 13 15 17 19 20 22 24 26 27 29 29 29 29 29 28 27 26 24 24 24 24 24 24 24 24 25 26 26 26 26 26 27 27 27 27 28 29 30 30
20 19 18 17 15 13 12 11 10 9 9 9 10 12 13 14 16 18 21 22 24 26 28 29 30 31 31 32 31 30 28 27 26 25 24 25 25 24 24 24 25 25 24 24 24 24 24 24 24 24 25 25 26 27
13 12 11 10 9 8 6 6 6 7 8 10 11 13 16 17 19 21 22 24 25 27 29 31 31 32 33 34 33 31 29 28 27 26 24 25 25 24 23 23 23 23 23 23 24 24 24 24 24 25 25 26 27 27
4 4 3 3 3 4 5 7 9 10 12 14 15 17 19 20 21 24 24 24 26 28 30 32 34 33 33 34 34 32 31 29 28 26 25 25 25 25 24 23 22 22 22 23 24 24 25 26 26 27 27 27 28 29
3 4 5 7 8 10 10 11 13 15 16 19 21 24 25 26 27 27 28 28 29 29 30 31 34 35 34 34 34 33 32 30 28 27 26 26 26 26 25 24 23 23 24 24 24 24 24 25 26 27 28 29 29 30
11 11 11 11 12 15 17 17 19 20 22 24 25 27 29 30 32 33 31 32 32 31 30 29 31 34 35 34 34 32 31 29 28 27 26 26 27 26 25 24 24 24 25 25 25 25 25 26 26 26 27 28 29 29

GFSWCAN_250_spd_120.txt.gz
Wind_Speed
75 75 74 73 73 74 73 75 79 82 82 83 82 82 86 89 88 89 87 85 84 81 78 74 67 67 64 63 62 62 66 66 63 57 52 45 37 31 30 28 27 27 27 25 30 32 33 34 34 35 36 37 39 39
77 78 76 76 75 75 74 75 75 74 74 78 79 79 79 81 82 81 79 79 75 73 68 63 60 61 64 66 69 67 66 63 60 52 47 40 34 29 28 28 27 26 26 27 28 33 34 34 35 41 44 43 44 45
75 77 78 77 76 77 76 76 76 77 76 74 73 72 71 71 72 73 70 68 67 63 58 61 64 68 69 69 69 67 63 59 54 47 40 36 31 28 27 26 26 22 25 27 29 34 37 36 42 47 51 49 47 50
70 72 74 76 75 77 76 76 74 78 77 78 78 76 74 75 74 73 72 71 69 69 68 65 69 69 68 66 64 63 59 54 50 40 36 32 28 27 26 25 27 25 29 30 30 35 37 39 47 51 51 53 55 53
61 65 68 72 74 75 74 72 67 74 83 81 76 78 78 78 76 76 73 70 69 71 69 67 66 65 64 63 61 59 55 49 42 35 32 28 25 25 26 25 26 26 28 30 29 37 39 43 50 53 53 53 57 57
54 55 59 63 68 70 69 66 66 74 77 74 73 79 74 73 74 73 71 71 72 69 63 63 62 59 56 58 58 55 47 41 34 30 28 24 24 24 26 24 25 27 27 28 33 35 37 44 50 53 57 57 59 59
47 50 52 54 58 61 63 59 63 77 75 70 73 71 73 69 69 68 66 65 64 62 61 58 57 56 57 56 53 48 40 34 29 26 24 23 21 24 23 24 26 25 27 30 34 37 38 39 48 52 56 58 61 58
42 45 48 50 52 53 54 55 60 69 72 71 65 62 63 69 67 64 61 59 60 58 55 55 56 54 53 50 46 37 32 27 24 24 22 21 22 22 23 24 23 24 27 33 38 39 42 41 46 51 56 59 60 59
38 40 41 44 46 49 51 54 57 60 61 60 46 46 57 59 57 58 57 58 55 52 52 52 51 49 43 42 36 30 26 23 21 22 21 20 21 23 22 21 24 25 28 32 37 38 40 40 44 49 53 57 58 60
33 36 37 39 42 45 47 48 48 46 44 41 43 40 46 51 51 52 51 48 47 48 47 45 41 39 37 33 27 24 22 21 20 21 19 20 23 22 20 21 23 24 26 30 34 35 36 40 42 46 49 52 56 54
29 32 33 34 36 37 39 39 38 37 35 37 40 41 45 42 42 40 40 41 41 38 35 35 35 31 29 26 23 22 21 21 21 22 21 21 19 19 25 26 25 24 24 28 33 34 35 37 39 41 45 47 46 48
27 29 31 31 31 32 33 33 33 37 40 37 36 36 33 32 32 35 35 32 32 31 32 29 28 25 23 22 20 20 19 19 18 18 20 19 21 24 25 26 26 25 26 28 30 33 35 36 38 40 41 43 44 47
26 28 30 30 30 30 31 32 29 26 25 25 27 29 31 32 32 31 31 30 31 28 25 24 22 21 20 20 19 18 18 19 18 19 18 18 22 22 24 26 27 25 26 28 30 32 34 36 38 40 41 42 45 46
25 26 26 27 26 24 23 24 26 28 29 29 28 28 27 29 30 29 27 25 22 22 21 19 19 19 19 18 18 17 18 18 19 19 18 19 22 24 25 26 27 28 29 30 31 32 34 35 37 39 41 43 45 47
25 25 24 24 25 26 27 28 27 26 25 25 25 26 26 23 21 22 22 21 20 18 18 19 19 18 17 17 17 17 17 18 18 18 20 21 22 23 24 26 29 31 31 31 32 32 33 35 38 39 41 43 44 45
28 29 30 29 29 29 28 26 26 25 23 20 19 19 21 22 23 21 20 19 18 18 18 16 15 15 15 14 14 14 15 16 16 17 19 21 22 23 24 26 28 30 31 32 34 34 35 35 37 38 40 43 45 45
31 30 28 29 29 29 29 28 27 25 24 26 25 24 22 21 21 21 19 18 16 13 13 12 11 10 11 11 12 13 14 15 16 17 18 19 22 23 25 26 27 28 29 32 34 35 36 37 37 39 40 42 43 45
30 29 28 27 27 27 29 30 32 32 30 27 25 25 23 22 21 20 18 16 15 14 12 9 8 8 8 9 9 10 11 13 15 17 19 20 21 23 25 26 28 29 30 32 34 35 35 37 37 37 39 41 42 44
32 33 32 33 34 34 32 30 30 30 30 29 27 26 25 23 21 20 19 17 14 10 8 6 5 6 6 7 8 10 11 14 16 18 20 21 23 24 26 28 29 30 32 33 35 36 37 38 40 41 43 44 45 45
31 34 33 34 35 34 35 34 33 32 32 31 29 28 26 25 23 21 18 15 11 8 5 3 2 3 6 8 10 12 15 17 19 22 23 24 26 27 29 31 32 33 34 36 37 38 40 41 43 43 44 46 47 48
33 36 38 39 38 39 38 37 37 34 33 32 30 27 25 23 21 18 16 13 8 5 1 2 5 8 11 13 15 18 20 22 24 25 27 26 29 30 31 32 34 35 37 38 40 41 42 43 44 44 45 45 46 47
37 36 37 38 39 39 38 36 35 33 30 29 28 26 24 21 17 12 9 6 4 3 2 4 6 8 10 12 14 17 19 21 24 26 28 30 31 32 34 35 36 37 38 38 40 40 41 42 43 44 45 46 46 47
38 37 37 37 37 36 35 33 32 30 27 26 24 20 17 13 11 11 8 6 6 7 8 8 9 11 13 15 17 19 21 22 24 25 26 28 30 32 33 34 35 36 37 37 37 37 38 38 39 39 40 41 42 43
32 35 34 33 32 32 30 29 27 24 22 19 17 16 14 11 10 8 6 6 6 7 9 10 11 12 13 15 16 18 19 21 23 25 26 27 28 29 31 32 33 35 36 37 37 38 38 38 37 38 37 38 38 39
27 28 29 30 30 29 29 26 23 20 19 18 16 14 13 13 11 10 10 10 12 14 16 17 19 20 21 21 20 20 19 20 21 24 25 26 27 28 29 29 29 31 32 34 35 36 36 37 37 37 37 37 36 35
29 29 30 30 29 27 26 25 22 20 19 18 17 15 14 13 11 11 11 13 15 17 19 22 23 24 25 25 26 26 26 24 23 22 23 24 25 27 28 28 29 29 30 31 32 33 34 35 35 34 34 34 34 34
30 29 29 28 26 24 24 23 22 20 18 16 14 12 11 9 9 10 12 13 13 16 18 20 23 25 26 28 28 28 29 29 27 27 26 25 25 25 25 25 25 27 28 29 30 31 32 31 31 31 31 31 32 32
25 24 23 22 22 21 21 19 17 15 13 11 9 7 5 6 8 10 11 13 14 17 19 21 23 26 27 28 30 31 32 32 30 29 29 29 29 28 27 26 27 27 27 28 28 28 28 28 27 28 28 28 29 29
21 20 19 18 18 17 15 13 11 9 7 5 4 5 6 7 9 11 13 15 17 19 21 23 24 28 30 31 31 32 33 34 33 32 31 31 29 28 29 28 27 27 27 27 26 26 26 26 27 27 28 28 29 29
16 15 14 13 11 10 8 7 5 3 2 2 3 4 6 8 12 14 16 18 20 22 22 24 26 28 30 32 33 34 35 36 36 35 33 32 31 29 29 28 27 28 28 27 27 26 26 26 26 27 28 29 30 30
10 9 8 7 6 4 3 1 1 3 5 7 9 12 13 16 17 19 21 22 23 24 25 26 28 29 30 31 34 36 36 36 37 35 34 33 32 31 30 30 29 28 27 26 26 26 26 27 27 28 29 29 29 30
6 7 7 7 6 6 5 4 6 8 10 13 14 16 18 20 22 25 26 26 27 27 29 30 30 29 30 31 34 36 36 36 36 36 36 34 33 32 31 31 30 29 28 27 27 27 27 27 28 29 29 30 30 31
12 11 11 11 10 10 12 12 12 14 16 18 20 20 22 24 26 28 30 31 32 33 32 32 34 34 32 32 33 35 37 36 36 37 36 35 34 33 33 31 31 30 29 29 28 28 28 28 29 29 30 30 30 30